[[{"header":{"parameterUnit":"m.s-1","parameterCategory":1,"la1":30.6,"la2":28.766,"lo1":-90.7593,"lo2":-88.6598,"dy":0.0162,"dx":0.0183,"nx":116,"ny":114,"refTime":"2023-08-04T06:00:00:Z","depth":0,"parameterNumber":2,"parameterNumberName":"U-component_of_WINDS"},"data":[0.0,0.0,0.0,0.0,0.0,0.0,0.0,0.0,0.0,0.0,0.0,0.0,0.0,0.0,0.0,0.0,0.0,0.0,0.0,0.0,0.0,0.0,0.0,0.0,0.0,0.0,0.0,0.0,0.0,0.0,0.0,0.0,0.0,0.0,0.0,0.0,0.0,0.0,0.0,0.0,0.0,0.0,0.0,0.0,0.0,0.0,0.0,0.0,0.0,0.0,0.0,0.0,0.0,0.0,0.0,0.0,0.0,0.0,0.0,0.0,0.0,0.0,0.0,0.0,0.0,0.0,0.0,0.0,0.0,0.0,0.0,0.0,0.0,0.0,0.0,0.0,0.0,0.0,0.0,0.0,0.0,0.0,0.0,0.0,0.0,0.0,0.0,0.0,0.0,0.0,0.0,0.0,0.0,0.0,0.0,0.0,0.0,0.0,0.0,0.0,0.0,0.0,0.0,0.0,0.0,0.0,0.0,0.0,0.0,0.0,0.0,0.0,0.0,0.0,0.0,0.0,0.0,0.0,0.0,0.0,0.0,0.0,0.0,0.0,0.0,0.0,0.0,0.0,0.0,0.0,0.0,0.0,0.0,0.0,0.0,0.0,0.0,0.0,0.0,0.0,0.0,0.0,0.0,0.0,0.0,0.0,0.0,0.0,0.0,0.0,0.0,0.0,0.0,0.0,0.0,0.0,0.0,0.0,0.0,0.0,0.0,0.0,0.0,0.0,0.0,0.0,0.0,0.0,0.0,0.0,0.0,0.0,0.0,0.0,0.0,0.0,0.0,0.0,0.0,0.0,0.0,0.0,0.0,0.0,0.0,0.0,0.0,0.0,0.0,0.0,0.0,0.0,0.0,0.0,0.0,0.0,0.0,0.0,0.0,0.0,0.0,0.0,0.0,0.0,0.0,0.0,0.0,0.0,0.0,0.0,0.0,0.0,0.0,0.0,0.0,0.0,0.0,0.0,0.0,0.0,0.0,0.0,0.0,0.0,0.0,0.0,0.0,0.0,0.0,0.0,0.0,0.0,0.0,0.0,0.0,0.0,0.0,0.0,0.0,0.0,0.0,0.0,0.0,0.0,0.0,0.0,0.0,0.0,0.0,0.0,0.0,0.0,0.0,0.0,0.0,0.0,0.0,0.0,0.0,0.0,0.0,0.0,0.0,0.0,0.0,0.0,0.0,0.0,0.0,0.0,0.0,0.0,0.0,0.0,0.0,0.0,0.0,0.0,0.0,0.0,0.0,0.0,0.0,0.0,0.0,0.0,0.0,0.0,0.0,0.0,0.0,0.0,0.0,0.0,0.0,0.0,0.0,0.0,0.0,0.0,0.0,0.0,0.0,0.0,0.0,0.0,0.0,0.0,0.0,0.0,0.0,0.0,0.0,0.0,0.0,0.0,0.0,0.0,0.0,0.0,0.0,0.0,0.0,0.0,0.0,0.0,0.0,0.0,0.0,0.0,0.0,0.0,0.0,0.0,0.0,0.0,0.0,0.0,0.0,0.0,0.0,0.0,0.0,0.0,0.0,0.0,0.0,0.0,0.0,0.0,0.0,0.0,0.0,0.0,0.0,0.0,0.0,0.0,0.0,0.0,0.0,0.0,0.0,0.0,0.0,0.0,0.0,0.0,0.0,0.0,0.0,0.0,0.0,0.0,0.0,0.0,0.0,0.0,0.0,0.0,0.0,0.0,0.0,0.0,0.0,0.0,0.0,0.0,0.0,0.0,0.0,0.0,0.0,0.0,0.0,0.0,0.0,0.0,0.0,0.0,0.0,0.0,0.0,0.0,0.0,0.0,0.0,0.0,0.0,0.0,0.0,0.0,0.0,0.0,0.0,0.0,0.0,0.0,0.0,0.0,0.0,0.0,0.0,0.0,0.0,0.0,0.0,0.0,0.0,0.0,0.0,0.0,0.0,0.0,0.0,0.0,0.0,0.0,0.0,0.0,0.0,0.0,0.0,0.0,0.0,0.0,0.0,0.0,0.0,0.0,0.0,0.0,0.0,0.0,0.0,0.0,0.0,0.0,0.0,0.0,0.0,0.0,0.0,0.0,0.0,0.0,0.0,0.0,0.0,0.0,0.0,0.0,0.0,0.0,0.0,0.0,0.0,0.0,0.0,0.0,0.0,0.0,0.0,0.0,0.0,0.0,0.0,0.0,0.0,0.0,0.0,0.0,0.0,0.0,0.0,0.0,0.0,0.0,0.0,0.0,0.0,0.0,0.0,0.0,0.0,0.0,0.0,0.0,0.0,0.0,0.0,0.0,0.0,0.0,0.0,0.0,0.0,0.0,0.0,0.0,0.0,0.0,0.0,0.0,0.0,0.0,0.0,0.0,0.0,0.0,0.0,0.0,0.0,0.0,0.0,0.0,0.0,0.0,0.0,0.0,0.0,0.0,0.0,0.0,0.0,0.0,0.0,0.0,0.0,0.0,0.0,0.0,0.0,0.0,0.0,0.0,0.0,0.0,0.0,0.0,0.0,0.0,0.0,0.0,0.0,0.0,0.0,0.0,0.0,0.0,0.0,0.0,0.0,0.0,0.0,0.0,0.0,0.0,0.0,0.0,0.0,0.0,0.0,0.0,0.0,0.0,0.0,0.0,0.0,0.0,0.0,0.0,0.0,0.0,0.0,0.0,0.0,0.0,0.0,0.0,0.0,0.0,0.0,0.0,0.0,0.0,0.0,0.0,0.0,0.0,0.0,0.0,0.0,0.0,0.0,0.0,0.0,0.0,0.0,0.0,0.0,0.0,0.0,0.0,0.0,0.0,0.0,0.0,0.0,0.0,0.0,0.0,0.0,0.0,0.0,0.0,0.0,0.0,0.0,0.0,0.0,0.0,0.0,0.0,0.0,0.0,0.0,0.0,0.0,0.0,0.0,0.0,0.0,0.0,0.0,0.0,0.0,0.0,0.0,0.0,0.0,0.0,0.0,0.0,0.0,0.0,0.0,0.0,0.0,0.0,0.0,0.0,0.0,0.0,0.0,0.0,0.0,0.0,0.0,0.0,0.0,0.0,0.0,0.0,0.0,0.0,0.0,0.0,0.0,0.0,0.0,0.0,0.0,0.0,0.0,0.0,0.0,0.0,0.0,0.0,0.0,0.0,0.0,0.0,0.0,0.0,0.0,0.0,0.0,0.0,0.0,0.0,0.0,0.0,0.0,0.0,0.0,0.0,0.0,0.0,0.0,0.0,0.0,0.0,0.0,0.0,0.0,0.0,0.0,0.0,0.0,0.0,0.0,0.0,0.0,0.0,0.0,0.0,0.0,0.0,0.0,0.0,0.0,0.0,0.0,0.0,0.0,0.0,0.0,0.0,0.0,0.0,0.0,0.0,0.0,0.0,0.0,0.0,0.0,0.0,0.0,0.0,0.0,0.0,0.0,0.0,0.0,0.0,0.0,0.0,0.0,0.0,0.0,0.0,0.0,0.0,0.0,0.0,0.0,0.0,0.0,0.0,0.0,0.0,0.0,0.0,0.0,0.0,0.0,0.0,0.0,0.0,0.0,0.0,0.0,0.0,0.0,0.0,0.0,0.0,0.0,0.0,0.0,0.0,0.0,0.0,0.0,0.0,0.0,0.0,0.0,0.0,0.0,0.0,0.0,0.0,0.0,0.0,0.0,0.0,0.0,0.0,0.0,0.0,0.0,0.0,0.0,0.0,0.0,0.0,0.0,0.0,0.0,0.0,0.0,0.0,0.0,0.0,0.0,0.0,0.0,0.0,0.0,0.0,0.0,0.0,0.0,0.0,0.0,0.0,0.0,0.0,0.0,0.0,0.0,0.0,0.0,0.0,0.0,0.0,0.0,0.0,0.0,0.0,0.0,0.0,0.0,0.0,0.0,0.0,0.0,0.0,0.0,0.0,0.0,0.0,0.0,0.0,0.0,0.0,0.0,0.0,0.0,0.0,0.0,0.0,0.0,0.0,0.0,0.0,0.0,0.0,0.0,0.0,0.0,0.0,0.0,0.0,0.0,0.0,0.0,0.0,0.0,0.0,0.0,0.0,0.0,0.0,0.0,0.0,0.0,0.0,0.0,0.0,0.0,0.0,0.0,0.0,0.0,0.0,0.0,0.0,0.0,0.0,0.0,0.0,0.0,0.0,0.0,0.0,0.0,0.0,0.0,0.0,0.0,0.0,0.0,0.0,0.0,0.0,0.0,0.0,0.0,0.0,0.0,0.0,0.0,0.0,0.0,0.0,0.0,0.0,0.0,0.0,0.0,0.0,0.0,0.0,0.0,0.0,0.0,0.0,0.0,0.0,0.0,0.0,0.0,0.0,0.0,0.0,0.0,0.0,0.0,0.0,0.0,0.0,0.0,0.0,0.0,0.0,0.0,0.0,0.0,0.0,0.0,0.0,0.0,0.0,0.0,0.0,0.0,0.0,0.0,0.0,0.0,0.0,0.0,0.0,0.0,0.0,0.0,0.0,0.0,0.0,0.0,0.0,0.0,0.0,0.0,0.0,0.0,0.0,0.0,0.0,0.0,0.0,0.0,0.0,0.0,0.0,0.0,0.0,0.0,0.0,0.0,0.0,0.0,0.0,0.0,0.0,0.0,0.0,0.0,0.0,0.0,0.0,0.0,0.0,0.0,0.0,0.0,0.0,0.0,0.0,0.0,0.0,0.0,0.0,0.0,0.0,0.0,0.0,0.0,0.0,0.0,0.0,0.0,0.0,0.0,0.0,0.0,0.0,0.0,0.0,0.0,0.0,0.0,0.0,0.0,0.0,0.0,0.0,0.0,0.0,0.0,0.0,0.0,0.0,0.0,0.0,0.0,0.0,0.0,0.0,0.0,0.0,0.0,0.0,0.0,0.0,0.0,0.0,0.0,0.0,0.0,0.0,0.0,0.0,0.0,0.0,0.0,0.0,0.0,0.0,0.0,0.0,0.0,0.0,0.0,0.0,0.0,0.0,0.0,0.0,0.0,0.0,0.0,0.0,0.0,0.0,0.0,0.0,0.0,0.0,0.0,0.0,0.0,0.0,0.0,0.0,0.0,0.0,0.0,0.0,0.0,0.0,0.0,0.0,0.0,0.0,0.0,0.0,0.0,0.0,0.0,0.0,0.0,0.0,0.0,0.0,0.0,0.0,0.0,0.0,0.0,0.0,0.0,0.0,0.0,0.0,0.0,0.0,0.0,0.0,0.0,0.0,0.0,0.0,0.0,0.0,0.0,0.0,0.0,0.0,0.0,0.0,0.0,0.0,0.0,0.0,0.0,0.0,0.0,0.0,0.0,0.0,0.0,0.0,0.0,0.0,0.0,0.0,0.0,0.0,0.0,0.0,0.0,0.0,0.0,0.0,0.0,0.0,0.0,0.0,0.0,0.0,0.0,0.0,0.0,0.0,0.0,0.0,0.0,0.0,0.0,0.0,0.0,0.0,0.0,0.0,0.0,0.0,0.0,0.0,0.0,0.0,0.0,0.0,0.0,0.0,0.0,0.0,0.0,0.0,0.0,0.0,0.0,0.0,0.0,0.0,0.0,0.0,0.0,0.0,0.0,0.0,0.0,0.0,0.0,0.0,0.0,0.0,0.0,0.0,0.0,0.0,0.0,0.0,0.0,0.0,0.0,0.0,0.0,0.0,0.0,0.0,0.0,0.0,0.0,0.0,0.0,0.0,0.0,0.0,0.0,0.0,0.0,0.0,0.0,0.0,0.0,0.0,0.0,0.0,0.0,0.0,0.0,0.0,0.0,0.0,0.0,0.0,0.0,0.0,0.0,0.0,0.0,0.0,0.0,0.0,0.0,0.0,0.0,0.0,0.0,0.0,0.0,0.0,0.0,0.0,0.0,0.0,0.0,0.0,0.0,0.0,0.0,0.0,0.0,0.0,0.0,0.0,0.0,0.0,0.0,0.0,0.0,0.0,0.0,0.0,0.0,0.0,0.0,0.0,0.0,0.0,0.0,0.0,0.0,0.0,0.0,0.0,0.0,0.0,0.0,0.0,0.0,0.0,0.0,0.0,0.0,0.0,0.0,0.0,0.0,0.0,0.0,0.0,0.0,0.0,0.0,0.0,0.0,0.0,0.0,0.0,0.0,0.0,0.0,0.0,0.0,0.0,0.0,0.0,0.0,0.0,0.0,0.0,0.0,0.0,-4.2459,0.0,0.0,0.0,0.0,0.0,0.0,0.0,0.0,0.0,0.0,0.0,0.0,0.0,0.0,0.0,0.0,0.0,0.0,0.0,0.0,0.0,0.0,0.0,0.0,0.0,0.0,0.0,0.0,0.0,0.0,0.0,0.0,0.0,0.0,0.0,0.0,0.0,0.0,0.0,0.0,0.0,0.0,0.0,0.0,0.0,0.0,0.0,0.0,0.0,0.0,0.0,0.0,0.0,0.0,0.0,0.0,0.0,0.0,0.0,0.0,0.0,0.0,0.0,0.0,0.0,0.0,0.0,0.0,0.0,0.0,0.0,0.0,0.0,0.0,0.0,0.0,0.0,0.0,0.0,0.0,0.0,0.0,0.0,0.0,0.0,0.0,0.0,0.0,0.0,0.0,0.0,0.0,0.0,0.0,0.0,0.0,0.0,0.0,0.0,0.0,0.0,0.0,0.0,0.0,0.0,0.0,0.0,0.0,0.0,0.0,0.0,0.0,0.0,0.0,0.0,0.0,-4.19,0.0,0.0,0.0,0.0,0.0,0.0,0.0,0.0,0.0,0.0,0.0,0.0,0.0,0.0,0.0,0.0,0.0,0.0,0.0,0.0,0.0,0.0,0.0,0.0,0.0,0.0,0.0,0.0,0.0,0.0,0.0,0.0,0.0,0.0,0.0,0.0,0.0,0.0,0.0,0.0,0.0,0.0,0.0,0.0,0.0,0.0,0.0,0.0,0.0,0.0,0.0,0.0,0.0,0.0,0.0,0.0,0.0,0.0,0.0,0.0,0.0,0.0,0.0,0.0,0.0,0.0,0.0,0.0,0.0,0.0,0.0,0.0,0.0,0.0,0.0,0.0,0.0,0.0,0.0,0.0,0.0,0.0,0.0,0.0,0.0,0.0,0.0,0.0,0.0,0.0,0.0,0.0,0.0,0.0,0.0,0.0,0.0,0.0,0.0,0.0,0.0,0.0,0.0,0.0,0.0,0.0,0.0,0.0,-4.3848,-4.3479,-4.3333,-4.3213,-4.2925,-4.2396,-4.1835,-4.1588,-4.1588,0.0,0.0,0.0,0.0,0.0,0.0,0.0,0.0,0.0,0.0,0.0,0.0,0.0,0.0,0.0,0.0,0.0,0.0,0.0,0.0,0.0,0.0,0.0,0.0,0.0,0.0,0.0,0.0,0.0,0.0,0.0,0.0,0.0,0.0,0.0,0.0,0.0,0.0,0.0,-3.8634,-3.8634,-3.8697,-3.8823,0.0,0.0,0.0,0.0,0.0,0.0,0.0,0.0,0.0,0.0,0.0,0.0,0.0,0.0,0.0,0.0,0.0,0.0,0.0,0.0,0.0,0.0,0.0,0.0,0.0,0.0,0.0,0.0,0.0,0.0,0.0,0.0,0.0,0.0,0.0,0.0,0.0,0.0,0.0,0.0,0.0,0.0,0.0,0.0,-4.8363,-4.7485,0.0,0.0,0.0,0.0,0.0,0.0,0.0,0.0,0.0,0.0,0.0,0.0,0.0,0.0,-4.5214,-4.5001,-4.4546,-4.3831,-4.3196,-4.2863,-4.2694,-4.2142,-4.1835,-4.172,-4.1654,0.0,-4.1588,-4.1588,0.0,0.0,0.0,0.0,0.0,0.0,0.0,0.0,0.0,0.0,0.0,0.0,0.0,0.0,0.0,0.0,0.0,0.0,0.0,0.0,0.0,0.0,0.0,0.0,0.0,0.0,0.0,0.0,0.0,0.0,0.0,0.0,0.0,0.0,0.0,0.0,-3.9161,-3.8825,-3.8456,-3.8456,-3.8323,-3.8205,-3.8492,-3.9125,-3.9888,-3.9521,0.0,0.0,0.0,0.0,0.0,0.0,0.0,0.0,0.0,0.0,0.0,0.0,0.0,0.0,0.0,0.0,0.0,0.0,0.0,0.0,0.0,0.0,0.0,0.0,0.0,0.0,0.0,0.0,0.0,0.0,0.0,0.0,0.0,0.0,0.0,0.0,0.0,0.0,0.0,-4.8749,-4.8082,-4.6888,-4.7116,-4.7081,0.0,0.0,0.0,0.0,0.0,0.0,0.0,0.0,0.0,-4.6073,-4.5684,-4.5284,-4.491,-4.4095,-4.3495,-4.3092,-4.2427,-4.2077,-4.2029,-4.1704,-4.1588,-4.1588,-4.1588,-4.1456,-4.1189,-4.1456,-4.139,-4.1122,0.0,0.0,0.0,0.0,0.0,-3.6286,0.0,0.0,0.0,0.0,0.0,0.0,0.0,0.0,0.0,0.0,0.0,0.0,0.0,0.0,0.0,0.0,0.0,0.0,0.0,0.0,0.0,0.0,0.0,0.0,0.0,0.0,0.0,0.0,-3.9153,-3.8893,-3.8391,-3.8391,-3.8278,-3.8001,-3.7943,-3.83,-3.895,-3.846,-3.8254,0.0,0.0,0.0,0.0,0.0,0.0,0.0,0.0,0.0,0.0,0.0,0.0,0.0,0.0,0.0,0.0,0.0,0.0,0.0,0.0,0.0,0.0,0.0,0.0,0.0,0.0,0.0,0.0,0.0,0.0,0.0,0.0,0.0,0.0,0.0,0.0,0.0,0.0,-4.8082,-4.7503,-4.6312,-4.6748,-4.6871,0.0,0.0,0.0,0.0,0.0,0.0,-4.6172,-4.6172,-4.6122,-4.5922,-4.5337,-4.4838,-4.4356,-4.3273,-4.2615,-4.2333,-4.1835,-4.1588,-4.1588,-4.1588,-4.1588,-4.1588,-4.1456,-4.1189,-4.0799,-4.1256,-4.1055,-4.0578,-4.0578,-3.9956,-3.8933,-3.8127,-3.6821,-3.5394,0.0,0.0,0.0,0.0,0.0,0.0,0.0,0.0,0.0,0.0,0.0,0.0,0.0,0.0,0.0,0.0,0.0,0.0,0.0,0.0,0.0,0.0,0.0,0.0,0.0,0.0,0.0,-3.8456,-3.8456,-3.8424,-3.8391,-3.8391,-3.8391,-3.8335,-3.8017,-3.7775,-3.7575,-3.7543,-3.7528,-3.7528,0.0,0.0,0.0,0.0,0.0,0.0,0.0,0.0,0.0,0.0,0.0,0.0,0.0,0.0,0.0,0.0,0.0,0.0,0.0,0.0,0.0,0.0,0.0,0.0,0.0,0.0,0.0,0.0,0.0,0.0,0.0,0.0,0.0,0.0,0.0,0.0,0.0,0.0,0.0,-4.6239,-4.6256,0.0,0.0,0.0,0.0,-4.6172,-4.6172,-4.6172,-4.6172,-4.6172,-4.6023,-4.5632,-4.5142,-4.4395,-4.3366,-4.288,-4.2269,-4.1654,-4.1588,-4.1588,-4.1588,-4.1588,-4.1588,-4.1588,-4.1055,-4.0799,-4.0799,-4.0799,-4.0493,-3.9975,-3.9975,-3.958,-3.8888,-3.7704,-3.6329,-3.4934,0.0,0.0,0.0,0.0,0.0,0.0,0.0,0.0,0.0,0.0,0.0,0.0,0.0,0.0,0.0,0.0,0.0,0.0,0.0,0.0,0.0,0.0,0.0,0.0,0.0,0.0,-3.9002,-3.9002,-3.9002,-3.9002,-3.9002,-3.9002,-3.8782,-3.8391,-3.8278,-3.7918,-3.748,-3.748,-3.748,-3.748,-3.748,-3.7285,0.0,0.0,0.0,0.0,0.0,0.0,0.0,0.0,0.0,0.0,0.0,0.0,0.0,0.0,0.0,0.0,0.0,0.0,0.0,0.0,0.0,0.0,0.0,0.0,0.0,0.0,0.0,0.0,0.0,0.0,0.0,0.0,0.0,0.0,0.0,0.0,0.0,-4.6172,-4.6172,0.0,-4.6172,-4.6172,-4.6172,-4.6172,-4.6172,-4.6172,-4.6172,-4.5955,-4.5632,-4.5178,-4.4339,-4.3529,-4.2896,-4.2269,-4.1851,-4.1588,-4.1588,-4.1588,-4.1588,-4.1588,-4.1588,-4.1588,-4.1055,-4.0562,-4.02,-3.9879,-3.9595,-3.932,-3.8871,-3.8106,-3.7201,-3.6344,-3.5285,-3.4194,0.0,0.0,0.0,0.0,0.0,0.0,0.0,0.0,0.0,0.0,0.0,0.0,0.0,0.0,0.0,0.0,0.0,0.0,0.0,0.0,0.0,0.0,0.0,0.0,0.0,-3.9272,-3.9272,-3.9272,-3.9272,-3.9272,-3.9272,-3.9272,-3.911,-3.8672,-3.8504,-3.8164,-3.7775,-3.7405,-3.7345,-3.748,-3.7285,-3.7029,-3.677,0.0,0.0,0.0,0.0,0.0,0.0,0.0,0.0,0.0,0.0,0.0,0.0,0.0,0.0,0.0,0.0,0.0,0.0,0.0,0.0,0.0,0.0,0.0,0.0,0.0,0.0,0.0,0.0,0.0,0.0,0.0,0.0,0.0,0.0,0.0,-4.6172,-4.6172,-4.6172,-4.6172,-4.6172,-4.6172,-4.6172,-4.6172,-4.6172,-4.6172,-4.6172,-4.5735,-4.5232,-4.4729,-4.3689,-4.288,-4.2476,-4.19,-4.1588,-4.1588,-4.1588,-4.1588,-4.1588,-4.139,-4.1323,-4.1323,-4.0578,-4.0005,-3.9565,-3.9002,-3.8679,-3.8458,-3.8001,-3.7212,-3.6228,-3.5449,-3.4522,-3.3563,0.0,0.0,0.0,0.0,0.0,0.0,0.0,0.0,0.0,0.0,0.0,0.0,0.0,0.0,0.0,0.0,0.0,0.0,0.0,0.0,0.0,0.0,0.0,0.0,-3.9272,-3.9272,-3.9272,-3.9272,-3.9272,-3.9272,-3.9272,-3.9272,-3.9272,-3.9272,-3.8672,-3.8408,-3.8335,-3.7194,-3.7029,-3.7421,-3.6907,-3.6662,-3.6585,0.0,0.0,0.0,0.0,0.0,0.0,0.0,0.0,0.0,0.0,0.0,0.0,0.0,0.0,0.0,0.0,0.0,0.0,0.0,0.0,0.0,0.0,0.0,0.0,0.0,0.0,0.0,0.0,0.0,0.0,0.0,0.0,0.0,-4.659,-4.635,-4.6172,-4.6172,-4.6172,-4.6172,-4.6172,-4.6172,-4.6172,-4.6172,-4.6172,-4.6172,-4.6172,-4.5494,-4.4875,-4.4378,-4.3317,-4.2553,-4.2109,-4.1785,-4.1588,-4.1588,-4.1588,-4.1588,-4.1588,-4.1055,-4.0799,-4.073,-3.9595,-3.909,-3.8987,-3.8397,-3.7825,-3.7273,-3.7273,-3.6867,-3.6128,-3.5124,-3.4143,-3.3199,0.0,0.0,0.0,0.0,0.0,0.0,0.0,0.0,0.0,0.0,0.0,0.0,0.0,0.0,0.0,0.0,0.0,0.0,0.0,0.0,0.0,0.0,0.0,0.0,-3.9272,-3.9272,-3.9272,-3.9272,-3.9272,-3.9272,-3.9272,-3.9272,-3.9148,-3.8914,-3.875,-3.86,-3.8335,-3.7401,-3.7087,-3.7163,-3.6415,-3.5928,-3.5623,0.0,0.0,0.0,0.0,0.0,0.0,0.0,0.0,0.0,0.0,0.0,0.0,0.0,0.0,0.0,0.0,0.0,0.0,0.0,0.0,0.0,0.0,0.0,0.0,0.0,0.0,0.0,0.0,0.0,0.0,0.0,0.0,-4.6319,-4.6319,-4.6221,-4.6172,-4.6172,-4.6172,-4.6172,-4.6172,-4.6172,-4.6172,-4.6172,-4.6172,-4.6073,-4.5803,-4.5001,-4.4322,-4.3647,-4.2756,-4.2093,-4.172,-4.1654,-4.1588,-4.1588,-4.1588,-4.139,-4.0987,-4.0867,-4.0578,-4.013,-3.9364,-3.8822,-3.8362,-3.7755,-3.7172,-3.6577,-3.6577,-3.6185,-3.5546,-3.477,-3.3996,-3.3199,0.0,0.0,0.0,0.0,0.0,0.0,0.0,0.0,0.0,0.0,0.0,0.0,0.0,0.0,0.0,0.0,0.0,0.0,0.0,0.0,0.0,0.0,0.0,-3.8788,-3.8495,-3.8717,-3.8788,-3.8495,-3.8788,-3.8898,-3.8898,-3.9148,-3.9218,-3.8985,-3.886,-3.8694,-3.8488,-3.737,-3.6874,-3.6753,-3.5849,-3.5365,-3.5234,-3.5365,-3.5052,-3.4549,-3.492,-3.5234,-3.5429,-3.5672,0.0,0.0,0.0,0.0,0.0,0.0,0.0,0.0,0.0,0.0,0.0,0.0,0.0,0.0,0.0,0.0,0.0,0.0,0.0,0.0,0.0,0.0,0.0,0.0,-4.6005,-4.6122,-4.6172,-4.6172,-4.6172,-4.6172,-4.6172,-4.6172,-4.6172,-4.6172,-4.6122,-4.5955,-4.5955,-4.5735,-4.5354,-4.4434,-4.3748,-4.3306,-4.2396,-4.1785,-4.1588,-4.1588,-4.1588,-4.1588,-4.1588,-4.1323,-4.0799,-4.0562,-4.013,0.0,-3.8735,-3.812,-3.7737,-3.7128,-3.6504,0.0,0.0,0.0,0.0,0.0,-3.3563,-3.2988,0.0,0.0,0.0,0.0,0.0,0.0,0.0,0.0,0.0,0.0,0.0,0.0,0.0,0.0,0.0,0.0,0.0,0.0,0.0,0.0,0.0,-3.7115,-3.7822,-3.7937,-3.7413,-3.7937,-3.7937,-3.7429,-3.801,-3.8222,-3.8222,-3.8843,-3.9094,-3.9094,-3.8788,-3.8623,-3.8567,-3.716,-3.6508,-3.6259,-3.5299,-3.4986,-3.5103,-3.4817,-3.4698,-3.4698,-3.4868,-3.5184,-3.5688,-3.6006,0.0,0.0,0.0,0.0,0.0,0.0,0.0,0.0,0.0,0.0,0.0,0.0,0.0,0.0,0.0,0.0,0.0,0.0,0.0,0.0,0.0,0.0,0.0,0.0,-4.5735,-4.5988,-4.6055,-4.6122,-4.6172,-4.6172,-4.6172,-4.6172,-4.6172,-4.6172,-4.5955,-4.5632,-4.5529,-4.5302,-4.4855,0.0,0.0,0.0,0.0,-4.1588,-4.1588,-4.1588,-4.1588,-4.1522,-4.1522,-4.1189,-4.0578,-3.9969,-3.9373,-3.881,-3.7682,-3.7157,-3.7041,-3.6446,-3.5822,-3.5256,-3.5256,-3.5256,-3.5045,-3.3691,-3.2988,0.0,0.0,0.0,0.0,0.0,0.0,0.0,0.0,0.0,0.0,0.0,0.0,0.0,0.0,0.0,0.0,0.0,0.0,0.0,0.0,0.0,-3.731,-3.737,-3.7488,-3.7589,-3.7531,-3.7706,-3.778,-3.7812,-3.7927,-3.7911,-3.7764,-3.7879,-3.7895,-3.778,-3.7722,-3.7663,-3.7605,-3.6662,-3.6243,-3.618,-3.5249,-3.4735,-3.4601,-3.4802,-3.4817,-3.4698,-3.4868,-3.5001,-3.5052,-3.5329,-3.5831,-3.6383,-3.6554,0.0,0.0,0.0,0.0,0.0,0.0,0.0,0.0,0.0,0.0,0.0,0.0,0.0,0.0,0.0,0.0,0.0,0.0,0.0,0.0,-4.4614,-4.5196,-4.5563,-4.5178,-4.5735,-4.6172,-4.6172,-4.6172,-4.6172,-4.6172,-4.5905,-4.5684,-4.558,-4.5249,-4.4855,-4.4446,-4.3739,0.0,-4.2772,-4.2029,-4.1588,-4.1588,-4.1588,-4.139,-4.0919,0.0,0.0,-3.9436,-3.8725,-3.8144,-3.7594,-3.6852,-3.6214,-3.5735,-3.5604,-3.503,-3.4094,-3.4094,-3.4094,-3.4011,-3.3171,-3.2775,-3.2632,0.0,0.0,0.0,0.0,0.0,0.0,0.0,0.0,0.0,0.0,0.0,0.0,0.0,0.0,0.0,0.0,0.0,0.0,0.0,-3.6399,-3.6538,-3.629,-3.6768,-3.7071,-3.71,-3.7175,-3.731,-3.7385,-3.7385,-3.7326,-3.7235,-3.7895,-3.7953,-3.7531,-3.7822,-3.7764,-3.737,-3.66,-3.6258,-3.6148,-3.5459,-3.5016,-3.4668,-3.4935,-3.5016,-3.4949,-3.5148,-3.5213,-3.5213,-3.5294,-3.5539,-3.5846,-3.591,-3.6211,-3.6492,0.0,0.0,0.0,0.0,0.0,0.0,0.0,0.0,0.0,0.0,0.0,0.0,0.0,0.0,-4.256,0.0,0.0,-4.4558,-4.435,-4.4686,-4.4944,-4.491,-4.5284,-4.5632,-4.5854,-4.6073,-4.6172,-4.6172,-4.5854,-4.5529,-4.5249,-4.4872,-4.4316,-4.3697,-4.3202,-4.2772,-4.2349,-4.1835,-4.1588,-4.1588,-4.1588,-4.1323,-4.0799,-4.0799,-4.0047,-3.8585,-3.8243,-3.7632,-3.6765,-3.6112,-3.5662,-3.5343,-3.5024,-3.4553,-3.4059,-3.3701,-3.3563,-3.3479,-3.2917,-3.2704,-3.2632,0.0,0.0,0.0,0.0,0.0,0.0,0.0,0.0,0.0,0.0,0.0,0.0,0.0,0.0,0.0,0.0,0.0,0.0,0.0,-3.5672,-3.5703,-3.5213,-3.6006,-3.6477,-3.6508,-3.6768,-3.689,-3.6799,-3.6966,-3.6906,-3.6723,-3.7796,-3.7854,-3.7175,-3.7706,-3.7589,-3.7027,-3.643,-3.6133,-3.6022,-3.5683,-3.5294,-3.5001,-3.5213,-3.5148,-3.5001,-3.5213,-3.5133,-3.5082,-3.5213,-3.5279,-3.5279,-3.5439,-3.5504,-3.5619,-3.6085,-3.6258,0.0,0.0,0.0,0.0,0.0,0.0,0.0,0.0,0.0,-3.9581,-4.045,-4.1379,-4.2131,-4.2735,-4.3591,-4.4179,-4.4179,-4.4253,-4.4406,-4.458,-4.4801,-4.5018,-4.5319,-4.5684,-4.6005,-4.6172,-4.5684,-4.5196,-4.491,-4.4446,-4.3831,-4.3174,-4.2772,-4.2476,-4.2109,-4.1785,-4.1588,-4.1588,-4.1522,-4.1189,-4.0646,-4.037,-3.9464,-3.7952,-3.7686,-3.7005,-3.6083,-3.5444,-3.5183,-3.514,-3.4617,-3.4346,-3.4196,-3.3409,-3.3044,-3.2974,-3.2547,-3.2403,-3.2331,0.0,0.0,0.0,0.0,0.0,0.0,0.0,0.0,0.0,0.0,0.0,0.0,0.0,0.0,0.0,0.0,0.0,0.0,-3.475,-3.4935,-3.5067,-3.5213,-3.5489,-3.5797,-3.6085,-3.66,-3.6799,-3.6538,-3.7058,-3.6937,-3.6085,-3.6274,-3.61,-3.5733,-3.5797,-3.5797,-3.5748,-3.5619,-3.5554,-3.5554,-3.5504,0.0,-3.5439,-3.5439,-3.4935,-3.4221,-3.4394,-3.3973,-3.3575,-3.4177,-3.4461,-3.4528,-3.5279,-3.5504,-3.5504,-3.5554,0.0,-3.5619,-3.5683,-3.6085,-3.6662,-3.737,-3.7879,-3.8334,0.0,0.0,-3.9358,-3.9478,-4.0574,-4.1481,-4.1581,-4.2742,-4.3687,-4.3687,-4.4023,-4.4196,-4.3789,-4.4429,-4.4818,-4.4463,-4.4818,-4.5337,-4.6122,-4.5159,-4.4558,-4.4855,-4.4162,-4.3492,-4.3113,-4.2772,-4.2476,-4.2109,-4.1785,-4.1588,-4.1588,-4.1122,-4.0562,-3.996,-3.8877,-3.8041,-3.7332,-3.6239,-3.5601,-3.543,-3.4791,-3.4516,-3.4516,-3.4443,-3.4196,-3.377,-3.2889,-3.2304,-3.1942,-3.1516,-3.1368,-3.1307,0.0,0.0,0.0,0.0,0.0,0.0,0.0,0.0,0.0,0.0,0.0,0.0,0.0,0.0,0.0,0.0,0.0,0.0,-3.4346,-3.4616,-3.4883,-3.5213,-3.5359,-3.5797,-3.6352,-3.6368,-3.6492,-3.6738,-3.6631,-3.6569,-3.6554,-3.6554,-3.6445,-3.6211,-3.618,-3.5894,-3.5504,-3.5504,-3.5504,-3.5504,-3.5504,-3.5504,-3.5504,-3.5504,-3.4986,-3.4259,-3.4839,-3.4476,0.0,0.0,-3.4986,-3.5067,-3.5359,-3.5504,-3.5504,-3.5504,-3.5504,0.0,-3.5504,-3.5668,-3.6022,0.0,-3.7011,-3.7413,-3.8108,-3.8238,-3.8383,-3.9148,-3.9775,-4.0484,-4.1269,-4.227,-4.3115,0.0,-4.373,-4.3789,-4.3628,-4.3889,-4.4162,-4.431,-4.4236,-4.4485,-4.5354,-4.4981,-4.4597,-4.4558,-4.3948,-4.3372,-4.2851,-4.2648,-4.2333,-4.1851,-4.139,-4.1122,-4.1122,-4.0192,-3.9428,-3.8822,-3.7983,-3.7072,-3.6156,-3.5604,-3.5169,-3.4791,-3.453,-3.4414,-3.4414,-3.4414,-3.4278,-3.4045,-3.2875,-3.206,-3.1549,-3.0908,-3.0696,-3.062,0.0,0.0,0.0,0.0,0.0,0.0,0.0,0.0,0.0,0.0,0.0,0.0,0.0,0.0,0.0,0.0,0.0,0.0,0.0,-3.4346,-3.4683,-3.5016,-3.5294,0.0,-3.6554,-3.6477,-3.6677,-3.7207,-3.6723,-3.6616,-3.6829,-3.6829,-3.6662,-3.6383,-3.6461,-3.618,-3.5504,-3.5504,-3.5439,-3.5439,-3.5504,-3.5439,-3.5439,-3.5504,-3.4986,-3.438,-3.4986,-3.4691,0.0,0.0,-3.5198,-3.5213,-3.5424,-3.5504,-3.5504,-3.5504,-3.5504,-3.5504,-3.5504,-3.5504,-3.5619,-3.6022,-3.6258,-3.6662,-3.7589,-3.7589,-3.7663,-3.8623,-3.9121,-3.9764,-4.0918,-4.1906,-4.2767,-4.3495,-4.3628,-4.3628,-4.3628,-4.3628,-4.3747,-4.408,-4.3906,-4.4006,-4.4468,-4.4524,-4.4485,-4.4293,-4.3789,-4.3235,-4.2664,-4.2522,-4.2222,-4.1588,-4.107,-4.0706,-4.0504,-3.9329,-3.8442,-3.7812,-3.705,-3.6226,-3.5427,-3.5183,-3.4849,-3.4414,-3.4414,-3.4414,-3.4414,-3.4182,-3.4045,-3.3894,-3.2434,-3.1549,-3.1031,-3.0165,-2.9947,-3.0024,0.0,0.0,0.0,0.0,0.0,0.0,0.0,0.0,0.0,0.0,0.0,0.0,0.0,0.0,0.0,0.0,0.0,0.0,0.0,-3.3991,-3.4278,-3.4698,-3.5016,-3.5559,-3.6384,-3.7175,-3.7663,-3.7886,-3.778,-3.7413,-3.6738,-3.6738,-3.6258,-3.5554,-3.6133,-3.6085,-3.5504,-3.5504,-3.5359,-3.5213,-3.5439,-3.5359,-3.5213,-3.5439,-3.4986,-3.4312,-3.4312,0.0,0.0,0.0,-3.4312,-3.4461,-3.5279,-3.5504,0.0,-3.5504,-3.5504,-3.5504,-3.5504,-3.5504,-3.5504,-3.5504,-3.5973,-3.643,-3.643,-3.6951,-3.7429,-3.7429,-3.8515,-3.9648,-4.0378,-4.1583,-4.2767,-4.3495,-4.3628,-4.3628,-4.3628,-4.3628,-4.3628,-4.3628,-4.4023,-4.4138,0.0,-4.3628,-4.3848,-4.4253,-4.3578,-4.299,-4.2634,-4.2302,-4.198,-4.1588,-4.107,-4.0473,-3.9843,-3.8711,-3.7853,-3.7174,-3.604,-3.5456,-3.5412,-3.4719,-3.4428,-3.4414,-3.4414,-3.4414,-3.4346,-3.3589,-3.3227,-3.3073,-3.1119,-3.0317,-3.0165,-2.8961,-2.8882,-2.9341,0.0,0.0,0.0,0.0,0.0,0.0,0.0,0.0,0.0,0.0,0.0,0.0,0.0,0.0,0.0,0.0,0.0,0.0,0.0,-3.3479,-3.3991,-3.4278,-3.5169,-3.5864,-3.6243,-3.7071,-3.7488,-3.7562,-3.7546,-3.7589,-3.7764,-3.737,-3.7251,-3.731,-3.6662,-3.6321,-3.6085,-3.5683,-3.5439,-3.5424,-3.5439,-3.5439,-3.5439,-3.5439,-3.5344,-3.5133,0.0,0.0,0.0,0.0,-3.5133,-3.5133,-3.5524,-3.5539,-3.5504,-3.5504,-3.5504,-3.5504,-3.5504,-3.5504,-3.5504,-3.5504,-3.5683,-3.5846,-3.6196,-3.6133,-3.6165,-3.6859,-3.7272,-3.8093,-3.9935,-4.0955,-4.1972,-4.337,-4.3628,-4.3628,-4.3628,-4.3628,-4.3628,-4.3628,-4.4023,0.0,0.0,0.0,0.0,-4.3519,-4.3218,-4.2867,-4.2302,-4.2174,-4.1916,-4.1588,-4.0266,-3.9535,-3.929,-3.7302,-3.623,-3.6025,-3.5175,-3.4733,-3.4719,-3.4501,-3.4414,-3.4414,-3.4414,-3.4414,-3.4346,-3.352,-3.3143,-3.2791,-3.097,-3.0241,-2.9999,-2.8882,-2.8669,-2.8736,0.0,0.0,0.0,0.0,0.0,0.0,0.0,0.0,0.0,0.0,0.0,0.0,0.0,0.0,0.0,0.0,0.0,0.0,0.0,0.0,-3.3563,-3.3991,-3.5008,-3.5849,-3.6415,-3.7191,-3.7722,-3.8084,-3.7838,-3.7822,-3.7994,-3.7822,-3.7589,-3.7294,-3.689,-3.6492,-3.6022,-3.5683,-3.5439,-3.5294,-3.5439,-3.5439,-3.5294,-3.5439,-3.5504,0.0,0.0,0.0,0.0,-3.5359,-3.5504,-3.5504,-3.5589,-3.5539,-3.5504,-3.5504,-3.5504,-3.5504,-3.5504,-3.5504,-3.5504,-3.5504,-3.5439,-3.5489,-3.5767,-3.5444,-3.5314,-3.6009,-3.6368,-3.7125,-3.8991,-4.021,-4.1477,-4.3015,-4.3606,-4.3848,-4.3848,-4.3848,-4.3789,-4.3628,-4.4023,-4.4138,0.0,0.0,0.0,-4.3157,-4.2974,-4.2664,-4.2109,-4.198,-4.1739,-4.1241,-3.9791,-3.8804,-3.8318,-3.6389,-3.5241,-3.5024,-3.4603,-3.4414,-3.4414,-3.4414,-3.4264,-3.3962,-3.3962,-3.3825,-3.3534,-3.2648,-3.2205,-3.1915,-3.0367,-2.9704,-2.9459,-2.8724,-2.851,-2.851,0.0,0.0,0.0,0.0,0.0,0.0,0.0,0.0,0.0,0.0,0.0,0.0,0.0,0.0,0.0,0.0,0.0,0.0,0.0,0.0,0.0,-3.377,-3.4543,-3.5548,-3.6783,-3.7546,-3.8399,-3.9272,-3.8645,-3.8067,-3.7488,-3.8051,-3.7413,-3.5748,-3.6906,-3.6723,-3.5634,-3.5569,-3.5279,-3.5001,-3.5359,0.0,-3.4935,-3.5359,0.0,0.0,0.0,0.0,0.0,0.0,-3.5504,-3.5504,-3.5504,-3.5504,-3.5504,-3.5504,-3.5504,-3.5504,-3.5504,-3.5504,-3.5504,-3.5424,-3.5294,-3.5148,-3.5148,-3.5016,-3.4868,-3.4868,-3.577,-3.6816,0.0,0.0,-4.128,-4.2434,-4.3528,-4.4202,-4.4236,-4.4253,-4.408,0.0,0.0,0.0,0.0,0.0,0.0,-4.3096,0.0,-4.2396,-4.2109,-4.1785,-4.1288,-4.0625,-3.9545,-3.8348,-3.6975,-3.5863,-3.5009,-3.4414,-3.4414,-3.4414,-3.4414,-3.4346,-3.3894,-3.3213,-3.3143,-3.272,-3.2001,-3.1044,-3.0607,-3.0456,-2.925,-2.8803,-2.8724,-2.8578,-2.851,-2.851,0.0,0.0,0.0,0.0,0.0,0.0,0.0,0.0,0.0,0.0,0.0,0.0,0.0,0.0,0.0,0.0,0.0,0.0,0.0,0.0,0.0,0.0,0.0,0.0,0.0,0.0,0.0,0.0,0.0,-3.8969,-3.8805,-3.8969,-3.8788,0.0,-3.7927,-3.7578,-3.7238,-3.6133,-3.5574,-3.5494,0.0,-3.5082,-3.5148,0.0,0.0,0.0,0.0,0.0,0.0,0.0,0.0,-3.5653,-3.5554,-3.5539,-3.5653,-3.5554,-3.5504,-3.5504,-3.5504,-3.5359,-3.5148,-3.4543,-3.4691,-3.4787,-3.407,-3.4385,-3.4698,-3.4549,-3.535,-3.6348,0.0,0.0,0.0,-4.164,-4.2136,0.0,-4.3273,-4.3416,0.0,-4.3552,0.0,-4.4138,-4.3628,-4.3697,0.0,0.0,-4.2412,-4.2093,-4.172,-4.1654,-4.1288,-4.0625,-3.9051,-3.7861,-3.6975,-3.5421,-3.4574,-3.4414,-3.4414,-3.4414,-3.4414,-3.3742,-3.3367,-3.3143,-3.2648,-3.229,-3.2001,-3.1044,-3.0532,-3.0241,-2.9172,-2.8724,-2.8578,-2.851,-2.851,-2.851,0.0,0.0,0.0,0.0,0.0,0.0,0.0,0.0,0.0,0.0,0.0,0.0,0.0,0.0,0.0,0.0,0.0,0.0,0.0,0.0,0.0,0.0,0.0,0.0,0.0,0.0,0.0,0.0,0.0,0.0,0.0,-3.8766,-3.86,-3.8059,-3.7828,-3.7535,-3.7238,0.0,0.0,0.0,0.0,0.0,0.0,0.0,0.0,0.0,0.0,0.0,0.0,0.0,0.0,-3.5589,-3.5489,-3.5554,-3.5604,-3.5504,0.0,-3.5504,-3.5504,-3.5359,-3.5067,-3.4624,-3.4639,-3.4668,-3.4167,-3.4332,-3.4616,-3.4735,-3.535,0.0,-3.6985,-3.8178,0.0,0.0,0.0,0.0,-4.3284,-4.3383,-4.3459,0.0,-4.4179,0.0,-4.3476,-4.3663,-4.3453,0.0,-4.2238,-4.198,-4.1588,-4.1304,-4.083,-4.0135,-3.845,-3.699,-3.5881,-3.4911,-3.4414,-3.4414,-3.4414,-3.4414,-3.4414,-3.3962,-3.3381,-3.272,0.0,-3.1723,-3.1009,-3.0254,-2.9871,-2.9729,-2.8961,-2.8578,-2.851,-2.851,-2.851,-2.851,0.0,0.0,0.0,0.0,0.0,0.0,0.0,0.0,0.0,0.0,0.0,0.0,0.0,0.0,0.0,0.0,0.0,0.0,0.0,0.0,0.0,0.0,0.0,0.0,0.0,0.0,0.0,0.0,0.0,0.0,0.0,0.0,0.0,0.0,0.0,0.0,0.0,0.0,0.0,0.0,0.0,0.0,0.0,0.0,0.0,0.0,0.0,0.0,0.0,0.0,-3.5683,-3.5619,-3.5504,-3.5504,-3.5504,-3.5504,-3.5504,-3.5504,-3.5439,-3.5294,-3.5148,-3.5001,-3.4817,-3.4631,-3.4549,-3.4481,-3.4534,-3.5103,0.0,-3.6054,-3.6585,-3.7907,-3.9259,-4.0215,0.0,-4.2301,-4.3297,-4.3538,-4.3562,-4.3611,-4.4259,-4.4339,-4.3279,-4.3555,-4.336,-4.2158,-4.1965,-4.1788,-4.1462,-4.0909,-4.015,-3.9204,-3.7677,-3.6094,-3.4414,-3.4414,-3.4414,-3.4414,-3.4414,-3.4414,-3.4414,-3.4196,-3.3395,-3.2074,0.0,0.0,-2.9792,-2.93,-2.9131,-2.9052,-2.8669,-2.851,-2.851,-2.851,-2.851,-2.851,0.0,0.0,0.0,0.0,0.0,0.0,0.0,0.0,0.0,0.0,-3.3242,0.0,0.0,0.0,0.0,0.0,0.0,0.0,0.0,0.0,0.0,0.0,0.0,0.0,0.0,0.0,0.0,0.0,0.0,0.0,0.0,0.0,0.0,0.0,0.0,0.0,0.0,0.0,0.0,0.0,0.0,0.0,0.0,0.0,0.0,0.0,0.0,0.0,0.0,0.0,-3.6492,-3.6133,-3.5683,-3.5504,-3.5504,-3.5504,-3.5504,-3.5439,-3.5294,-3.5082,-3.4787,-3.4002,-3.4099,-3.4264,-3.3589,-3.3962,0.0,0.0,-3.5544,-3.6054,-3.6585,-3.7658,-3.8502,-3.8842,-3.9891,-4.0885,-4.1507,-4.2042,-4.271,0.0,-4.3856,-4.3839,-4.3519,-4.3426,0.0,0.0,0.0,-4.0831,-4.0783,-4.0656,-3.9609,-3.7499,-3.6587,-3.5534,-3.4414,-3.4414,-3.4414,-3.4414,-3.4414,-3.4414,-3.4346,-3.3101,-3.2376,-3.2015,0.0,0.0,-2.9792,-2.93,-2.9131,-2.9052,-2.8669,-2.851,-2.851,-2.851,-2.851,-2.851,0.0,0.0,0.0,0.0,0.0,0.0,0.0,0.0,0.0,-3.4399,-3.4056,-3.3674,0.0,0.0,0.0,0.0,0.0,0.0,0.0,0.0,0.0,0.0,0.0,0.0,0.0,0.0,0.0,0.0,0.0,0.0,0.0,0.0,0.0,0.0,0.0,0.0,0.0,0.0,0.0,0.0,0.0,0.0,0.0,0.0,0.0,0.0,0.0,0.0,0.0,0.0,-3.6921,-3.7103,-3.6616,-3.6258,-3.5958,-3.5846,-3.5604,-3.5294,-3.5082,-3.4935,-3.4668,-3.4249,-3.4249,-3.4264,-3.3894,0.0,0.0,0.0,-3.5991,-3.6445,-3.7029,-3.7738,0.0,-3.8905,-3.9729,-4.0547,-4.1371,-4.2113,-4.2775,-4.3529,-4.4145,-4.4316,0.0,0.0,0.0,0.0,0.0,-4.0609,-4.0609,-3.9914,-3.8575,-3.6508,-3.608,-3.5415,-3.4414,-3.4414,-3.4414,-3.4414,-3.4414,-3.4414,-3.4346,-3.3241,-3.2434,-3.2015,-3.0846,0.0,-2.9792,-2.93,-2.9131,-2.9052,-2.8669,-2.851,-2.851,-2.851,-2.851,-2.851,0.0,0.0,0.0,0.0,0.0,0.0,0.0,-3.5717,-3.5529,-3.4964,-3.4971,-3.4686,-3.3982,-3.3835,-3.3718,0.0,0.0,0.0,0.0,0.0,0.0,0.0,0.0,0.0,0.0,0.0,0.0,-3.748,0.0,0.0,0.0,0.0,0.0,0.0,0.0,0.0,0.0,0.0,0.0,0.0,0.0,0.0,0.0,0.0,0.0,0.0,0.0,0.0,0.0,0.0,-3.7238,-3.7695,-3.7621,-3.7147,-3.6554,-3.6321,-3.5831,-3.5329,-3.5052,-3.4883,-3.4698,-3.4631,-3.4481,-3.4414,-3.4534,-3.492,0.0,-3.5928,-3.6383,-3.6846,-3.7405,-3.8042,-3.8658,0.0,-4.0005,-4.0829,-4.1435,-4.2386,-4.3122,0.0,-4.4456,0.0,-4.391,0.0,0.0,0.0,0.0,0.0,-4.0151,-3.8965,-3.7576,-3.5928,-3.5913,-3.5415,-3.4414,-3.4414,-3.4414,-3.4414,-3.4414,-3.4414,-3.4346,-3.3589,-3.2791,-3.2074,-3.1267,0.0,0.0,-2.93,-2.9131,-2.9052,-2.8669,-2.851,-2.851,-2.851,-2.851,-2.851,0.0,0.0,0.0,0.0,0.0,0.0,0.0,-3.6282,-3.6094,-3.5542,-3.5874,-3.5712,-3.4635,-3.4419,-3.4123,0.0,0.0,0.0,0.0,0.0,0.0,0.0,0.0,0.0,0.0,0.0,0.0,-3.748,-3.748,0.0,0.0,0.0,0.0,0.0,0.0,0.0,0.0,0.0,0.0,0.0,0.0,0.0,0.0,0.0,0.0,0.0,0.0,0.0,0.0,0.0,0.0,-3.731,-3.8075,-3.7828,-3.7207,-3.6646,0.0,0.0,-3.5464,-3.5052,-3.4631,-3.4481,-3.4414,-3.4534,-3.5052,0.0,-3.5494,-3.6461,-3.6662,-3.6846,-3.7405,-3.8399,-3.8936,-3.8488,0.0,-4.1627,-4.0514,-4.2154,-4.3431,-4.3356,0.0,0.0,-4.3449,0.0,0.0,0.0,0.0,0.0,-3.8697,-3.7986,-3.7076,-3.5913,-3.5913,-3.5415,-3.4414,-3.4414,-3.4414,-3.4414,-3.4414,-3.4414,-3.4346,-3.3589,-3.2791,-3.2074,-3.1267,0.0,0.0,-2.93,-2.9131,-2.9052,-2.8669,-2.851,-2.851,-2.851,-2.851,-2.851,0.0,0.0,0.0,0.0,0.0,0.0,0.0,-3.6358,-3.6282,-3.6056,-3.6205,-3.6109,-3.5647,-3.5236,-3.4711,0.0,0.0,0.0,0.0,0.0,0.0,0.0,0.0,0.0,0.0,0.0,-3.748,-3.748,-3.748,0.0,0.0,0.0,0.0,0.0,0.0,-3.748,0.0,0.0,0.0,0.0,0.0,0.0,0.0,0.0,0.0,0.0,0.0,0.0,0.0,0.0,0.0,0.0,-3.7801,-3.7918,0.0,0.0,-3.6569,-3.607,-3.5479,-3.5103,-3.492,-3.4481,-3.4668,-3.492,-3.5169,0.0,-3.6211,-3.66,-3.6968,-3.7329,-3.787,-3.8645,-3.9242,0.0,0.0,0.0,-4.146,-4.2892,-4.38,-4.3369,-4.3966,0.0,0.0,0.0,0.0,0.0,0.0,0.0,-3.7891,-3.7306,-3.6693,-3.5913,-3.5608,-3.5103,-3.4414,-3.4414,-3.4414,-3.4414,-3.4414,-3.4414,-3.4346,-3.3087,-3.2362,-3.2015,-3.0784,0.0,0.0,-2.9209,-2.9052,-2.8882,-2.8578,-2.851,-2.851,-2.851,-2.851,-2.851,0.0,0.0,0.0,0.0,0.0,0.0,-3.6358,-3.6358,-3.6358,-3.6358,-3.6485,-3.6455,-3.6288,-3.6015,-3.5634,-3.5354,0.0,0.0,0.0,0.0,0.0,0.0,0.0,0.0,0.0,0.0,-3.8067,-3.8017,-3.8017,-3.8017,0.0,0.0,-3.7902,-3.7727,0.0,0.0,0.0,0.0,0.0,0.0,0.0,0.0,0.0,0.0,0.0,0.0,0.0,0.0,0.0,0.0,0.0,0.0,0.0,0.0,0.0,0.0,-3.686,-3.6305,-3.5608,-3.5299,-3.5037,-3.4534,-3.4787,-3.5234,0.0,0.0,-3.6723,-3.6907,-3.7373,-3.7828,-3.8238,-3.8903,-3.9558,0.0,0.0,-4.2016,-4.2125,-4.3374,-4.4096,0.0,0.0,0.0,0.0,0.0,0.0,0.0,0.0,0.0,0.0,-3.6831,-3.6321,-3.5913,-3.5415,-3.492,-3.4414,-3.4414,-3.4414,-3.4414,-3.4414,-3.4414,-3.4332,-3.2946,-3.2218,-3.1928,0.0,0.0,0.0,-2.9118,-2.8961,-2.8803,-2.8578,-2.851,-2.851,-2.851,-2.851,-2.851,0.0,0.0,0.0,0.0,0.0,0.0,0.0,-3.6358,-3.6358,-3.6358,-3.6815,-3.689,-3.6327,-3.6715,-3.7078,-3.7473,0.0,0.0,0.0,0.0,0.0,0.0,0.0,0.0,0.0,0.0,-3.9324,-3.9206,-3.9206,-3.9206,-3.9206,-3.9206,-3.8865,-3.8351,0.0,0.0,0.0,0.0,0.0,0.0,0.0,0.0,0.0,0.0,0.0,0.0,0.0,0.0,0.0,0.0,0.0,0.0,0.0,0.0,0.0,0.0,-3.7298,-3.6951,-3.6087,-3.5544,-3.5037,-3.4534,-3.4787,-3.5285,0.0,0.0,-3.6846,-3.7345,-3.7943,-3.8278,-3.8278,-3.9262,-4.0003,-4.0003,0.0,0.0,-4.1992,-4.332,0.0,0.0,0.0,0.0,0.0,0.0,0.0,0.0,0.0,0.0,0.0,-3.6492,-3.5913,-3.5913,-3.5415,-3.492,-3.4414,-3.4414,-3.4414,-3.4414,-3.4414,-3.4414,-3.4346,-3.3381,-3.2506,0.0,0.0,0.0,0.0,-2.8882,-2.8791,-2.8803,-2.8578,-2.851,-2.851,-2.851,-2.851,-2.851,0.0,0.0,0.0,0.0,0.0,0.0,0.0,-3.6358,-3.6358,-3.6358,-3.6828,-3.7044,-3.6865,-3.6962,-3.7263,-3.8084,0.0,0.0,0.0,0.0,0.0,0.0,0.0,0.0,0.0,0.0,-4.0783,-4.0702,-4.0221,-3.9918,-3.9918,-3.9437,-3.9098,-3.892,-3.9082,0.0,0.0,0.0,0.0,0.0,0.0,0.0,0.0,0.0,0.0,0.0,0.0,0.0,0.0,0.0,0.0,0.0,0.0,0.0,0.0,0.0,0.0,0.0,-3.6646,-3.6321,-3.607,-3.5544,-3.5816,-3.6258,-3.6383,0.0,-3.7285,-3.7464,-3.7943,-3.8407,-3.8849,-3.9489,-4.012,-4.0549,0.0,0.0,0.0,0.0,0.0,0.0,0.0,0.0,0.0,0.0,0.0,0.0,0.0,0.0,0.0,-3.6492,-3.5913,-3.5913,-3.5103,-3.4534,-3.4414,-3.4414,-3.4414,-3.4414,-3.4128,-3.3991,-3.3908,-3.2448,0.0,0.0,0.0,0.0,0.0,-2.8803,-2.8724,-2.8578,-2.851,-2.851,-2.851,-2.851,-2.851,-2.851,0.0,0.0,0.0,0.0,0.0,0.0,0.0,-3.6358,-3.6452,-3.6546,-3.6828,-3.7108,-3.7214,-3.7599,-3.8242,-3.9261,0.0,0.0,0.0,0.0,0.0,0.0,0.0,0.0,0.0,-4.2078,-4.211,-4.2075,-4.162,-4.1401,-4.1384,-4.0929,-4.0419,-3.9976,-4.0186,-3.9634,0.0,0.0,0.0,0.0,0.0,0.0,-3.748,0.0,0.0,0.0,0.0,0.0,0.0,0.0,0.0,0.0,0.0,0.0,0.0,0.0,-3.748,-3.7345,0.0,-3.6723,-3.6585,-3.6039,-3.6321,0.0,0.0,-3.7089,-3.7583,-3.7786,-3.827,-3.8794,-3.9401,-3.9969,-4.0434,-4.0823,0.0,0.0,0.0,0.0,0.0,0.0,0.0,0.0,0.0,0.0,0.0,0.0,0.0,0.0,0.0,-3.6368,-3.5721,-3.5721,-3.4706,-3.4196,-3.4196,-3.4059,-3.4059,-3.4196,-3.377,-3.3632,-3.3548,-3.1869,0.0,0.0,0.0,0.0,0.0,-2.8724,-2.8578,-2.851,-2.851,-2.851,-2.851,-2.851,-2.851,-2.851,0.0,0.0,0.0,0.0,0.0,0.0,0.0,0.0,0.0,0.0,-3.6909,-3.7214,-3.7585,-3.8522,-3.9711,0.0,0.0,0.0,0.0,0.0,0.0,0.0,0.0,0.0,0.0,-4.3436,-4.3437,-4.3387,-4.3318,-4.3301,-4.3301,-4.3249,-4.2517,-4.1341,-4.1864,-4.1069,0.0,0.0,0.0,0.0,0.0,-3.748,0.0,0.0,0.0,0.0,0.0,0.0,0.0,0.0,0.0,0.0,0.0,0.0,0.0,0.0,0.0,0.0,0.0,-3.6785,-3.6646,-3.6117,-3.6383,-3.6785,-3.6785,-3.715,0.0,-3.8181,-3.8794,-3.9401,-3.9902,-4.0483,-4.0888,-4.0888,0.0,0.0,0.0,0.0,0.0,0.0,0.0,0.0,0.0,0.0,0.0,0.0,0.0,0.0,0.0,-3.6102,-3.5335,-3.527,-3.4288,-3.377,-3.377,-3.3479,-3.3479,-3.377,-3.3409,-3.3269,-3.3199,-3.1636,0.0,0.0,0.0,0.0,0.0,-2.851,-2.851,-2.851,-2.851,-2.851,-2.851,-2.851,-2.851,-2.851,0.0,0.0,0.0,0.0,0.0,0.0,0.0,0.0,0.0,0.0,-3.6909,-3.7479,-3.8459,-3.8957,-3.9972,0.0,0.0,0.0,0.0,0.0,0.0,0.0,0.0,0.0,0.0,-4.4919,-4.4886,-4.4889,-4.4302,-4.4009,-4.4009,-4.3491,-4.3011,-4.2738,-4.2839,-4.1852,0.0,0.0,0.0,0.0,-3.748,-3.748,0.0,0.0,0.0,0.0,-3.748,-3.748,0.0,0.0,0.0,0.0,0.0,0.0,0.0,0.0,-3.748,-3.748,-3.7345,0.0,-3.7285,-3.715,-3.7225,-3.7285,0.0,-3.7711,-3.8141,-3.8294,-3.9102,-3.9851,-4.0003,-4.0483,0.0,0.0,0.0,0.0,0.0,0.0,0.0,0.0,0.0,0.0,0.0,0.0,0.0,0.0,0.0,0.0,0.0,-3.5578,-3.478,-3.3973,-3.3311,-3.3129,-3.3409,-3.3339,-3.3339,-3.3409,-3.3058,-3.2846,-3.2775,-3.1663,0.0,0.0,0.0,0.0,-2.851,-2.851,-2.851,-2.851,-2.851,-2.851,-2.851,-2.851,-2.851,-2.851,0.0,0.0,0.0,0.0,0.0,0.0,0.0,0.0,0.0,0.0,0.0,0.0,0.0,0.0,0.0,0.0,0.0,0.0,0.0,0.0,0.0,0.0,0.0,0.0,-4.5922,-4.5975,-4.5786,-4.5423,-4.501,-4.4803,-4.4803,-4.4389,-4.4009,-4.3664,-4.3031,-4.2016,-4.069,-3.9763,-3.8814,-3.7954,-3.7954,0.0,0.0,0.0,0.0,0.0,-3.748,-3.748,0.0,-3.748,-3.748,-3.748,0.0,0.0,0.0,0.0,-3.748,-3.748,-3.748,-3.748,-3.7583,-3.7786,-3.7886,-3.7943,-3.823,-3.8479,-3.8794,-3.9049,-3.9577,-4.0053,-4.0385,0.0,0.0,0.0,-4.0385,0.0,0.0,0.0,0.0,0.0,0.0,0.0,0.0,0.0,0.0,0.0,0.0,0.0,0.0,-3.5255,-3.4447,-3.3506,-3.2832,-3.2646,-3.2988,-3.286,-3.286,-3.2988,-3.2646,-3.2444,-3.2431,-3.1307,-3.062,0.0,0.0,0.0,-2.851,-2.851,-2.851,-2.851,-2.851,-2.851,-2.851,-2.851,-2.851,-2.8431,0.0,0.0,0.0,0.0,0.0,0.0,0.0,0.0,0.0,0.0,0.0,0.0,0.0,0.0,0.0,0.0,0.0,0.0,0.0,0.0,0.0,0.0,0.0,-4.6455,-4.6731,-4.6786,-4.6389,-4.5596,-4.5596,-4.5544,-4.5423,-4.5423,-4.5079,-4.4423,-4.311,-4.2181,-4.1418,-4.0831,-3.9818,-3.8649,-3.8555,0.0,0.0,0.0,0.0,0.0,0.0,0.0,0.0,-3.7464,-3.7421,-3.7421,-3.748,0.0,0.0,0.0,0.0,0.0,-3.7421,-3.7421,-3.7524,-3.8026,-3.8124,-3.8294,-3.8756,0.0,0.0,0.0,0.0,0.0,0.0,-4.0286,0.0,0.0,0.0,0.0,0.0,0.0,0.0,0.0,0.0,0.0,0.0,0.0,0.0,0.0,0.0,0.0,0.0,-3.4846,-3.4056,-3.3297,-3.2588,-3.2314,-3.2632,-3.23,-3.23,-3.2632,-3.2314,-3.2169,-3.2009,-3.0934,-3.033,0.0,0.0,0.0,-2.851,-2.851,-2.851,-2.851,-2.851,-2.851,-2.851,-2.851,-2.851,-2.8339,0.0,0.0,0.0,0.0,0.0,0.0,0.0,0.0,0.0,0.0,0.0,0.0,0.0,0.0,0.0,0.0,0.0,0.0,0.0,0.0,0.0,0.0,-4.7378,-4.7221,-4.7545,-4.7545,-4.7182,-4.6424,-4.6424,-4.6079,-4.5423,-4.5423,-4.5354,-4.5181,-4.449,-4.344,-4.2253,-4.1624,-4.0569,-3.9297,-3.8744,0.0,0.0,0.0,0.0,0.0,0.0,0.0,0.0,-3.7254,-3.715,-3.7121,-3.721,0.0,0.0,0.0,0.0,0.0,-3.7076,-3.7076,-3.7105,-3.7298,-3.7358,-3.7401,-3.7476,-3.801,-3.8629,0.0,0.0,0.0,0.0,-4.0286,-4.0402,0.0,0.0,0.0,0.0,0.0,0.0,0.0,0.0,0.0,0.0,0.0,0.0,0.0,0.0,0.0,0.0,0.0,-3.3101,-3.2444,-3.2241,-3.2241,-3.2241,-3.2255,-3.2255,-3.2241,-3.2241,-3.1936,-3.1381,-3.1158,-3.0469,0.0,0.0,-2.8961,-2.851,-2.851,-2.851,-2.851,-2.851,-2.851,-2.851,-2.851,-2.851,-2.8259,0.0,0.0,0.0,0.0,0.0,0.0,0.0,0.0,0.0,0.0,0.0,0.0,0.0,0.0,0.0,0.0,0.0,0.0,0.0,0.0,0.0,-4.8951,-4.8626,-4.8374,-4.8321,-4.8303,-4.7941,-4.72,-4.6803,-4.6424,-4.6061,-4.563,-4.5423,-4.5371,-4.4797,-4.4131,-4.3511,-4.2512,-4.1494,-4.051,0.0,0.0,0.0,0.0,0.0,0.0,0.0,0.0,0.0,0.0,-3.706,-3.6999,-3.7044,0.0,0.0,0.0,0.0,0.0,-3.7015,-3.6938,-3.6862,-3.6892,-3.7222,-3.7605,-3.7937,-3.8262,-3.8596,0.0,0.0,0.0,0.0,0.0,-3.8816,-3.8189,0.0,0.0,0.0,0.0,0.0,0.0,0.0,0.0,0.0,0.0,0.0,0.0,0.0,0.0,0.0,0.0,-3.2889,-3.2241,-3.2182,-3.2182,-3.2182,-3.2182,-3.2182,-3.2182,-3.2182,-3.1863,-3.122,-3.0846,-3.0241,-2.9419,0.0,-2.8736,-2.851,-2.851,-2.851,-2.851,-2.851,-2.851,-2.851,-2.851,-2.7914,-2.6917,0.0,0.0,0.0,0.0,0.0,0.0,0.0,0.0,0.0,0.0,0.0,0.0,0.0,0.0,0.0,0.0,0.0,0.0,0.0,0.0,-4.8606,-4.9471,-4.9547,-4.9392,-4.9114,-4.9097,-4.8734,-4.7976,-4.7407,-4.6941,-4.6596,-4.5803,-4.5423,-4.5371,-4.4906,-4.4614,-4.4446,-4.3306,-4.2369,-4.1682,0.0,0.0,0.0,0.0,0.0,0.0,0.0,0.0,0.0,0.0,0.0,0.0,0.0,0.0,0.0,-3.6938,-3.6938,-3.6877,-3.6877,-3.68,-3.6662,-3.6662,-3.7103,-3.7648,-3.8149,-3.8262,-3.8318,0.0,0.0,0.0,0.0,-3.7978,0.0,0.0,0.0,0.0,0.0,0.0,0.0,0.0,0.0,0.0,0.0,0.0,0.0,0.0,0.0,0.0,0.0,0.0,-3.269,-3.2255,-3.2182,-3.2182,-3.2182,-3.2182,-3.2182,-3.2182,-3.2023,-3.1629,-3.0996,-3.0393,-2.9793,-2.9184,-2.8736,-2.851,-2.851,-2.851,-2.851,-2.851,-2.851,-2.851,-2.851,-2.851,-2.7499,-2.608,0.0,0.0,0.0,0.0,0.0,0.0,0.0,0.0,0.0,0.0,0.0,0.0,0.0,0.0,0.0,0.0,0.0,0.0,0.0,0.0,-4.9229,-4.9488,-4.959,-4.9767,-4.9924,-4.9924,-4.9528,-4.8734,-4.8683,-4.7958,-4.6596,-4.5803,-4.5423,-4.5423,-4.5371,-4.5015,-4.4446,-4.3764,-4.3075,-4.2393,-4.1087,0.0,0.0,0.0,0.0,0.0,0.0,0.0,0.0,0.0,0.0,0.0,0.0,0.0,-3.6554,-3.6662,-3.66,-3.6554,-3.6554,-3.6554,-3.6492,-3.6492,-3.6662,-3.6769,-3.6815,-3.6968,-3.727,-3.7764,0.0,0.0,0.0,-3.7648,0.0,0.0,0.0,0.0,0.0,0.0,0.0,0.0,0.0,0.0,0.0,0.0,0.0,0.0,0.0,0.0,0.0,0.0,0.0,-3.2182,-3.2182,-3.2182,-3.2182,-3.2182,-3.2182,-3.2182,-3.1542,-3.0921,-3.0317,-2.9716,-2.9118,-2.8578,-2.851,-2.851,-2.851,-2.851,-2.851,-2.851,-2.851,-2.851,-2.851,-2.851,-2.7926,-2.701,0.0,0.0,0.0,0.0,0.0,0.0,0.0,0.0,0.0,0.0,0.0,0.0,0.0,0.0,0.0,0.0,0.0,0.0,0.0,0.0,-4.929,-4.9488,-4.9649,-4.9784,-5.0011,-5.0011,-4.9855,-4.9562,-4.9062,-4.8062,-4.6596,-4.6303,-4.5906,-4.5423,-4.5423,-4.5247,-4.5015,-4.3922,-4.335,-4.2925,-4.1677,-4.0876,0.0,0.0,0.0,0.0,0.0,0.0,0.0,0.0,-3.6554,0.0,0.0,0.0,-3.6492,-3.6554,-3.6554,-3.6492,-3.6492,-3.6492,-3.6492,-3.6492,-3.6554,0.0,0.0,-3.6907,-3.7194,-3.7058,-3.6921,0.0,0.0,0.0,0.0,0.0,0.0,0.0,0.0,0.0,0.0,0.0,0.0,0.0,0.0,0.0,0.0,0.0,0.0,0.0,0.0,0.0,0.0,-3.2182,-3.2182,-3.2182,-3.2182,-3.2182,-3.2182,-3.2182,-3.1936,-3.132,-3.0317,-3.0088,-2.9419,-2.851,-2.851,-2.851,-2.851,-2.851,-2.851,-2.851,-2.851,-2.851,-2.851,-2.851,-2.7926,-2.7174,0.0,0.0,0.0,0.0,0.0,0.0,0.0,0.0,0.0,0.0,0.0,0.0,0.0,0.0,0.0,0.0,0.0,0.0,0.0,-4.8844,-4.929,-4.9488,-4.9649,-4.9784,-5.0011,-5.0011,-5.0011,-5.0011,-4.92,-4.8303,-4.7286,-4.6837,-4.632,-4.5786,-4.5544,-4.5423,-4.5318,-4.4299,-4.3647,-4.329,-4.2253,-4.1288,0.0,0.0,0.0,0.0,0.0,0.0,0.0,0.0,0.0,0.0,0.0,0.0,0.0,0.0,-3.6492,-3.6492,-3.6492,-3.6492,-3.6492,-3.6492,0.0,0.0,-3.6554,-3.6846,-3.7013,-3.6616,-3.6492,-3.6554,-3.6723,0.0,0.0,0.0,0.0,0.0,0.0,0.0,0.0,0.0,0.0,0.0,0.0,0.0,0.0,0.0,0.0,0.0,0.0,0.0,0.0,0.0,-3.2182,-3.2182,-3.2182,-3.2182,-3.2182,-3.2182,-3.2023,-3.1394,-3.0545,-3.0177,-2.9574,-2.8736,-2.859,-2.851,-2.851,-2.851,-2.851,-2.851,-2.851,-2.851,-2.851,-2.851,-2.8099,-2.7592,0.0,0.0,0.0,0.0,0.0,0.0,0.0,0.0,0.0,0.0,0.0,0.0,0.0,0.0,0.0,0.0,0.0,0.0,-4.894,-4.9124,-4.929,-4.9488,-4.9649,-4.9784,-5.0011,-5.0011,-5.0011,-5.0011,-4.9217,-4.8838,-4.8786,-4.732,-4.6613,-4.6562,-4.5786,-4.5423,-4.5371,-4.4742,-4.4128,-4.3436,-4.2615,-4.1835,-4.0961,0.0,0.0,0.0,0.0,0.0,0.0,0.0,-3.6492,0.0,0.0,0.0,0.0,0.0,-3.6492,-3.6492,-3.6492,-3.6492,-3.6492,-3.6492,0.0,0.0,-3.6662,-3.6492,-3.6492,-3.6492,-3.6492,-3.6662,-3.7298,0.0,0.0,0.0,0.0,0.0,0.0,0.0,0.0,0.0,0.0,0.0,0.0,0.0,0.0,0.0,0.0,0.0,0.0,0.0,0.0,0.0,-3.2169,-3.2182,-3.2182,-3.2169,-3.2182,-3.2169,-3.1542,-3.122,-3.1145,-2.9947,-2.9419,-2.9341,-2.8736,-2.851,-2.851,-2.851,-2.851,-2.851,-2.851,-2.851,-2.851,-2.851,-2.851,-2.8351,0.0,0.0,0.0,0.0,0.0,0.0,0.0,0.0,0.0,0.0,0.0,0.0,0.0,0.0,0.0,0.0,0.0,0.0,-4.894,-4.9246,-4.9428,-4.9488,-4.9742,-4.9935,-5.0011,-5.0011,-5.0011,-5.0011,-4.9769,-4.9373,-4.8803,-4.7838,-4.7113,-4.6562,-4.5786,-4.5423,-4.5371,-4.4631,-4.4145,-4.3748,-4.2632,-4.1964,-4.1415,0.0,0.0,0.0,0.0,0.0,0.0,0.0,0.0,0.0,0.0,0.0,0.0,0.0,-3.6492,-3.6492,-3.6492,-3.6492,0.0,-3.6492,0.0,0.0,0.0,-3.6846,0.0,0.0,-3.6492,-3.6554,-3.6723,0.0,0.0,0.0,0.0,0.0,0.0,0.0,0.0,0.0,0.0,0.0,0.0,0.0,0.0,0.0,0.0,0.0,0.0,0.0,0.0,0.0,-3.1703,-3.1468,-3.1468,-3.1097,-3.0859,-3.0859,-3.0633,-3.0545,-3.0545,-2.9793,-2.9197,-2.8736,-2.859,-2.851,-2.851,-2.851,-2.851,-2.851,-2.851,-2.851,-2.851,-2.851,-2.851,-2.8431,0.0,0.0,0.0,0.0,0.0,0.0,0.0,0.0,0.0,0.0,0.0,0.0,0.0,0.0,0.0,0.0,0.0,0.0,0.0,0.0,-4.9367,-4.9488,-4.9683,-4.9877,-5.0011,-5.0011,-5.0011,-5.0011,-5.0011,-4.9769,-4.9269,-4.82,-4.7476,-4.6993,-4.5906,-4.5371,-4.53,-4.4852,-4.4373,-4.3881,-4.2818,-4.2126,-4.1579,0.0,0.0,0.0,0.0,0.0,0.0,0.0,0.0,0.0,0.0,0.0,0.0,-3.6492,-3.6492,-3.6492,-3.6492,-3.6492,0.0,-3.6492,-3.6492,-3.6492,-3.6492,0.0,0.0,0.0,0.0,-3.6492,-3.6492,0.0,0.0,0.0,0.0,0.0,0.0,0.0,0.0,0.0,0.0,0.0,0.0,0.0,0.0,0.0,0.0,0.0,0.0,0.0,0.0,0.0,-3.1542,-3.122,-3.122,-3.062,-3.0317,-3.0317,-2.9872,-2.9618,-2.9618,-2.9474,-2.9197,-2.8803,-2.859,-2.851,-2.851,-2.851,-2.851,-2.851,-2.851,-2.851,-2.851,-2.851,-2.851,-2.851,0.0,0.0,0.0,0.0,0.0,0.0,0.0,0.0,0.0,0.0,-4.3329,0.0,0.0,0.0,0.0,0.0,0.0,0.0,0.0,0.0,-4.9185,-4.9488,-4.9547,-4.9683,-5.0011,-5.0011,-5.0011,-5.0011,-5.0011,-5.0011,-4.9976,-4.8441,-4.7717,-4.7648,-4.606,-4.53,-4.5177,-4.5177,-4.4725,-4.403,-4.3213,-4.2474,-4.1693,-3.9511,0.0,0.0,0.0,0.0,0.0,0.0,0.0,0.0,-3.6492,0.0,-3.6492,-3.6492,-3.6492,-3.6492,-3.6492,-3.6492,-3.6492,-3.6492,-3.6492,0.0,-3.6492,-3.6492,-3.6492,-3.6492,0.0,-3.6492,0.0,0.0,0.0,0.0,0.0,0.0,0.0,0.0,0.0,0.0,0.0,0.0,0.0,0.0,0.0,0.0,0.0,0.0,0.0,0.0,0.0,0.0,-3.1307,-3.0921,-3.0996,-3.0342,-3.0012,0.0,-2.8937,-2.8461,-2.8473,-2.8969,-2.9217,-2.9188,-2.8712,-2.851,-2.851,-2.851,-2.851,-2.851,-2.851,-2.851,-2.851,-2.851,-2.851,-2.851,0.0,0.0,0.0,0.0,0.0,0.0,0.0,0.0,0.0,0.0,0.0,0.0,0.0,0.0,0.0,0.0,0.0,0.0,0.0,0.0,-4.9428,-4.9488,-4.9742,-4.9935,-5.0011,-5.0011,-5.0011,-5.0011,-5.0011,-5.0011,-4.9976,-4.8441,-4.7717,-4.7648,-4.5989,-4.5247,-4.5194,-4.4995,-4.4776,-4.4536,-4.3706,-4.3257,-4.2928,-4.0768,-3.9704,0.0,0.0,0.0,0.0,0.0,0.0,0.0,-3.6492,-3.6492,-3.6492,-3.6492,-3.6492,-3.6492,-3.6492,-3.6492,0.0,0.0,-3.6492,-3.6492,-3.6492,-3.6492,-3.6492,-3.6492,-3.6492,0.0,0.0,0.0,0.0,0.0,0.0,0.0,0.0,0.0,0.0,0.0,0.0,0.0,0.0,0.0,0.0,0.0,0.0,0.0,0.0,0.0,0.0,-3.0709,-2.9434,-2.8966,-2.9328,-2.8288,-2.7939,0.0,-2.7572,-2.7242,-2.7255,-2.7363,-2.7642,-2.8065,-2.8409,-2.851,-2.851,-2.851,-2.851,-2.851,-2.851,-2.851,-2.851,-2.851,-2.851,-2.851,0.0,0.0,0.0,0.0,0.0,0.0,0.0,0.0,0.0,0.0,0.0,0.0,0.0,0.0,0.0,0.0,0.0,0.0,0.0,0.0,0.0,-4.9488,-4.9818,-5.0011,-5.0011,-5.0011,-5.0011,-5.0011,-5.0011,-5.0011,-4.9976,-4.8385,-4.7606,-4.7537,-4.5826,-4.5086,-4.4978,-4.4886,-4.4776,-4.4609,-4.3839,-4.3512,-4.3287,-4.1189,-3.9994,-3.9344,-3.7907,0.0,0.0,0.0,0.0,0.0,0.0,0.0,-3.6492,-3.6492,-3.6492,-3.6492,-3.6492,0.0,0.0,-3.6492,0.0,-3.6492,-3.6492,-3.6492,-3.6492,-3.6492,0.0,0.0,0.0,0.0,0.0,0.0,0.0,0.0,0.0,0.0,0.0,0.0,0.0,0.0,0.0,0.0,0.0,0.0,0.0,0.0,0.0,-3.0519,-2.9973,-3.0317,-2.8888,-2.8227,-2.8414,-2.7513,-2.7186,-2.7332,-2.7003,-2.6761,-2.6542,-2.6769,-2.7155,-2.7748,-2.7975,-2.8439,-2.8904,-2.8639,-2.8657,-2.8882,-2.8578,-2.851,-2.851,-2.851,-2.851,-2.851,0.0,0.0,0.0,0.0,0.0,0.0,0.0,0.0,0.0,0.0,0.0,0.0,0.0,0.0,0.0,0.0,0.0,0.0,0.0,0.0,0.0,0.0,-4.9801,-4.9935,-5.0011,-5.0011,-5.0011,-5.0011,-4.9952,-4.9866,-4.9711,-4.8203,-4.7425,-4.7236,-4.5665,-4.4869,-4.4776,-4.4793,-4.4682,-4.457,-4.3914,-4.3706,-4.3481,-4.1501,-4.0356,-3.9636,-3.807,-3.7178,-3.6662,-3.6554,0.0,0.0,0.0,0.0,-3.6492,-3.6492,-3.6492,-3.6492,-3.6492,0.0,-3.6492,-3.6492,-3.6492,0.0,-3.6492,-3.6492,-3.6492,0.0,0.0,0.0,0.0,0.0,0.0,0.0,0.0,0.0,0.0,0.0,0.0,0.0,0.0,0.0,0.0,0.0,0.0,0.0,0.0,0.0,-3.1286,-2.9654,-2.902,-2.9768,-2.833,-2.7616,-2.7603,-2.696,-2.6677,-2.6779,-2.6867,-2.6714,-2.6327,-2.6747,-2.714,-2.7459,-2.7648,-2.8297,-2.9225,-2.8721,-2.8888,-2.9341,-2.8736,-2.851,-2.851,-2.851,-2.851,-2.851,0.0,0.0,0.0,0.0,0.0,0.0,0.0,0.0,0.0,0.0,0.0,0.0,0.0,0.0,0.0,0.0,0.0,0.0,0.0,0.0,0.0,0.0,-4.9708,-4.9784,-5.0011,-5.0011,-5.0011,-5.0011,-4.986,-4.9382,-4.8747,-4.7889,-4.7133,-4.6412,-4.5316,-4.4831,-4.4776,-4.4682,-4.4643,-4.457,-4.4497,-4.444,-4.4271,-4.2627,-4.1655,-4.0877,-3.891,-3.7796,-3.7178,-3.6662,-3.6492,0.0,0.0,0.0,-3.6492,-3.6492,-3.6492,-3.6492,0.0,0.0,-3.6492,0.0,-3.6492,-3.6492,0.0,0.0,0.0,0.0,0.0,0.0,0.0,0.0,0.0,0.0,0.0,0.0,0.0,0.0,0.0,0.0,0.0,0.0,0.0,0.0,0.0,0.0,0.0,0.0,-3.0228,-2.8652,-2.7706,-2.7649,-2.6276,-2.5775,-2.6098,-2.5192,-2.5258,-2.6433,-2.6791,-2.6969,-2.6905,-2.699,-2.6764,-2.6384,-2.7299,-2.8102,-2.8687,-2.8533,-2.8842,-2.9341,-2.8736,-2.851,-2.851,-2.851,-2.851,-2.851,0.0,0.0,0.0,0.0,0.0,0.0,0.0,0.0,0.0,0.0,0.0,0.0,0.0,0.0,0.0,-4.9001,0.0,0.0,0.0,0.0,0.0,-4.959,-4.9649,-4.9784,-5.0011,-4.986,-4.9842,-4.9842,-4.9666,-4.899,-4.7843,-4.7404,-4.684,-4.6054,-4.5099,-4.4682,-4.4682,-4.4643,-4.4587,-4.4587,-4.4587,-4.4367,-4.3879,-4.2736,-4.171,-4.0647,-3.9319,-3.8197,-3.7358,-3.7058,-3.6785,-3.6492,-3.6492,0.0,0.0,0.0,-3.6492,-3.6492,-3.6492,-3.6492,-3.6492,0.0,-3.6492,-3.6414,-3.6006,0.0,0.0,0.0,0.0,0.0,0.0,0.0,0.0,0.0,0.0,0.0,0.0,0.0,0.0,0.0,0.0,0.0,0.0,0.0,0.0,0.0,0.0,-2.8809,-2.9123,-2.7476,-2.664,-2.6749,-2.575,-2.5143,-2.4982,-2.4556,-2.4997,-2.6404,-2.7075,-2.7443,-2.7443,-2.7443,-2.7304,-2.7081,-2.7582,-2.8247,-2.9099,-2.9007,-2.9339,-2.9907,-2.9229,-2.904,-2.8961,-2.8578,-2.851,-2.851,0.0,0.0,0.0,0.0,0.0,0.0,0.0,0.0,0.0,0.0,0.0,0.0,0.0,0.0,0.0,0.0,-4.9001,0.0,0.0,0.0,0.0,-4.9428,-4.953,-4.9666,-4.9877,-4.9725,-4.9649,-4.9649,-4.9488,-4.8643,-4.7158,-4.7003,-4.6452,-4.5518,-4.4863,-4.4587,-4.4587,-4.4587,-4.4587,-4.457,-4.4384,-4.3972,-4.338,-4.2405,-4.1411,-4.027,-3.9308,-3.8286,-3.7358,-3.7238,-3.6892,-3.6492,-3.6492,-3.6492,0.0,0.0,0.0,-3.6492,0.0,0.0,-3.6429,-3.6289,-3.6352,-3.6289,0.0,0.0,0.0,0.0,0.0,0.0,0.0,0.0,0.0,0.0,0.0,0.0,0.0,0.0,0.0,0.0,0.0,0.0,0.0,0.0,0.0,0.0,0.0,-2.7637,-2.8028,-2.6569,-2.5864,-2.6098,-2.5234,-2.4623,-2.4115,-2.4498,-2.524,-2.6239,-2.7417,-2.7987,-2.7987,-2.7987,-2.7987,-2.8013,-2.7832,-2.8365,-2.9282,-2.9373,-2.9822,-3.0322,-2.9821,-2.9574,-2.9341,-2.8882,-2.8657,-2.851,0.0,0.0,0.0,0.0,0.0,0.0,0.0,0.0,0.0,0.0,0.0,0.0,-4.8258,-4.8753,-4.9001,-4.9001,-4.9001,-4.9001,-4.9001,-4.9001,0.0,-4.9229,-4.9229,0.0,-4.9547,-4.9547,-4.9488,-4.9488,-4.929,-4.8464,-4.7003,-4.6903,-4.6024,-4.4694,-4.4587,-4.4587,-4.4587,-4.4587,-4.4587,-4.4514,-4.3839,-4.3512,-4.337,-4.1955,-4.0998,-4.0215,-3.8938,-3.797,-3.7298,-3.6723,-3.6554,-3.6492,-3.6492,-3.6492,-3.6492,0.0,0.0,0.0,0.0,-3.6492,0.0,-3.5608,-3.6006,0.0,0.0,0.0,0.0,0.0,0.0,0.0,0.0,0.0,0.0,0.0,0.0,0.0,0.0,0.0,0.0,0.0,0.0,0.0,0.0,0.0,0.0,0.0,0.0,-2.7255,-2.7255,-2.5928,-2.5278,-2.5245,-2.4279,-2.3777,-2.3733,-2.5062,-2.5779,-2.5824,-2.7683,-2.8522,-2.8522,-2.8522,-2.8522,-2.8522,-2.8013,-2.8132,-2.8754,-2.9293,-2.9816,-3.0395,-3.0263,-2.9871,-2.9419,-2.9341,-2.8961,-2.8431,0.0,0.0,0.0,0.0,0.0,0.0,0.0,0.0,0.0,0.0,0.0,0.0,0.0,-4.8513,-4.9001,-4.9001,-4.9001,-4.9001,-4.9001,-4.9001,0.0,-4.9168,-4.9229,-4.929,-4.9488,-4.935,-4.929,-4.929,-4.9168,-4.8301,-4.6844,-4.6844,-4.5991,-4.4587,-4.4587,-4.4587,-4.4587,-4.4587,-4.431,-4.3839,-4.363,-4.3015,-4.2125,-4.162,-4.0743,-3.9686,-3.915,-3.8269,-3.7358,-3.7118,-3.6846,-3.6492,-3.6492,-3.6492,-3.6492,-3.6492,-3.6492,-3.6492,0.0,0.0,0.0,-3.5385,-3.5529,-3.54,0.0,0.0,0.0,0.0,0.0,0.0,0.0,0.0,0.0,0.0,0.0,0.0,0.0,0.0,0.0,0.0,0.0,0.0,0.0,0.0,0.0,0.0,0.0,0.0,-2.5906,-2.515,-2.4585,-2.4257,-2.3908,-2.3797,-2.3965,-2.5206,-2.6032,-2.6514,-2.7894,-2.8587,-2.8587,-2.8587,-2.8587,-2.8587,-2.8392,-2.8435,-2.8677,-2.9268,-2.9873,-3.0422,-3.0408,-3.0472,-3.0469,-2.9729,-2.9263,-2.8961,0.0,0.0,0.0,0.0,0.0,0.0,0.0,0.0,0.0,-4.4737,0.0,0.0,0.0,0.0,-4.9001,-4.9001,-4.9001,-4.9001,-4.9001,-4.9001,-4.9063,-4.9107,-4.9107,-4.9185,-4.9307,-4.8931,0.0,0.0,-4.8555,-4.775,-4.6786,-4.6549,-4.5771,-4.4587,-4.4587,-4.4587,-4.457,-4.431,-4.3972,-4.3453,-4.3015,-4.2458,-4.1788,-4.1262,-4.0515,-3.964,-3.9163,-3.8356,-3.7358,0.0,-3.6831,-3.6492,-3.6492,-3.6492,-3.6492,-3.6492,-3.6492,-3.6492,-3.6492,0.0,0.0,0.0,0.0,-3.4861,0.0,0.0,0.0,0.0,0.0,0.0,0.0,0.0,0.0,0.0,0.0,0.0,0.0,0.0,0.0,0.0,0.0,0.0,0.0,0.0,0.0,0.0,0.0,0.0,-2.5175,-2.4574,-2.4006,-2.3504,-2.3482,-2.3682,-2.412,-2.5252,-2.6171,-2.6921,-2.8039,-2.8587,-2.8587,-2.8587,-2.8587,-2.8587,-2.8587,-2.8587,-2.8641,-2.9224,-2.9849,-3.0404,-3.0619,-3.0891,-3.1071,-3.0317,-2.9871,-2.9561,0.0,0.0,0.0,0.0,0.0,0.0,0.0,0.0,-4.3849,-4.5478,0.0,0.0,0.0,0.0,0.0,-4.9001,-4.9001,-4.9001,-4.9001,-4.9001,-4.9001,-4.9001,0.0,0.0,0.0,0.0,0.0,0.0,0.0,0.0,0.0,0.0,-4.524,-4.4514,-4.4514,-4.4514,-4.4497,-4.3781,-4.3512,-4.3376,-4.2013,-4.1901,-4.2332,-4.1024,0.0,0.0,-3.8932,-3.7997,0.0,-3.6723,0.0,0.0,-3.6492,-3.6492,-3.6492,-3.6492,-3.6492,-3.6492,0.0,0.0,0.0,0.0,0.0,0.0,0.0,0.0,0.0,0.0,0.0,0.0,0.0,0.0,0.0,0.0,0.0,0.0,0.0,0.0,0.0,0.0,0.0,0.0,0.0,0.0,0.0,0.0,0.0,-2.5153,-2.5153,-2.4235,-2.3493,-2.3012,-2.3001,-2.3423,-2.412,-2.5252,-2.6239,-2.6934,-2.8039,-2.8587,-2.8587,-2.8587,-2.8587,-2.8587,-2.8587,-2.8587,-2.8641,-2.9211,-2.9835,-3.0473,-3.1042,-3.1253,-3.1233,-3.122,-3.0846,-3.0088,0.0,0.0,0.0,0.0,0.0,0.0,0.0,0.0,-4.3849,0.0,0.0,0.0,-4.8339,-4.8815,-4.9001,-4.9001,-4.9001,-4.9001,-4.9001,-4.9001,-4.9001,-4.9001,-4.9001,-4.9001,0.0,0.0,0.0,0.0,0.0,0.0,0.0,0.0,0.0,0.0,-4.3092,-4.3092,-4.3092,-4.3393,-4.3512,-4.3376,-4.2013,-4.1575,0.0,0.0,0.0,0.0,0.0,-3.7758,-3.6723,0.0,-3.6492,-3.6492,0.0,-3.6492,-3.6492,-3.6492,-3.6492,-3.6492,-3.6336,0.0,0.0,0.0,0.0,0.0,0.0,0.0,0.0,0.0,0.0,0.0,0.0,0.0,0.0,0.0,0.0,0.0,0.0,0.0,0.0,0.0,0.0,0.0,0.0,0.0,0.0,0.0,-2.6064,-2.4683,-2.4683,-2.3744,-2.3143,-2.3001,-2.3486,-2.4204,-2.4933,-2.6032,-2.7015,-2.7789,-2.8327,-2.8587,-2.8587,-2.8587,-2.8587,-2.8587,-2.8587,-2.8587,-2.86,-2.8763,-2.9455,-3.0432,-3.0581,-3.1202,-3.1863,-3.1381,-3.1071,-3.0771,0.0,0.0,0.0,0.0,0.0,0.0,0.0,-4.3329,-4.3849,0.0,0.0,0.0,-4.853,-4.8877,-4.9001,-4.9001,-4.9001,-4.9001,-4.9001,-4.9001,-4.9001,-4.9001,-4.9001,-4.9001,-4.9001,0.0,0.0,0.0,0.0,0.0,0.0,0.0,0.0,0.0,0.0,0.0,-4.252,0.0,0.0,0.0,-4.1525,0.0,0.0,-4.0458,-3.9749,0.0,0.0,0.0,-3.6831,-3.66,-3.6492,0.0,0.0,0.0,-3.6492,-3.6492,-3.6414,-3.6352,-3.6211,-3.5864,-3.54,0.0,0.0,0.0,-3.2475,-3.1936,0.0,0.0,0.0,0.0,0.0,0.0,0.0,0.0,0.0,0.0,0.0,0.0,0.0,0.0,0.0,0.0,0.0,0.0,0.0,-2.8426,-2.6322,-2.467,-2.3886,-2.3318,-2.3001,-2.3001,-2.3694,-2.4492,-2.5312,-2.6321,-2.7229,-2.8079,-2.8327,-2.8509,-2.8587,-2.8587,-2.8587,-2.8587,-2.8587,-2.8587,-2.8587,-2.8587,-2.9306,-3.0405,-3.0405,-3.1137,-3.2169,-3.1776,-3.1542,-3.132,0.0,0.0,0.0,0.0,0.0,0.0,0.0,-4.3329,-4.3849,0.0,-4.5992,-4.702,-4.8798,-4.9001,-4.9001,-4.9001,-4.9001,-4.9001,-4.9001,-4.9001,-4.9001,-4.9001,-4.9001,-4.9001,-4.9001,0.0,0.0,0.0,0.0,0.0,0.0,0.0,0.0,0.0,0.0,0.0,0.0,0.0,0.0,-4.126,-4.0699,-4.0904,0.0,0.0,-3.9767,-3.9975,-3.8153,-3.7421,-3.7238,-3.6662,-3.6492,0.0,0.0,0.0,0.0,0.0,-3.6352,-3.6148,-3.607,-3.5335,-3.4595,-3.4461,0.0,0.0,-3.2331,-3.1776,-3.1272,0.0,0.0,0.0,0.0,0.0,0.0,0.0,0.0,0.0,0.0,0.0,0.0,0.0,0.0,0.0,0.0,-3.019,-2.9303,-2.8505,-2.6613,-2.4876,-2.3282,-2.3172,-2.3139,-2.3139,-2.3913,-2.4624,-2.53,-2.6333,-2.7229,-2.8079,-2.8249,-2.843,-2.8587,-2.8587,-2.8587,-2.8587,-2.8587,-2.8587,-2.86,-2.8655,-2.9374,-3.0405,-3.0405,-3.1137,-3.2182,-3.2182,-3.2036,-3.173,-4.282,0.0,0.0,0.0,0.0,0.0,0.0,0.0,-4.363,-4.4586,-4.6119,-4.7572,-4.8861,-4.9001,-4.9001,-4.9001,-4.9001,-4.9001,-4.9001,-4.9001,-4.9001,-4.9001,-4.9001,-4.9001,-4.9001,-4.8291,0.0,0.0,0.0,0.0,0.0,0.0,0.0,0.0,0.0,0.0,0.0,0.0,0.0,-4.0316,-4.0455,0.0,-4.1314,-4.0024,-3.9226,-3.8774,-3.7802,-3.7124,-3.6662,-3.6554,-3.6492,-3.6492,0.0,0.0,0.0,-3.6274,0.0,0.0,0.0,-3.4728,0.0,0.0,0.0,0.0,-3.216,-3.1616,-3.1061,0.0,0.0,0.0,0.0,0.0,0.0,0.0,0.0,0.0,0.0,0.0,0.0,0.0,0.0,0.0,0.0,-3.019,-2.9303,-2.8505,-2.6086,-2.467,-2.451,-2.4141,-2.3913,-2.3913,-2.5193,-2.5709,-2.5312,-2.6812,-2.7789,-2.8079,-2.8249,-2.843,-2.8587,-2.8587,-2.8587,-2.8587,-2.8587,-2.8587,-2.8627,-2.9102,-2.974,-3.0405,-3.0405,-3.1137,-3.2182,-3.2182,-3.2036,-3.1817,-4.317,0.0,0.0,0.0,0.0,0.0,0.0,0.0,-4.363,-4.4358,-4.6119,-4.7721,-4.8815,-4.894,-4.9001,-4.9001,-4.9001,-4.9001,-4.9001,-4.9001,-4.9001,-4.9001,-4.9001,-4.8832,-4.8477,-4.7749,0.0,0.0,0.0,0.0,0.0,0.0,0.0,0.0,0.0,0.0,0.0,0.0,-4.0137,-4.0137,-4.0401,0.0,-4.0779,-3.9452,-3.88,-3.8369,-3.7353,-3.6784,-3.6492,-3.6492,-3.6492,0.0,0.0,-3.6352,-3.6196,0.0,-3.5737,-3.5219,0.0,0.0,0.0,-3.2791,0.0,0.0,0.0,-3.1259,-3.0986,0.0,0.0,0.0,0.0,0.0,0.0,0.0,0.0,0.0,0.0,0.0,0.0,0.0,0.0,0.0,0.0,-3.0583,-2.9744,-2.8198,-2.6173,-2.5013,-2.4946,-2.4783,-2.4707,-2.4707,-2.5779,-2.6208,-2.5861,-2.704,-2.7723,-2.7934,-2.8417,-2.8597,-2.8509,-2.9184,-2.9198,-2.8587,-2.8944,-2.8881,-2.8641,-2.9224,-2.9849,-3.0446,-3.073,-3.1395,-3.2182,-3.2109,-3.189,-3.1743,-4.2867,0.0,0.0,0.0,0.0,0.0,0.0,0.0,-4.3615,-4.4646,-4.6119,-4.7456,-4.8707,-4.8894,-4.894,-4.9001,-4.9001,-4.9001,-4.9001,-4.9001,-4.894,-4.8798,-4.8798,-4.8382,-4.7519,-4.6819,-4.5758,0.0,0.0,0.0,0.0,0.0,0.0,0.0,0.0,0.0,0.0,0.0,0.0,-4.0121,0.0,-4.0401,-4.0193,-3.8964,-3.8508,-3.8323,-3.6906,-3.6414,-3.6414,-3.6414,-3.6414,-3.6414,-3.6414,-3.6289,0.0,0.0,0.0,0.0,0.0,0.0,0.0,0.0,0.0,-3.0986,0.0,0.0,0.0,0.0,0.0,0.0,0.0,0.0,0.0,0.0,0.0,0.0,0.0,0.0,0.0,0.0,0.0,0.0,0.0,-3.0659,-2.9758,-2.7968,-2.6539,-2.5589,-2.5223,-2.5528,-2.562,-2.5523,-2.6208,-2.6552,-2.6414,-2.7108,-2.759,-2.7776,-2.8634,-2.8826,-2.8546,-2.9903,-2.9917,-2.9022,-2.9471,-2.94,-2.8998,-2.959,-3.012,-3.0635,-3.104,-3.1581,-3.2109,-3.189,-3.1743,-3.1522,-4.2093,-4.2476,0.0,0.0,0.0,0.0,0.0,0.0,-4.3912,-4.5504,-4.5937,-4.6779,-4.8627,-4.8832,-4.8894,-4.9001,-4.9001,-4.9001,-4.9001,-4.9001,-4.8719,-4.8032,-4.8015,-4.7423,-4.6043,-4.5326,-4.4218,0.0,0.0,0.0,0.0,0.0,0.0,0.0,-3.9839,0.0,0.0,0.0,-3.9625,0.0,-3.9925,-4.0191,0.0,-3.8846,-3.8391,-3.8323,-3.6764,-3.6211,-3.6211,0.0,-3.6211,-3.6211,0.0,-3.6006,-3.5752,-3.5752,0.0,0.0,0.0,0.0,0.0,0.0,-3.1048,0.0,0.0,0.0,-3.0986,-3.0986,0.0,0.0,0.0,0.0,0.0,0.0,0.0,0.0,0.0,0.0,0.0,0.0,0.0,0.0,0.0,0.0,-2.856,-2.8342,-2.7065,-2.6395,-2.6502,-2.6857,-2.6847,-2.6289,-2.6973,-2.704,-2.6414,-2.7108,-2.759,-2.7776,-2.8634,-2.9079,-2.9233,-3.0086,-3.0404,-3.0312,-3.0312,-3.0233,-3.0266,-3.0884,-3.1137,-3.1205,-3.106,-3.1366,-3.189,-3.1683,-3.1522,-3.1347,-4.135,-4.2102,0.0,0.0,0.0,0.0,0.0,0.0,0.0,-4.493,-4.5634,-4.6539,-4.7803,-4.853,-4.8956,-4.9001,0.0,-4.9001,0.0,0.0,-4.8225,-4.7885,0.0,-4.6124,-4.4994,-4.3901,-4.2798,0.0,-4.0907,0.0,0.0,0.0,0.0,0.0,-3.9553,0.0,-3.9553,0.0,-3.9553,0.0,0.0,0.0,0.0,-3.8491,-3.7704,-3.6926,-3.6298,-3.6085,-3.6085,0.0,-3.6085,0.0,0.0,0.0,0.0,0.0,0.0,0.0,0.0,0.0,0.0,0.0,0.0,0.0,-3.0986,0.0,-3.0986,0.0,0.0,0.0,0.0,0.0,0.0,0.0,-3.0986,0.0,0.0,0.0,0.0,0.0,0.0,0.0,0.0,0.0,0.0,0.0,0.0,-2.7831,-2.7914,-2.791,-2.7842,-2.7541,-2.7491,-2.7323,-2.704,-2.7323,-2.7523,-2.7656,-2.8953,-2.9393,-2.9058,-3.0704,-3.1243,-3.0982,-3.0791,-3.089,-3.104,-3.1129,-3.1159,-3.1114,-3.1162,-3.1443,-3.189,-3.1508,-3.1347,-3.1272,-4.0502,-4.1369,-4.1938,0.0,0.0,0.0,0.0,0.0,0.0,0.0,0.0,0.0,-4.7223,-4.8015,0.0,-4.894,-4.8877,-4.8877,0.0,0.0,-4.7572,0.0,0.0,0.0,0.0,-4.2495,-4.1572,0.0,0.0,0.0,0.0,0.0,0.0,0.0,0.0,-3.9424,-3.9424,0.0,-3.9481,-3.9565,-3.8888,-3.8476,-3.8236,-3.7901,-3.694,-3.5861,-3.591,-3.5894,-3.5894,-3.5894,-3.5894,0.0,-3.5894,0.0,0.0,0.0,0.0,0.0,-3.2932,0.0,0.0,0.0,0.0,0.0,0.0,0.0,0.0,0.0,0.0,0.0,0.0,0.0,0.0,-3.0986,0.0,-3.0986,0.0,0.0,0.0,0.0,0.0,0.0,0.0,0.0,0.0,0.0,-2.9315,-2.9001,-2.885,-2.8846,-2.8791,-2.8634,-2.8229,-2.8007,-2.8007,-2.8007,-2.8007,-2.8007,-2.9642,-3.015,-2.9605,-3.1681,-3.2269,-3.1681,-3.1556,-3.152,-3.1523,-3.1273,-3.1186,-3.1154,-3.1262,-3.1508,-3.1656,-3.136,-3.1198,-3.1198,-3.9324,-4.0008,-4.0861,0.0,0.0,0.0,0.0,0.0,0.0,0.0,0.0,0.0,0.0,0.0,0.0,0.0,0.0,-4.8547,-4.8547,0.0,-4.6727,0.0,0.0,-4.3226,0.0,0.0,0.0,0.0,0.0,0.0,0.0,0.0,0.0,0.0,0.0,-3.9424,-3.9424,-3.9424,-3.9424,-3.9349,-3.8661,-3.7644,-3.6603,0.0,-3.6401,-3.5554,-3.5638,0.0,0.0,-3.5688,-3.5688,0.0,0.0,0.0,0.0,0.0,0.0,0.0,0.0,0.0,0.0,-3.0986,0.0,0.0,0.0,0.0,-3.0986,0.0,0.0,0.0,0.0,0.0,-3.0986,-3.0986,-3.0986,0.0,0.0,0.0,0.0,0.0,0.0,0.0,0.0,0.0,0.0,-2.9704,-2.9679,-2.9428,-2.8863,-2.9619,-2.9823,-2.9274,-2.9235,-2.9222,-2.9222,-2.9222,-2.9222,-2.9293,-3.0837,-3.1551,-3.1551,-3.3119,-3.3441,-3.2775,-3.2737,-3.2286,-3.157,-3.1594,-3.1582,-3.1582,-3.1347,-3.1347,-3.1272,-3.1061,-3.0986,-3.0986,-3.9352,-3.9604,-4.0023,0.0,0.0,0.0,0.0,-4.3329,0.0,0.0,0.0,0.0,0.0,-4.6205,-4.6694,0.0,0.0,-4.6773,-4.6369,-4.5624,0.0,0.0,0.0,-4.1641,0.0,0.0,0.0,0.0,0.0,0.0,0.0,0.0,0.0,0.0,0.0,-3.9424,0.0,0.0,0.0,0.0,0.0,-3.6611,-3.5833,0.0,0.0,-3.5504,-3.5554,-3.5539,0.0,-3.5539,-3.5539,-3.5539,-3.5539,-3.4957,-3.4312,-3.4312,-3.3269,0.0,0.0,0.0,-3.0986,-3.0986,0.0,0.0,0.0,0.0,0.0,0.0,0.0,0.0,0.0,0.0,-3.0986,-3.0986,-3.0986,-3.0986,0.0,0.0,0.0,0.0,0.0,0.0,0.0,0.0,0.0,-3.0583,-3.0583,-3.0493,0.0,-3.0173,-3.0045,-2.9849,-2.9483,-2.9274,-2.9274,-2.9274,-2.9274,-2.9345,-3.0825,-3.1293,-3.0813,-3.2259,-3.2825,-3.2577,-3.2026,-3.2031,-3.2258,-3.1623,-3.1434,-3.136,-3.1211,-3.1136,-3.1061,-3.1061,-3.0986,-3.0823,-3.9337,-3.9424,0.0,0.0,0.0,0.0,0.0,0.0,0.0,0.0,-4.3942,0.0,-4.4737,0.0,-4.5469,0.0,-4.5442,-4.5123,-4.466,-4.3945,0.0,-4.2552,-4.1397,0.0,0.0,0.0,0.0,0.0,0.0,-3.9424,0.0,0.0,0.0,0.0,0.0,-3.9424,-3.9424,-3.9424,-3.902,0.0,0.0,-3.6088,0.0,0.0,-3.5504,-3.5504,0.0,-3.5504,-3.5504,-3.5504,-3.5504,-3.5504,-3.5504,-3.4773,-3.3905,-3.3905,-3.2847,-3.175,-3.175,-3.1334,0.0,-3.0986,-3.0986,0.0,-3.0986,0.0,0.0,0.0,0.0,0.0,0.0,0.0,-3.0986,-3.0986,-3.0986,-3.0986,0.0,-3.0911,0.0,0.0,0.0,0.0,0.0,0.0,-3.0911,-3.0986,-3.0911,-3.0911,0.0,0.0,-3.0438,-3.0438,-3.0072,-2.9889,-2.9889,-2.9889,-2.9889,-2.9889,-3.1212,-3.1611,-3.1323,-3.2317,-3.276,-3.2692,-3.1924,-3.1763,-3.2055,-3.1408,-3.1198,-3.1198,-3.1061,-3.0986,-3.0986,-3.0986,-3.0986,-3.0823,-3.9265,0.0,0.0,0.0,-4.1459,0.0,0.0,0.0,-4.3284,0.0,-4.3442,-4.3866,-4.4569,-4.4056,-4.393,-4.4652,-4.4012,-4.3564,-4.3532,-4.2832,0.0,0.0,-4.0761,-4.0053,-3.9424,0.0,0.0,0.0,0.0,0.0,0.0,0.0,0.0,0.0,-3.9424,0.0,-3.9424,-3.9379,-3.896,-3.8182,-3.6941,-3.6073,-3.5504,-3.5504,0.0,-3.5504,-3.5504,-3.5504,-3.5504,-3.5504,-3.5504,-3.5424,-3.5424,-3.4356,-3.3143,-3.3143,-3.2101,-3.0986,-3.0986,-3.0986,-3.0986,-3.0986,0.0,0.0,0.0,0.0,-3.0986,0.0,0.0,0.0,0.0,0.0,0.0,-3.0986,-3.0986,-3.0911,-3.0698,0.0,0.0,0.0,0.0,0.0,0.0,-3.0849,-3.0773,-3.0986,-3.0849,-3.0773,0.0,0.0,-3.0986,-3.0986,-3.0986,-3.0986,-3.0986,-3.0986,-3.0986,-3.0986,-3.1809,-3.2506,-3.3073,-3.3143,-3.3143,-3.3073,-3.2362,-3.1676,-3.0986,-3.0986,-3.0986,-3.0986,-3.0986,-3.0986,-3.0986,-3.0986,-3.0986,-3.0986,-3.9265,-3.9424,-3.9634,0.0,-4.1085,-4.1848,0.0,0.0,0.0,0.0,-4.2269,-4.2031,-4.2244,-4.2093,-4.2122,-4.2241,-4.2104,0.0,0.0,0.0,0.0,-3.9968,-3.9736,-3.9589,-3.9424,-3.9424,-3.9424,-3.9424,0.0,0.0,-3.9424,0.0,0.0,0.0,0.0,0.0,-3.9394,-3.8871,-3.8003,-3.6911,-3.6088,-3.5654,0.0,0.0,-3.5504,-3.5504,-3.5504,-3.5504,-3.5504,-3.5504,-3.5118,-3.461,-3.461,-3.3561,-3.2362,-3.2362,-3.175,-3.0986,-3.0986,-3.0986,-3.0986,-3.0986,-3.0986,-3.0986,0.0,0.0,0.0,0.0,0.0,0.0,0.0,0.0,0.0,-3.0773,-3.0773,-3.0773,0.0,0.0,0.0,-3.0444,0.0,0.0,0.0,-3.0609,-3.0698,-3.0773,-3.0836,0.0,0.0,0.0,0.0,-3.0986,-3.0986,-3.0986,-3.0986,-3.0986,-3.0986,-3.0986,-3.2304,-3.2448,-3.1616,-3.2733,-3.2591,-3.1542,-3.1334,-3.1198,-3.0986,-3.0986,-3.0986,-3.0986,-3.0986,-3.0986,-3.0986,-3.0986,-3.0986,-3.0911,-3.8723,0.0,0.0,-3.9903,0.0,0.0,-4.1833,0.0,0.0,-4.1938,-4.1609,0.0,-4.1384,-4.113,-4.095,-4.095,-4.0681,0.0,-3.9993,0.0,0.0,-3.9439,-3.9424,-3.9424,-3.9424,-3.9424,0.0,-3.9424,0.0,0.0,-3.9424,0.0,0.0,0.0,0.0,-3.9245,-3.8901,-3.7958,-3.715,-3.6432,-3.5774,0.0,0.0,-3.5504,-3.5504,-3.5504,-3.5504,-3.5504,-3.5439,-3.5052,-3.4677,-3.423,-3.3891,-3.3059,-3.2074,-3.2074,-3.1603,-3.0986,-3.0986,-3.0986,-3.0986,-3.0986,-3.0986,-3.0986,-3.0986,-3.0911,-3.0849,0.0,0.0,0.0,0.0,0.0,0.0,0.0,0.0,0.0,0.0,0.0,0.0,0.0,-3.0241,0.0,0.0,0.0,-3.0698,-3.0609,0.0,0.0,0.0,0.0,0.0,-3.0986,-3.0986,-3.0986,-3.0986,-3.0986,-3.0986,-3.0986,-3.216,-3.2304,-3.1542,-3.2376,-3.2304,-3.1468,-3.1123,-3.0986,-3.0986,-3.0986,-3.0986,-3.0986,-3.0986,-3.0986,-3.0986,-3.0986,-3.0986,-3.0911,-3.8037,0.0,0.0,0.0,0.0,0.0,0.0,-4.119,0.0,-4.125,0.0,-4.113,-4.113,-4.0606,-4.0277,-4.0277,0.0,-3.9424,-3.9424,-3.9424,-3.9424,-3.9424,-3.9424,-3.9424,-3.9424,-3.9424,-3.9424,0.0,0.0,0.0,0.0,0.0,0.0,0.0,0.0,0.0,0.0,-3.6985,-3.6432,-3.6312,-3.5729,-3.5504,-3.5504,-3.5504,-3.5424,-3.5344,-3.5344,-3.5344,-3.5213,-3.4528,-3.4163,-3.3891,-3.3283,-3.2577,-3.1942,-3.1942,-3.1529,-3.0986,-3.0986,-3.0986,-3.0986,-3.0986,-3.0986,-3.0986,-3.0986,-3.0849,-3.0698,-3.0622,-3.0533,-3.0368,0.0,0.0,0.0,0.0,0.0,0.0,0.0,0.0,0.0,0.0,0.0,0.0,0.0,0.0,0.0,0.0,0.0,0.0,0.0,0.0,0.0,-3.0986,-3.0986,0.0,-3.0986,0.0,-3.0986,-3.0986,-3.1736,-3.2087,-3.1942,-3.2087,-3.2087,-3.1942,-3.1259,-3.0986,-3.0986,-3.0986,-3.0986,-3.0986,-3.0986,-3.0986,-3.0986,-3.0986,-3.0911,-3.0735,-3.7886,0.0,0.0,0.0,0.0,-3.9634,-3.9753,-4.0232,-4.0576,-4.0576,-4.0098,-3.9768,-3.9768,-3.9664,-3.9589,-3.9589,-3.9484,0.0,0.0,0.0,0.0,-3.9424,-3.9424,-3.9424,-3.9424,-3.9424,-3.9424,0.0,0.0,0.0,0.0,0.0,0.0,0.0,0.0,0.0,-3.7539,-3.6806,0.0,-3.5669,-3.5549,-3.5504,-3.5504,-3.5504,-3.5067,-3.4528,-3.4528,-3.4528,-3.4461,-3.438,-3.3478,-3.242,-3.2362,-3.1809,-3.1185,-3.1185,-3.1123,-3.0986,-3.0986,-3.0986,-3.0986,-3.0986,-3.0986,-3.0986,-3.0773,-3.0698,-3.0622,-3.0241,-3.0305,-3.0292,-2.9934,0.0,0.0,0.0,0.0,0.0,0.0,0.0,0.0,0.0,0.0,-3.0011,0.0,0.0,0.0,0.0,0.0,0.0,0.0,0.0,0.0,0.0,0.0,0.0,0.0,0.0,-3.0986,-3.0986,-3.1736,-3.1809,-3.1185,-3.1809,-3.1736,-3.1198,-3.1061,-3.0986,-3.0986,-3.0986,-3.0986,-3.0986,-3.0986,-3.0986,-3.0986,-3.0986,-3.0508,-2.9947,0.0,0.0,0.0,0.0,0.0,0.0,0.0,-3.9694,0.0,-3.9888,-3.9619,-3.9424,-3.9424,-3.9424,-3.9424,-3.9424,-3.9424,-3.9424,-3.9424,-3.9424,-3.9424,-3.9424,-3.9424,0.0,-3.9424,-3.9424,-3.9424,-3.9424,0.0,0.0,0.0,0.0,0.0,0.0,0.0,-3.6879,0.0,0.0,0.0,-3.4905,-3.4905,-3.4905,-3.4905,-3.4905,-3.4409,-3.3768,-3.3768,-3.3478,-3.3199,-3.3199,-3.2706,-3.2015,-3.1676,-3.1259,-3.0986,-3.0986,-3.0986,-3.0986,-3.0836,-3.0849,-3.0836,-3.0672,-3.0672,-3.0672,-3.0609,-3.0457,-3.0228,-2.9599,-2.9754,-3.0011,-2.9869,-2.9534,0.0,0.0,0.0,0.0,0.0,0.0,0.0,0.0,0.0,0.0,0.0,0.0,0.0,0.0,0.0,0.0,0.0,0.0,0.0,0.0,0.0,0.0,0.0,0.0,0.0,-3.0986,-3.1736,-3.1736,-3.1061,-3.1736,-3.1676,-3.0986,-3.0986,-3.0986,-3.0986,-3.0986,-3.0986,-3.0986,-3.0986,-3.0986,-3.0986,-3.0508,-3.0024,-2.9626,0.0,-3.9177,0.0,0.0,-3.9424,0.0,-3.9424,-3.9424,-3.9424,-3.9424,-3.9424,-3.9424,-3.9424,-3.9424,-3.9424,-3.9424,-3.9424,-3.9424,-3.9424,-3.9424,-3.9424,-3.9424,-3.9424,-3.9424,-3.9424,-3.9424,-3.9424,0.0,0.0,0.0,0.0,0.0,0.0,0.0,0.0,0.0,0.0,0.0,-3.3768,-3.4312,-3.4312,-3.4312,-3.4312,-3.4109,-3.363,-3.2932,-3.2932,-3.2519,-3.1882,-3.1882,-3.1882,-3.1736,-3.1198,-3.0986,-3.0986,-3.0911,-3.0911,-3.0911,-3.0685,-3.0622,-3.0609,-3.0444,-3.0368,-3.0368,-3.0368,-3.0062,-2.9599,-2.8882,-2.8961,-2.93,-2.9468,-2.8961,0.0,0.0,0.0,0.0,0.0,0.0,0.0,0.0,0.0,0.0,0.0,0.0,0.0,0.0,0.0,0.0,0.0,0.0,0.0,0.0,0.0,-3.0911,-3.0911,0.0,-3.0986,0.0,-3.1603,-3.1529,-3.0986,-3.1603,-3.1529,-3.0986,-3.0986,-3.0986,-3.0986,-3.0986,-3.0986,-3.0986,-3.0986,-3.0986,-3.0898,-2.9935,-2.9537,-2.9213,0.0,0.0,0.0,0.0,0.0,0.0,0.0,-3.9424,-3.9424,-3.9424,-3.9424,-3.9424,-3.9424,-3.9424,-3.9424,-3.9424,-3.9424,-3.9424,-3.9424,-3.9424,-3.9424,-3.9424,-3.9424,-3.9424,-3.9424,-3.9424,-3.9424,0.0,0.0,0.0,0.0,0.0,0.0,0.0,0.0,0.0,0.0,-3.4232,-3.4245,-3.4312,-3.4312,-3.4312,-3.4245,-3.3561,-3.2861,-3.2218,-3.2218,-3.175,-3.1123,-3.1123,-3.1123,-3.1123,-3.0986,-3.0986,-3.0986,-3.0773,-3.0698,-3.0685,-3.0444,-3.0444,-3.0444,-3.0368,-3.0368,-3.0368,-3.0152,-2.9521,-2.887,-2.8542,-2.7891,-2.7637,-2.8462,-2.8542,-2.8462,0.0,0.0,0.0,0.0,0.0,0.0,-2.8383,0.0,0.0,0.0,0.0,0.0,0.0,0.0,0.0,0.0,0.0,0.0,-3.0698,0.0,-3.0698,-3.0698,-3.0911,0.0,-3.0986,-3.1048,-3.1061,-3.0986,-3.1048,-3.1061,-3.0986,-3.0986,-3.0986,-3.0986,-3.0986,-3.0986,-3.0986,-3.0986,-3.0986,-3.0898,-2.9858,-2.8888,-2.8096,0.0,0.0,0.0,0.0,0.0,0.0,0.0,-3.9424,-3.9424,-3.9424,-3.9424,-3.9424,-3.9424,-3.9424,-3.9424,-3.9424,-3.9424,-3.9424,-3.9424,-3.9424,-3.9424,-3.9424,-3.9424,-3.9424,-3.9424,-3.9424,-3.9192,0.0,0.0,0.0,0.0,0.0,0.0,0.0,0.0,-3.2867,-3.2922,-3.2472,-3.2577,-3.2989,-3.2989,-3.2989,-3.2918,-3.2648,-3.2087,-3.1468,-3.1468,-3.1259,-3.0986,-3.0986,-3.0986,-3.0986,-3.0836,-3.0849,-3.0761,-3.0609,-3.0533,-3.0457,-3.0292,-3.0228,-3.0228,-3.0075,-3.0011,-2.9844,-2.9275,-2.887,-2.8291,-2.7139,-2.6565,-2.673,-2.8211,-2.7637,-2.7058,0.0,0.0,0.0,0.0,0.0,0.0,0.0,0.0,-2.887,0.0,0.0,0.0,0.0,0.0,0.0,0.0,0.0,0.0,-3.0533,0.0,-3.0609,-3.0698,-3.0773,-3.0911,-3.0986,-3.0986,-3.0986,-3.0986,-3.0986,-3.0986,-3.0986,-3.0986,-3.0986,-3.0986,-3.0986,-3.0986,-3.0986,-3.0836,-3.0508,-2.9935,-2.8834,-2.7855,-2.6964,-3.5691,0.0,-3.7114,0.0,-3.8894,-3.9185,-3.9394,-3.9424,-3.9424,-3.9424,-3.9424,-3.9424,-3.9424,-3.9424,-3.9424,-3.9424,-3.9424,-3.9424,-3.9424,-3.9424,-3.9424,-3.9424,-3.9424,0.0,-3.9424,-3.9424,-3.9046,-3.8202,-3.7789,0.0,0.0,0.0,0.0,0.0,-3.2173,-3.1642,-3.1736,-3.1468,-3.1603,-3.2074,-3.2074,-3.2074,-3.2087,-3.1882,-3.1394,-3.0911,-3.0911,-3.0911,-3.0823,-3.0823,-3.0823,-3.0836,-3.0698,-3.0698,-3.0533,-3.0368,-3.0292,-3.0292,-3.0075,-3.0011,-3.0011,-2.9869,-2.9792,-2.9546,-2.8712,-2.8291,-2.7557,-2.5746,-2.5579,-2.6152,-2.7464,-2.6894,-2.6318,-2.6659,0.0,0.0,0.0,0.0,0.0,0.0,-2.7959,-2.8462,-2.93,0.0,0.0,0.0,0.0,0.0,0.0,0.0,0.0,0.0,0.0,0.0,0.0,-3.0622,-3.0773,-3.0911,-3.0986,-3.0986,-3.0986,-3.0986,-3.0986,-3.0986,-3.0986,-3.0986,-3.0911,-3.0911,-3.0911,-3.0836,-3.0685,-3.0114,-2.9213,-2.8108,-2.7139,-2.6235,-3.3325,-3.4803,-3.6202,-3.6939,-3.7809,-3.8631,-3.932,-3.9424,-3.9424,-3.9424,-3.9424,-3.9424,-3.9424,-3.9424,-3.9424,-3.9424,-3.9424,-3.9424,-3.9424,-3.9424,-3.9424,0.0,0.0,-3.9424,-3.9424,-3.9424,-3.9046,-3.8202,0.0,0.0,-3.5096,0.0,-3.1997,-3.181,-3.1248,-3.0986,-3.1048,-3.1809,-3.2074,-3.2074,-3.2074,-3.2074,-3.2015,-3.1259,-3.0911,-3.0698,-3.0698,-3.0609,-3.0444,-3.0444,-3.0444,-3.0444,-3.0622,-3.0533,-3.0368,-3.0152,-3.0075,-3.0088,-2.9869,-2.9792,-2.9792,-2.9792,-2.9792,-2.9546,-2.8712,-2.7799,-2.6659,-2.4871,-2.5179,-2.583,-2.5819,-2.6483,-2.6812,-2.5986,0.0,0.0,0.0,0.0,0.0,0.0,-2.6565,-2.7476,-2.845,0.0,0.0,0.0,0.0,0.0,0.0,0.0,0.0,-3.0075,-3.0075,0.0,-3.0075,-3.047,-3.0698,-3.0698,-3.0911,-3.0986,-3.0986,-3.0986,-3.0986,-3.0986,-3.0986,-3.0911,-3.0698,-3.0698,-3.0609,-3.0444,-3.0368,-2.9883,-2.8991,-2.7867,-2.6894,-2.5913,-3.2995,-3.3795,-3.4808,-3.6816,-3.7386,-3.7819,-3.8616,-3.8721,-3.8886,-3.9364,-3.9424,-3.9424,-3.9424,-3.9424,-3.9424,0.0,-3.9424,-3.9424,0.0,-3.9424,-3.9424,-3.9424,-3.9424,-3.9424,-3.9424,-3.896,-3.8046,-3.6774,0.0,0.0,0.0,-3.2163,-3.1672,-3.1248,-3.1065,-3.0986,-3.0986,-3.1259,-3.1259,-3.111,-3.111,-3.1022,-3.0947,-3.0659,-3.052,-3.0533,-3.0533,-3.0444,-3.0368,-3.0368,-3.0292,-3.0228,-3.0305,-3.0228,-3.0152,-2.9934,-2.9856,-2.9869,-2.9792,-2.9792,-2.9792,-2.9792,-2.9792,-2.9546,-2.8712,-2.7302,-2.5913,-2.47,-2.47,-2.5105,-2.5663,-2.5505,-2.5432,-2.5746,-2.5337,0.0,0.0,0.0,0.0,0.0,-2.6565,-2.7476,0.0,-2.9287,0.0,0.0,0.0,0.0,0.0,0.0,0.0,0.0,-2.9856,0.0,-3.0075,-3.0228,-3.0394,-3.0698,-3.0773,-3.0773,-3.0773,-3.0773,-3.0685,-3.0596,-3.0596,-3.052,-3.0533,-3.0533,-3.0444,-3.0368,-2.9574,-2.8779,-2.7867,-2.6719,-2.5757,-2.4946,-3.1668,-3.2307,-3.3221,-3.5467,-3.6105,-3.6758,-3.7844,-3.8018,-3.8167,-3.8601,-3.8661,-3.8661,-3.8661,-3.8661,0.0,-3.9379,-3.9424,-3.9424,-3.9424,-3.9424,-3.9424,-3.9424,-3.917,-3.9035,-3.9035,0.0,0.0,-3.5747,-3.4458,-3.3041,-3.1522,-3.1446,-3.1187,-3.0911,-3.0836,-3.0748,-3.0748,-3.0748,-3.0685,-3.0622,-3.0622,-3.0533,-3.0368,-3.0368,-3.0368,-3.0292,-3.0292,-3.0228,-3.0152,-3.0152,-3.0075,-3.0011,-3.0011,-3.0011,-2.9934,-2.9869,-2.9792,-2.9792,-2.9792,-2.9792,-2.9792,-2.9792,-2.9792,-2.9456,-2.8211,-2.6577,-2.5179,-2.4615,-2.5031,-2.5432,-2.5337,-2.5432,-2.5432,-2.5348,-2.4861,-2.454,-2.454,0.0,0.0,0.0,0.0,0.0,0.0,-2.904,0.0,0.0,0.0,0.0,0.0,0.0,0.0,-2.9792,-2.9792,0.0,-3.0011,-3.0088,-3.0228,-3.047,-3.0533,-3.0622,-3.0622,-3.0622,-3.0533,-3.0368,-3.0368,-3.0368,-3.0292,-3.0292,-3.005,-2.9651,-2.8949,-2.7971,-2.6812,-2.6069,-2.5263,-2.454,-2.9934,-3.0696,0.0,0.0,-3.4455,0.0,-3.7103,-3.7345,-3.736,-3.7404,-3.7404,-3.7404,-3.7404,-3.7404,-3.7913,-3.917,0.0,0.0,0.0,-3.9275,-3.9275,-3.9275,-3.859,-3.8247,-3.8317,-3.759,-3.6453,-3.4896,-3.2774,-3.1433,-3.0986,-3.0773,-3.0698,-3.0698,-3.0444,-3.0368,-3.0368,-3.0368,-3.0368,-3.0368,-3.0368,-3.0368,-3.0368,-3.0368,-3.0228,-3.0075,-3.0075,-2.9934,-2.9792,-2.9792,-2.9792,-2.9792,-2.9792,-2.9792,-2.9792,-2.9792,-2.9792,-2.9792,-2.9792,-2.9792,-2.9792,-2.9792,-2.9792,-2.9221,-2.7476,-2.5768,-2.4625,-2.4625,-2.5841,-2.6494,-2.4861,-2.5924,-2.6494,-2.4786,-2.454,-2.454,-2.454,0.0,0.0,0.0,0.0,0.0,0.0,-2.8803,-2.9792,0.0,0.0,0.0,0.0,0.0,-2.9792,-2.9792,-2.9792,-2.9792,-2.9792,-3.0011,-3.0075,-3.0075,-3.0292,-3.0368,-3.0368,-3.0368,-3.0368,-3.0368,-3.0368,-3.0216,-3.0075,-2.9998,-2.9431,-2.8462,-2.8383,-2.7302,-2.583,-2.5746,-2.5179,-2.454,0.0,0.0,-3.286,-3.4545,-3.5007,-3.5511,-3.6529,-3.6701,-3.6881,-3.7345,-3.7404,-3.7404,-3.7404,-3.7404,-3.7539,-3.7853,-3.7883,-3.7883,-3.7883,-3.7883,-3.7883,-3.7883,-3.7146,-3.7057,-3.7629,-3.5907,-3.4198,-3.2581,-3.136,-3.0649,-3.052,-3.052,-3.0444,-3.0444,-3.0444,-3.0368,-3.0368,-3.0368,-3.0292,-3.0152,-3.0152,-3.0075,-2.9934,-2.9934,-2.9934,-2.9869,-2.9869,-2.9869,-2.9792,-2.9792,-2.9792,-2.9792,-2.9792,-2.9792,-2.9792,-2.9792,-2.9792,-2.9792,-2.9792,-2.9792,-2.9792,-2.9792,-2.93,-2.8542,-2.7395,-2.6246,-2.5505,-2.5505,-2.583,-2.5986,-2.5579,-2.583,-2.5746,-2.47,-2.454,-2.454,-2.454,-2.454,0.0,0.0,-2.64,-2.7395,-2.8131,-2.9131,-2.9792,0.0,0.0,0.0,0.0,-2.9792,-2.9792,-2.9792,-2.9792,-2.9792,-2.9792,-2.9869,-2.9934,-3.0075,-3.0292,-3.0292,-3.0152,-3.0152,-3.0075,-2.9934,-2.9934,-2.9934,-2.9779,-2.9118,-2.87,-2.8383,-2.6976,-2.6152,-2.5746,-2.502,-2.47,-2.454,-3.2321,-3.255,-3.3073,-3.4409,-3.4624,-3.4957,-3.5902,-3.6028,-3.6163,-3.6492,-3.6537,-3.6537,-3.6537,-3.6537,-3.6537,-3.6537,-3.7075,-3.7404,-3.7404,-3.7404,-3.7267,-3.6906,-3.6248,-3.5878,-3.5948,-3.454,-3.3123,-3.1942,-3.1022,-3.0533,-3.0533,-3.0381,-3.0292,-3.0292,-3.0152,-3.0152,-3.0152,-3.0152,-3.0088,-2.9934,-2.9934,-2.9856,-2.9792,-2.9792,-2.9792,-2.9792,-2.9792,-2.9792,-2.9792,-2.9792,-2.9792,-2.9792,-2.9792,-2.9792,-2.9792,-2.9792,-2.9792,-2.9792,-2.9792,-2.9792,-2.9792,-2.9792,-2.8791,-2.7718,-2.7232,-2.64,-2.5819,-2.5819,-2.6483,-2.6812,-2.5986,-2.6152,-2.5997,-2.47,-2.454,-2.454,-2.454,-2.454,0.0,-2.5663,-2.6565,-2.7476,-2.8383,-2.9287,-2.9792,-2.9792,0.0,0.0,-2.9792,-2.9792,-2.9792,-2.9792,-2.9792,-2.9792,-2.9792,-2.9792,-2.9869,-2.9934,-3.0075,-3.0075,-2.9934,-2.9934,-2.9856,-2.9792,-2.9792,-2.9792,-2.9714,-2.887,-2.8211,-2.7718,-2.6318,-2.5589,-2.5179,-2.47,-2.454,-2.4509,-3.2593,-3.2749,-3.3171,-3.4109,-3.4245,-3.4543,-3.5359,-3.5504,-3.5504,-3.5504,-3.5504,-3.5504,-3.5504,-3.5504,-3.5504,-3.5504,-3.6492,-3.712,-3.712,-3.712,-3.6763,-3.5967,-3.5261,-3.4609,-3.3986,-3.3268,-3.2577,-3.1796,-3.0973,-3.0546,-3.0546,-3.0228,-3.0088,-3.0088,-2.9869,-2.9792,-2.9792,-2.9792,-2.9792,-2.9792,-2.9792,-2.9792,-2.9792,-2.9792,-2.9792,-2.9792,-2.9792,-2.9792,-2.9792,-2.9792,-2.9792,-2.9792,-2.9792,-2.9792,-2.9792,-2.9792,-2.9792,-2.9792,-2.9792,-2.9792,-2.9792,-2.9624,-2.8303,-2.7069,-2.6905,-2.6318,-2.5819,-2.5986,-2.7302,-2.8051,-2.6483,-2.673,-2.6577,-2.4946,-2.4625,-2.454,-2.454,0.0,-2.502,-2.5902,-2.673,-2.7637,-2.8633,-2.9378,-2.9792,-2.9792,-2.9792,-2.9714,0.0,-2.9714,-2.9714,-2.9624,-2.9714,-2.9792,-2.9792,-2.9792,-2.9792,-2.9792,-2.9792,-2.9792,-2.9792,-2.9792,-2.9792,-2.9792,-2.9792,-2.9714,-2.9546,-2.8633,-2.7718,-2.6823,-2.5913,-2.5179,-2.454,-2.454,-2.4498,-2.4385,-3.2678,-3.338,-3.4312,-3.5133,-3.5279,-3.5294,-3.5504,-3.5504,-3.5504,-3.5504,-3.5504,-3.5504,-3.5504,-3.5504,-3.5504,-3.5504,-3.5684,-3.5804,-3.5804,-3.5804,-3.5363,-3.4398,-3.3648,-3.3171,-3.2816,-3.1942,-3.1119,-3.0444,-3.0088,-2.9946,-2.9946,-2.9869,-2.9869,-2.9869,-2.9792,-2.9792,-2.9792,-2.9792,-2.9792,-2.9792,-2.9792,-2.9792,-2.9792,-2.9792,-2.9792,-2.9792,-2.9792,-2.9792,-2.9792,-2.9792,-2.9792,-2.9792,-2.9792,-2.9792,-2.9792,-2.9792,-2.9792,-2.9792,-2.9792,-2.9792,-2.9624,-2.8882,-2.7879,-2.6894,-2.6152,-2.5902,-2.5986,-2.673,-2.7718,-2.8383,-2.8131,-2.7557,-2.673,-2.5746,-2.4935,-2.454,-2.454,0.0,-2.5913,-2.6812,-2.7718,-2.8621,-2.9534,-2.9702,-2.9792,-2.9792,-2.9792,-2.9456,-2.8712,-2.9378,-2.9456,-2.8712,-2.9378,-2.9792,-2.9792,-2.9792,-2.9792,-2.9792,-2.9792,-2.9792,-2.9792,-2.9792,-2.9792,-2.9792,-2.9792,-2.9378,-2.8621,-2.7718,-2.6823,-2.5913,-2.502,-2.4615,-2.454,-2.454,-2.4302,-2.3971,-3.4192,-3.4558,-3.5052,-3.5439,-3.5504,-3.5504,-3.5504,-3.5504,-3.5504,-3.5504,-3.5504,-3.5504,-3.5504,-3.5504,-3.5504,-3.5504,-3.5504,-3.5439,-3.5359,-3.5439,-3.5133,-3.4163,-3.3478,-3.2563,-3.1589,-3.1071,-3.057,-3.0292,-3.0088,-2.9934,-2.9934,-2.9869,-2.9792,-2.9792,-2.9792,-2.9792,-2.9792,-2.9792,-2.9792,-2.9792,-2.9792,-2.9792,-2.9792,-2.9792,-2.9792,-2.9792,-2.9792,-2.9792,-2.9792,-2.9792,-2.9792,-2.9792,-2.9792,-2.9792,-2.9792,-2.9792,-2.9792,-2.9792,-2.9792,-2.9792,-2.9714,-2.93,-2.8131,-2.6976,-2.6565,-2.6483,-2.6565,-2.6987,-2.8223,-2.904,-2.8621,-2.7718,-2.6812,-2.5902,-2.5105,0.0,0.0,-2.5589,-2.6318,-2.7718,-2.8211,-2.887,-2.9714,-2.9792,-2.9792,-2.9792,-2.9378,-2.8961,-2.8542,-2.8383,-2.8383,-2.8462,-2.9378,-2.9792,-2.9792,-2.9792,-2.9792,-2.9792,-2.9792,-2.9792,-2.9792,-2.9792,-2.9546,-2.9118,-2.9118,-2.8542,-2.7637,-2.673,-2.6152,-2.5746,-2.4861,-2.4395,-2.4188,-2.4188,-2.3898,-2.3474,-3.5213,-3.5359,-3.5504,-3.5504,-3.5504,-3.5504,-3.5504,-3.5504,-3.5504,-3.5504,-3.5504,-3.5504,-3.5504,-3.5504,-3.5504,-3.5504,-3.5504,-3.5439,-3.5294,-3.5439,-3.5067,-3.4177,-3.3199,-3.2074,-3.0748,-3.0444,-3.0292,-3.0292,-3.0075,-3.0011,-3.0011,-2.9869,-2.9792,-2.9792,-2.9792,-2.9792,-2.9792,-2.9792,-2.9792,-2.9792,-2.9792,-2.9792,-2.9792,-2.9792,-2.9792,-2.9792,-2.9792,-2.9792,-2.9792,-2.9792,-2.9792,-2.9792,-2.9792,-2.9792,-2.9792,-2.9792,-2.9792,-2.9792,-2.9792,-2.9792,-2.9792,-2.9546,-2.8462,-2.7395,-2.7151,-2.7232,-2.7395,-2.7395,-2.8712,-2.9624,-2.8961,-2.7891,-2.6894,-2.6235,0.0,0.0,0.0,-2.5986,-2.673,-2.8291,-2.8712,-2.8961,-2.9456,-2.9468,-2.9378,-2.9209,-2.8542,-2.8131,-2.7879,-2.7395,-2.7395,-2.8131,-2.9209,-2.9792,-2.9792,-2.9792,-2.9792,-2.9792,-2.9792,-2.9792,-2.9792,-2.9624,-2.9118,-2.8462,-2.8291,-2.7637,-2.6741,-2.6069,-2.5663,-2.5411,-2.4671,-2.4178,-2.3867,-2.3764,-2.3422,-2.2977,-3.4312,-3.4839,-3.5504,-3.5504,-3.5504,-3.5504,-3.5504,-3.5504,-3.5504,-3.5504,-3.5504,-3.5504,-3.5504,-3.5504,-3.5504,-3.5504,-3.5504,-3.5504,-3.5504,-3.5504,-3.4935,-3.3644,-3.1974,-3.1044,-3.0895,-3.0216,-2.9869,-2.9869,-2.9869,-2.9792,-2.9792,-2.9792,-2.9792,-2.9792,-2.9792,-2.9792,-2.9792,-2.9792,-2.9792,-2.9792,-2.9792,-2.9792,-2.9792,-2.9792,-2.9792,-2.9792,-2.9792,-2.9792,-2.9792,-2.9792,-2.9792,-2.9792,-2.9792,-2.9792,-2.9792,-2.9792,-2.9792,-2.9792,-2.9792,-2.9792,-2.9624,-2.8791,-2.8462,-2.8131,-2.7313,-2.7799,-2.8383,-2.8383,-2.9131,-2.9792,-2.9714,-2.8303,-2.7069,-2.6987,0.0,0.0,-2.5663,-2.6483,-2.7395,-2.8371,-2.9209,-2.9378,-2.8712,-2.8621,-2.8211,-2.7395,-2.7232,-2.6812,-2.6069,-2.673,-2.7151,-2.7232,-2.8882,-2.9792,-2.9792,-2.9792,-2.9792,-2.9792,-2.9792,-2.9792,-2.9792,-2.8961,-2.8542,-2.8462,-2.7557,-2.673,-2.5902,-2.5819,-2.5348,-2.4573,-2.4084,-2.3908,-2.3826,-2.3391,-2.2946,-2.2542,-3.4986,-3.5213,-3.5504,-3.5504,-3.5504,-3.5504,-3.5504,-3.5504,-3.5504,-3.5504,-3.5504,-3.5504,-3.5504,-3.5504,-3.5504,-3.5504,-3.5504,-3.5439,-3.5294,-3.5294,-3.492,-3.4041,-3.2678,-3.1756,-3.1281,-3.0292,-2.9792,-2.9792,-2.9792,-2.9792,-2.9792,-2.9792,-2.9792,-2.9792,-2.9792,-2.9792,-2.9792,-2.9792,-2.9792,-2.9792,-2.9792,-2.9792,-2.9792,-2.9792,-2.9792,-2.9792,-2.9792,-2.9792,-2.9792,-2.9792,-2.9792,-2.9792,-2.9792,-2.9792,-2.9792,-2.9792,-2.9792,-2.9792,-2.9792,-2.9792,-2.9714,-2.9378,-2.887,-2.8383,-2.8051,-2.8211,-2.8462,-2.8462,-2.9209,-2.9624,-2.9118,-2.7971,-2.6894,-2.64,0.0,-2.5031,-2.6412,-2.6894,-2.7637,-2.9131,-2.9624,-2.9456,-2.8542,-2.8462,-2.8131,-2.7151,-2.6565,-2.6152,-2.583,-2.6069,-2.6318,-2.6318,-2.7476,-2.8143,-2.8143,-2.8143,-2.8383,-2.8961,-2.8961,-2.8961,-2.8961,-2.8633,-2.7879,-2.6812,-2.6483,-2.583,-2.4999,-2.4724,-2.4451,-2.4084,-2.3629,-2.3277,-2.2998,-2.2822,-2.247,-2.2066,-3.5504,-3.5504,-3.5504,-3.5504,-3.5504,-3.5504,-3.5504,-3.5504,-3.5504,-3.5504,-3.5504,-3.5504,-3.5504,-3.5504,-3.5504,-3.5504,-3.5504,-3.5439,-3.5294,-3.5228,-3.4854,-3.4109,-3.3115,-3.2119,-3.1355,-3.0292,-2.9792,-2.9792,-2.9792,-2.9792,-2.9792,-2.9792,-2.9792,-2.9792,-2.9792,-2.9792,-2.9792,-2.9792,-2.9792,-2.9792,-2.9792,-2.9792,-2.9792,-2.9792,-2.9792,-2.9792,-2.9792,-2.9792,-2.9792,-2.9792,-2.9792,-2.9792,-2.9792,-2.9792,-2.9792,-2.9792,-2.9792,-2.9792,-2.9792,-2.9792,-2.9792,-2.9792,-2.9378,-2.8882,-2.8882,-2.8882,-2.8882,-2.8882,-2.9378,-2.9624,-2.904,-2.8131,-2.7313,-2.673,-2.5924,-2.5841,-2.7313,-2.7557,-2.7971,-2.9209,-2.9378,-2.8961,-2.7799,-2.7637,-2.7302,-2.6329,-2.5757,-2.5421,-2.5421,-2.5663,-2.5663,-2.5421,-2.6246,-2.6498,-2.6117,-2.6744,-2.7395,-2.8051,-2.8051,-2.7968,-2.7894,-2.7564,-2.6737,-2.5371,-2.5135,-2.467,-2.4095,-2.3784,-2.366,-2.3619,-2.3153,-2.278,-2.248,-2.2335,-2.2076,-2.1807,-3.5504,-3.5504,-3.5504,-3.5504,-3.5504,-3.5504,-3.5504,-3.5504,-3.5504,-3.5504,-3.5504,-3.5504,-3.5504,-3.5504,-3.5504,-3.5504,-3.5504,-3.5504,-3.5504,-3.5294,-3.4706,-3.3506,-3.2791,-3.1928,-3.0895,-3.0216,-2.9792,-2.9792,-2.9792,-2.9792,-2.9792,-2.9792,-2.9792,-2.9792,-2.9792,-2.9792,-2.9792,-2.9792,-2.9792,-2.9792,-2.9792,-2.9792,-2.9792,-2.9792,-2.9792,-2.9792,-2.9792,-2.9792,-2.9792,-2.9792,-2.9792,-2.9792,-2.9792,-2.9792,-2.9792,-2.9792,-2.9792,-2.9792,-2.9792,-2.9792,-2.9792,-2.9792,-2.9792,-2.9792,-2.9792,-2.9792,-2.9792,-2.9792,-2.9792,-2.9792,-2.9792,-2.904,-2.8462,-2.8462,-2.773,-2.7395,-2.8383,-2.8462,-2.8462,-2.8462,-2.8462,-2.7799,-2.5986,-2.5819,-2.5421,-2.454,-2.454,-2.454,-2.454,-2.5348,-2.5421,-2.454,-2.5337,-2.5206,-2.3877,-2.6013,-2.7058,-2.7058,-2.7058,-2.6887,-2.6484,-2.5605,-2.4938,-2.4478,-2.3566,-2.3184,-2.3184,-2.3184,-2.3184,-2.3143,-2.2677,-2.249,-2.2439,-2.1973,-2.1807,-2.1807,-3.5504,-3.5504,-3.5504,-3.5504,-3.5504,-3.5504,-3.5504,-3.5504,-3.5504,-3.5504,-3.5504,-3.5504,-3.5504,-3.5504,-3.5504,-3.5504,-3.5504,-3.5504,-3.5504,-3.4905,-3.4041,-3.2904,-3.2563,-3.1988,-3.1106,-3.0279,-2.9792,-2.9792,-2.9792,-2.9792,-2.9792,-2.9792,-2.9792,-2.9792,-2.9792,-2.9792,-2.9792,-2.9792,-2.9792,-2.9792,-2.9792,-2.9792,-2.9792,-2.9792,-2.9792,-2.9792,-2.9792,-2.9792,-2.9792,-2.9792,-2.9792,-2.9792,-2.9792,-2.9792,-2.9792,-2.9792,-2.9792,-2.9792,-2.9792,-2.9792,-2.9792,-2.9792,-2.9792,-2.9792,-2.9792,-2.9792,-2.9792,-2.9792,-2.9792,-2.9624,-2.904,-2.8712,-2.8291,-2.7637,-2.7313,-2.7395,-2.8383,-2.8462,-2.8462,-2.8462,-2.8462,-2.7799,-2.5986,-2.5819,-2.5421,-2.454,-2.454,-2.454,-2.454,-2.4786,-2.4775,-2.454,-2.4472,-2.4242,-2.3877,-2.4564,-2.5022,-2.5305,-2.5305,-2.5227,-2.5093,-2.4856,-2.4313,-2.3566,-2.3335,-2.3184,-2.3163,-2.2832,-2.2708,-2.2656,-2.219,-2.2014,-2.1994,-2.1859,-2.1807,-2.1807,-3.5504,-3.5504,-3.5504,-3.5504,-3.5504,-3.5504,-3.5504,-3.5504,-3.5504,-3.5504,-3.5504,-3.5504,-3.5504,-3.5504,-3.5504,-3.5504,-3.5504,-3.5439,-3.5359,-3.4839,-3.3891,-3.2522,-3.2349,-3.1783,-3.0696,-3.0075,-2.9792,-2.9792,-2.9792,-2.9792,-2.9792,-2.9792,-2.9792,-2.9792,-2.9792,-2.9792,-2.9792,-2.9792,-2.9792,-2.9792,-2.9792,-2.9792,-2.9792,-2.9792,-2.9792,-2.9792,-2.9792,-2.9792,-2.9792,-2.9792,-2.9792,-2.9792,-2.9792,-2.9792,-2.9792,-2.9792,-2.9792,-2.9792,-2.9792,-2.9792,-2.9792,-2.9792,-2.9792,-2.9792,-2.9792,-2.9792,-2.9792,-2.9792,-2.9792,-2.9624,-2.9131,-2.904,-2.8803,-2.8303,-2.8143,-2.8383,-2.8961,-2.904,-2.8712,-2.8051,-2.7971,-2.7232,-2.5421,-2.5263,-2.5105,-2.454,-2.454,-2.454,-2.454,-2.454,-2.4467,-2.4281,-2.4022,-2.3701,-2.3339,-2.3329,-2.3591,-2.4025,-2.4025,-2.3928,-2.3745,-2.3745,-2.3334,-2.2646,-2.2646,-2.2646,-2.2625,-2.2335,-2.2221,-2.219,-2.1911,-2.1807,-2.1807,-2.1807,-2.1807,-2.1807,-3.5504,-3.5504,-3.5504,-3.5504,-3.5504,-3.5504,-3.5504,-3.5504,-3.5504,-3.5504,-3.5504,-3.5504,-3.5504,-3.5504,-3.5504,-3.5504,-3.5504,-3.5439,-3.5228,-3.5001,-3.4124,-3.2536,-3.2132,-3.1368,-2.9934,-2.9869,-2.9792,-2.9792,-2.9792,-2.9792,-2.9792,-2.9792,-2.9792,-2.9792,-2.9792,-2.9792,-2.9792,-2.9792,-2.9792,-2.9792,-2.9792,-2.9792,-2.9792,-2.9792,-2.9792,-2.9792,-2.9792,-2.9792,-2.9792,-2.9792,-2.9792,-2.9792,-2.9792,-2.9792,-2.9792,-2.9792,-2.9792,-2.9792,-2.9792,-2.9792,-2.9792,-2.9792,-2.9792,-2.9792,-2.9792,-2.9792,-2.9792,-2.9792,-2.9792,-2.9792,-2.9792,-2.9792,-2.9792,-2.9792,-2.9792,-2.9792,-2.9792,-2.9792,-2.9131,-2.7313,-2.7069,-2.6412,-2.4711,-2.454,-2.454,-2.454,-2.454,-2.454,-2.454,-2.454,-2.4333,-2.3888,-2.3836,-2.3391,-2.2501,-2.2449,-2.2646,-2.306,-2.306,-2.2842,-2.2439,-2.2439,-2.2201,-2.1807,-2.1807,-2.1807,-2.1807,-2.1807,-2.1807,-2.1807,-2.1807,-2.1807,-2.1807,-2.1807,-2.1807,-2.1807,-3.5504,-3.5504,-3.5504,-3.5504,-3.5504,-3.5504,-3.5504,-3.5504,-3.5504,-3.5504,-3.5504,-3.5504,-3.5504,-3.5504,-3.5504,-3.5504,-3.5504,-3.5504,-3.5439,-3.4721,-3.4002,-3.3492,-3.2146,-3.1132,-3.0683,-3.0075,-2.9792,-2.9792,-2.9792,-2.9792,-2.9792,-2.9792,-2.9792,-2.9792,-2.9792,-2.9792,-2.9792,-2.9792,-2.9792,-2.9792,-2.9792,-2.9792,-2.9792,-2.9792,-2.9792,-2.9792,-2.9792,-2.9792,-2.9792,-2.9792,-2.9792,-2.9792,-2.9792,-2.9792,-2.9792,-2.9792,-2.9792,-2.9792,-2.9792,-2.9792,-2.9792,-2.9792,-2.9792,-2.9792,-2.9792,-2.9792,-2.9792,-2.9792,-2.9792,-2.9792,-2.9792,-2.9792,-2.9792,-2.9792,-2.9792,-2.9792,-2.9792,-2.9792,-2.9131,-2.7313,-2.7069,-2.6412,-2.4711,-2.454,-2.454,-2.454,-2.454,-2.454,-2.454,-2.454,-2.4333,-2.3888,-2.3525,-2.307,-2.2501,-2.2139,-2.2004,-2.2108,-2.2108,-2.2056,-2.1952,-2.1952,-2.1901,-2.1807,-2.1807,-2.1807,-2.1807,-2.1807,-2.1807,-2.1807,-2.1807,-2.1807,-2.1807,-2.1807,-2.1807,-2.1807,-3.5504,-3.5504,-3.5504,-3.5504,-3.5504,-3.5504,-3.5504,-3.5504,-3.5504,-3.5504,-3.5504,-3.5504,-3.5504,-3.5504,-3.5504,-3.5504,-3.5504,-3.5504,-3.5504,-3.4935,-3.4423,-3.3919,-3.2847,-3.1915,-3.1031,-3.0545,-3.0139,-2.9792,-2.9792,-2.9792,-2.9792,-2.9792,-2.9792,-2.9792,-2.9792,-2.9792,-2.9792,-2.9792,-2.9792,-2.9792,-2.9792,-2.9792,-2.9792,-2.9792,-2.9792,-2.9792,-2.9792,-2.9792,-2.9792,-2.9792,-2.9792,-2.9792,-2.9792,-2.9792,-2.9792,-2.9792,-2.9792,-2.9792,-2.9792,-2.9792,-2.9792,-2.9792,-2.9792,-2.9792,-2.9792,-2.9792,-2.9792,-2.9792,-2.9792,-2.9792,-2.9792,-2.9792,-2.9792,-2.9792,-2.9792,-2.9792,-2.9792,-2.9456,-2.8633,-2.7232,-2.673,-2.5924,-2.4615,-2.454,-2.454,-2.454,-2.454,-2.454,-2.454,-2.454,-2.424,-2.3567,-2.3318,-2.2863,-2.217,-2.1921,-2.1807,-2.1807,-2.1807,-2.1807,-2.1807,-2.1807,-2.1807,-2.1807,-2.1807,-2.1807,-2.1807,-2.1807,-2.1807,-2.1807,-2.1807,-2.1807,-2.1807,-2.1807,-2.1807,-2.1807,-3.5504,-3.5504,-3.5504,-3.5504,-3.5504,-3.5504,-3.5504,-3.5504,-3.5504,-3.5504,-3.5504,-3.5504,-3.5504,-3.5504,-3.5504,-3.5504,-3.5504,-3.5504,-3.5504,-3.5294,-3.492,-3.4177,-3.363,-3.2706,-3.1402,-3.0895,-3.0406,-2.9792,-2.9792,-2.9792,-2.9792,-2.9792,-2.9792,-2.9792,-2.9792,-2.9792,-2.9792,-2.9792,-2.9792,-2.9792,-2.9792,-2.9792,-2.9792,-2.9792,-2.9792,-2.9792,-2.9792,-2.9792,-2.9792,-2.9792,-2.9792,-2.9792,-2.9792,-2.9792,-2.9792,-2.9792,-2.9792,-2.9792,-2.9792,-2.9792,-2.9792,-2.9792,-2.9792,-2.9792,-2.9792,-2.9792,-2.9792,-2.9792,-2.9792,-2.9792,-2.9792,-2.9792,-2.9792,-2.9792,-2.9792,-2.9792,-2.9792,-2.904,-2.8131,-2.7232,-2.6235,-2.5263,-2.454,-2.454,-2.454,-2.454,-2.454,-2.454,-2.454,-2.454,-2.4157,-2.3329,-2.3225,-2.278,-2.1932,-2.1849,-2.1807,-2.1807,-2.1807,-2.1807,-2.1807,-2.1807,-2.1807,-2.1807,-2.1807,-2.1807,-2.1807,-2.1807,-2.1807,-2.1807,-2.1807,-2.1807,-2.1807,-2.1807,-2.1807,-2.1807,-3.5504,-3.5504,-3.5504,-3.5504,-3.5504,-3.5504,-3.5504,-3.5504,-3.5504,-3.5504,-3.5504,-3.5504,-3.5504,-3.5504,-3.5504,-3.5504,-3.5504,-3.5504,-3.5504,-3.5294,-3.5067,-3.4787,-3.3255,-3.2335,-3.2001,-3.0646,-2.9934,-2.9792,-2.9792,-2.9792,-2.9792,-2.9792,-2.9792,-2.9792,-2.9792,-2.9792,-2.9792,-2.9792,-2.9792,-2.9792,-2.9792,-2.9792,-2.9792,-2.9792,-2.9792,-2.9792,-2.9792,-2.9792,-2.9792,-2.9792,-2.9792,-2.9792,-2.9792,-2.9792,-2.9792,-2.9792,-2.9792,-2.9792,-2.9792,-2.9792,-2.9792,-2.9792,-2.9792,-2.9792,-2.9792,-2.9792,-2.9792,-2.9792,-2.9792,-2.9792,-2.9792,-2.9792,-2.9792,-2.9792,-2.9792,-2.9792,-2.9792,-2.904,-2.8131,-2.7232,-2.5684,-2.4615,-2.454,-2.454,-2.454,-2.454,-2.454,-2.454,-2.454,-2.454,-2.4312,-2.3805,-2.3391,-2.2936,-2.2408,-2.2004,-2.1807,-2.1807,-2.1807,-2.1807,-2.1807,-2.1807,-2.1807,-2.1807,-2.1807,-2.1807,-2.1807,-2.1807,-2.1807,-2.1807,-2.1807,-2.1807,-2.1807,-2.1807,-2.1807,-2.1807,-3.5504,-3.5504,-3.5504,-3.5504,-3.5504,-3.5504,-3.5504,-3.5504,-3.5504,-3.5504,-3.5504,-3.5504,-3.5504,-3.5504,-3.5504,-3.5504,-3.5504,-3.5504,-3.5504,-3.5439,-3.5294,-3.5082,-3.4206,-3.3269,-3.2263,-3.1502,-3.0646,-2.9792,-2.9792,-2.9792,-2.9792,-2.9792,-2.9792,-2.9792,-2.9792,-2.9792,-2.9792,-2.9792,-2.9792,-2.9792,-2.9792,-2.9792,-2.9792,-2.9792,-2.9792,-2.9792,-2.9792,-2.9792,-2.9792,-2.9792,-2.9792,-2.9792,-2.9792,-2.9792,-2.9792,-2.9792,-2.9792,-2.9792,-2.9792,-2.9792,-2.9792,-2.9792,-2.9792,-2.9792,-2.9792,-2.9792,-2.9792,-2.9792,-2.9792,-2.9792,-2.9792,-2.9792,-2.9792,-2.9792,-2.9792,-2.9792,-2.9792,-2.904,-2.7959,-2.6565,-2.5263,-2.454,-2.454,-2.454,-2.454,-2.454,-2.454,-2.454,-2.454,-2.454,-2.4333,-2.3888,-2.3422,-2.2967,-2.2501,-2.2035,-2.1807,-2.1807,-2.1807,-2.1807,-2.1807,-2.1807,-2.1807,-2.1807,-2.1807,-2.1807,-2.1807,-2.1807,-2.1807,-2.1807,-2.1655,-2.1655,-2.1655,-2.1731,-2.1807,-2.1807]},{"header":{"parameterUnit":"m.s-1","parameterCategory":1,"la1":30.6,"la2":28.766,"lo1":-90.7593,"lo2":-88.6598,"dy":0.0162,"dx":0.0183,"nx":116,"ny":114,"refTime":"2023-08-04T06:00:00:Z","depth":0,"parameterNumber":3,"parameterNumberName":"V-component_of_WINDS"},"data":[0.0,0.0,0.0,0.0,0.0,0.0,0.0,0.0,0.0,0.0,0.0,0.0,0.0,0.0,0.0,0.0,0.0,0.0,0.0,0.0,0.0,0.0,0.0,0.0,0.0,0.0,0.0,0.0,0.0,0.0,0.0,0.0,0.0,0.0,0.0,0.0,0.0,0.0,0.0,0.0,0.0,0.0,0.0,0.0,0.0,0.0,0.0,0.0,0.0,0.0,0.0,0.0,0.0,0.0,0.0,0.0,0.0,0.0,0.0,0.0,0.0,0.0,0.0,0.0,0.0,0.0,0.0,0.0,0.0,0.0,0.0,0.0,0.0,0.0,0.0,0.0,0.0,0.0,0.0,0.0,0.0,0.0,0.0,0.0,0.0,0.0,0.0,0.0,0.0,0.0,0.0,0.0,0.0,0.0,0.0,0.0,0.0,0.0,0.0,0.0,0.0,0.0,0.0,0.0,0.0,0.0,0.0,0.0,0.0,0.0,0.0,0.0,0.0,0.0,0.0,0.0,0.0,0.0,0.0,0.0,0.0,0.0,0.0,0.0,0.0,0.0,0.0,0.0,0.0,0.0,0.0,0.0,0.0,0.0,0.0,0.0,0.0,0.0,0.0,0.0,0.0,0.0,0.0,0.0,0.0,0.0,0.0,0.0,0.0,0.0,0.0,0.0,0.0,0.0,0.0,0.0,0.0,0.0,0.0,0.0,0.0,0.0,0.0,0.0,0.0,0.0,0.0,0.0,0.0,0.0,0.0,0.0,0.0,0.0,0.0,0.0,0.0,0.0,0.0,0.0,0.0,0.0,0.0,0.0,0.0,0.0,0.0,0.0,0.0,0.0,0.0,0.0,0.0,0.0,0.0,0.0,0.0,0.0,0.0,0.0,0.0,0.0,0.0,0.0,0.0,0.0,0.0,0.0,0.0,0.0,0.0,0.0,0.0,0.0,0.0,0.0,0.0,0.0,0.0,0.0,0.0,0.0,0.0,0.0,0.0,0.0,0.0,0.0,0.0,0.0,0.0,0.0,0.0,0.0,0.0,0.0,0.0,0.0,0.0,0.0,0.0,0.0,0.0,0.0,0.0,0.0,0.0,0.0,0.0,0.0,0.0,0.0,0.0,0.0,0.0,0.0,0.0,0.0,0.0,0.0,0.0,0.0,0.0,0.0,0.0,0.0,0.0,0.0,0.0,0.0,0.0,0.0,0.0,0.0,0.0,0.0,0.0,0.0,0.0,0.0,0.0,0.0,0.0,0.0,0.0,0.0,0.0,0.0,0.0,0.0,0.0,0.0,0.0,0.0,0.0,0.0,0.0,0.0,0.0,0.0,0.0,0.0,0.0,0.0,0.0,0.0,0.0,0.0,0.0,0.0,0.0,0.0,0.0,0.0,0.0,0.0,0.0,0.0,0.0,0.0,0.0,0.0,0.0,0.0,0.0,0.0,0.0,0.0,0.0,0.0,0.0,0.0,0.0,0.0,0.0,0.0,0.0,0.0,0.0,0.0,0.0,0.0,0.0,0.0,0.0,0.0,0.0,0.0,0.0,0.0,0.0,0.0,0.0,0.0,0.0,0.0,0.0,0.0,0.0,0.0,0.0,0.0,0.0,0.0,0.0,0.0,0.0,0.0,0.0,0.0,0.0,0.0,0.0,0.0,0.0,0.0,0.0,0.0,0.0,0.0,0.0,0.0,0.0,0.0,0.0,0.0,0.0,0.0,0.0,0.0,0.0,0.0,0.0,0.0,0.0,0.0,0.0,0.0,0.0,0.0,0.0,0.0,0.0,0.0,0.0,0.0,0.0,0.0,0.0,0.0,0.0,0.0,0.0,0.0,0.0,0.0,0.0,0.0,0.0,0.0,0.0,0.0,0.0,0.0,0.0,0.0,0.0,0.0,0.0,0.0,0.0,0.0,0.0,0.0,0.0,0.0,0.0,0.0,0.0,0.0,0.0,0.0,0.0,0.0,0.0,0.0,0.0,0.0,0.0,0.0,0.0,0.0,0.0,0.0,0.0,0.0,0.0,0.0,0.0,0.0,0.0,0.0,0.0,0.0,0.0,0.0,0.0,0.0,0.0,0.0,0.0,0.0,0.0,0.0,0.0,0.0,0.0,0.0,0.0,0.0,0.0,0.0,0.0,0.0,0.0,0.0,0.0,0.0,0.0,0.0,0.0,0.0,0.0,0.0,0.0,0.0,0.0,0.0,0.0,0.0,0.0,0.0,0.0,0.0,0.0,0.0,0.0,0.0,0.0,0.0,0.0,0.0,0.0,0.0,0.0,0.0,0.0,0.0,0.0,0.0,0.0,0.0,0.0,0.0,0.0,0.0,0.0,0.0,0.0,0.0,0.0,0.0,0.0,0.0,0.0,0.0,0.0,0.0,0.0,0.0,0.0,0.0,0.0,0.0,0.0,0.0,0.0,0.0,0.0,0.0,0.0,0.0,0.0,0.0,0.0,0.0,0.0,0.0,0.0,0.0,0.0,0.0,0.0,0.0,0.0,0.0,0.0,0.0,0.0,0.0,0.0,0.0,0.0,0.0,0.0,0.0,0.0,0.0,0.0,0.0,0.0,0.0,0.0,0.0,0.0,0.0,0.0,0.0,0.0,0.0,0.0,0.0,0.0,0.0,0.0,0.0,0.0,0.0,0.0,0.0,0.0,0.0,0.0,0.0,0.0,0.0,0.0,0.0,0.0,0.0,0.0,0.0,0.0,0.0,0.0,0.0,0.0,0.0,0.0,0.0,0.0,0.0,0.0,0.0,0.0,0.0,0.0,0.0,0.0,0.0,0.0,0.0,0.0,0.0,0.0,0.0,0.0,0.0,0.0,0.0,0.0,0.0,0.0,0.0,0.0,0.0,0.0,0.0,0.0,0.0,0.0,0.0,0.0,0.0,0.0,0.0,0.0,0.0,0.0,0.0,0.0,0.0,0.0,0.0,0.0,0.0,0.0,0.0,0.0,0.0,0.0,0.0,0.0,0.0,0.0,0.0,0.0,0.0,0.0,0.0,0.0,0.0,0.0,0.0,0.0,0.0,0.0,0.0,0.0,0.0,0.0,0.0,0.0,0.0,0.0,0.0,0.0,0.0,0.0,0.0,0.0,0.0,0.0,0.0,0.0,0.0,0.0,0.0,0.0,0.0,0.0,0.0,0.0,0.0,0.0,0.0,0.0,0.0,0.0,0.0,0.0,0.0,0.0,0.0,0.0,0.0,0.0,0.0,0.0,0.0,0.0,0.0,0.0,0.0,0.0,0.0,0.0,0.0,0.0,0.0,0.0,0.0,0.0,0.0,0.0,0.0,0.0,0.0,0.0,0.0,0.0,0.0,0.0,0.0,0.0,0.0,0.0,0.0,0.0,0.0,0.0,0.0,0.0,0.0,0.0,0.0,0.0,0.0,0.0,0.0,0.0,0.0,0.0,0.0,0.0,0.0,0.0,0.0,0.0,0.0,0.0,0.0,0.0,0.0,0.0,0.0,0.0,0.0,0.0,0.0,0.0,0.0,0.0,0.0,0.0,0.0,0.0,0.0,0.0,0.0,0.0,0.0,0.0,0.0,0.0,0.0,0.0,0.0,0.0,0.0,0.0,0.0,0.0,0.0,0.0,0.0,0.0,0.0,0.0,0.0,0.0,0.0,0.0,0.0,0.0,0.0,0.0,0.0,0.0,0.0,0.0,0.0,0.0,0.0,0.0,0.0,0.0,0.0,0.0,0.0,0.0,0.0,0.0,0.0,0.0,0.0,0.0,0.0,0.0,0.0,0.0,0.0,0.0,0.0,0.0,0.0,0.0,0.0,0.0,0.0,0.0,0.0,0.0,0.0,0.0,0.0,0.0,0.0,0.0,0.0,0.0,0.0,0.0,0.0,0.0,0.0,0.0,0.0,0.0,0.0,0.0,0.0,0.0,0.0,0.0,0.0,0.0,0.0,0.0,0.0,0.0,0.0,0.0,0.0,0.0,0.0,0.0,0.0,0.0,0.0,0.0,0.0,0.0,0.0,0.0,0.0,0.0,0.0,0.0,0.0,0.0,0.0,0.0,0.0,0.0,0.0,0.0,0.0,0.0,0.0,0.0,0.0,0.0,0.0,0.0,0.0,0.0,0.0,0.0,0.0,0.0,0.0,0.0,0.0,0.0,0.0,0.0,0.0,0.0,0.0,0.0,0.0,0.0,0.0,0.0,0.0,0.0,0.0,0.0,0.0,0.0,0.0,0.0,0.0,0.0,0.0,0.0,0.0,0.0,0.0,0.0,0.0,0.0,0.0,0.0,0.0,0.0,0.0,0.0,0.0,0.0,0.0,0.0,0.0,0.0,0.0,0.0,0.0,0.0,0.0,0.0,0.0,0.0,0.0,0.0,0.0,0.0,0.0,0.0,0.0,0.0,0.0,0.0,0.0,0.0,0.0,0.0,0.0,0.0,0.0,0.0,0.0,0.0,0.0,0.0,0.0,0.0,0.0,0.0,0.0,0.0,0.0,0.0,0.0,0.0,0.0,0.0,0.0,0.0,0.0,0.0,0.0,0.0,0.0,0.0,0.0,0.0,0.0,0.0,0.0,0.0,0.0,0.0,0.0,0.0,0.0,0.0,0.0,0.0,0.0,0.0,0.0,0.0,0.0,0.0,0.0,0.0,0.0,0.0,0.0,0.0,0.0,0.0,0.0,0.0,0.0,0.0,0.0,0.0,0.0,0.0,0.0,0.0,0.0,0.0,0.0,0.0,0.0,0.0,0.0,0.0,0.0,0.0,0.0,0.0,0.0,0.0,0.0,0.0,0.0,0.0,0.0,0.0,0.0,0.0,0.0,0.0,0.0,0.0,0.0,0.0,0.0,0.0,0.0,0.0,0.0,0.0,0.0,0.0,0.0,0.0,0.0,0.0,0.0,0.0,0.0,0.0,0.0,0.0,0.0,0.0,0.0,0.0,0.0,0.0,0.0,0.0,0.0,0.0,0.0,0.0,0.0,0.0,0.0,0.0,0.0,0.0,0.0,0.0,0.0,0.0,0.0,0.0,0.0,0.0,0.0,0.0,0.0,0.0,0.0,0.0,0.0,0.0,0.0,0.0,0.0,0.0,0.0,0.0,0.0,0.0,0.0,0.0,0.0,0.0,0.0,0.0,0.0,0.0,0.0,0.0,0.0,0.0,0.0,0.0,0.0,0.0,0.0,0.0,0.0,0.0,0.0,0.0,0.0,0.0,0.0,0.0,0.0,0.0,0.0,0.0,0.0,0.0,0.0,0.0,0.0,0.0,0.0,0.0,0.0,0.0,0.0,0.0,0.0,0.0,0.0,0.0,0.0,0.0,0.0,0.0,0.0,0.0,0.0,0.0,0.0,0.0,0.0,0.0,0.0,0.0,0.0,0.0,0.0,0.0,0.0,0.0,0.0,0.0,0.0,0.0,0.0,0.0,0.0,0.0,0.0,0.0,0.0,0.0,0.0,0.0,0.0,0.0,0.0,0.0,0.0,0.0,0.0,0.0,0.0,0.0,0.0,0.0,0.0,0.0,0.0,0.0,0.0,0.0,0.0,0.0,0.0,0.0,0.0,0.0,0.0,0.0,0.0,0.0,0.0,0.0,0.0,0.0,0.0,0.0,0.0,0.0,0.0,0.0,0.0,0.0,0.0,0.0,0.0,0.0,0.0,0.0,0.0,0.0,0.0,0.0,0.0,0.0,0.0,0.0,0.0,0.0,0.0,0.0,0.0,0.0,0.0,0.0,0.0,0.0,0.0,0.0,0.0,0.0,0.0,0.0,0.0,0.0,0.0,0.0,0.0,0.0,0.0,0.0,0.0,0.0,0.0,0.0,0.0,0.0,0.0,0.0,0.0,0.0,0.0,0.0,0.0,0.0,0.0,0.0,0.0,0.0,0.0,0.0,0.0,0.0,0.0,0.0,0.0,0.0,0.0,0.0,0.0,0.0,0.0,0.0,0.0,0.0,0.0,0.0,0.0,0.0,0.0,0.0,0.0,0.0,0.0,0.0,0.0,0.0,0.0,0.0,0.0,0.0,0.0,0.0,0.0,0.0,0.0,0.0,0.0,0.0,0.0,0.0,0.0,0.0,0.0,0.0,0.0,0.0,0.0,0.0,0.0,0.0,0.0,-2.891,0.0,0.0,0.0,0.0,0.0,0.0,0.0,0.0,0.0,0.0,0.0,0.0,0.0,0.0,0.0,0.0,0.0,0.0,0.0,0.0,0.0,0.0,0.0,0.0,0.0,0.0,0.0,0.0,0.0,0.0,0.0,0.0,0.0,0.0,0.0,0.0,0.0,0.0,0.0,0.0,0.0,0.0,0.0,0.0,0.0,0.0,0.0,0.0,0.0,0.0,0.0,0.0,0.0,0.0,0.0,0.0,0.0,0.0,0.0,0.0,0.0,0.0,0.0,0.0,0.0,0.0,0.0,0.0,0.0,0.0,0.0,0.0,0.0,0.0,0.0,0.0,0.0,0.0,0.0,0.0,0.0,0.0,0.0,0.0,0.0,0.0,0.0,0.0,0.0,0.0,0.0,0.0,0.0,0.0,0.0,0.0,0.0,0.0,0.0,0.0,0.0,0.0,0.0,0.0,0.0,0.0,0.0,0.0,0.0,0.0,0.0,0.0,0.0,0.0,0.0,0.0,-2.9749,0.0,0.0,0.0,0.0,0.0,0.0,0.0,0.0,0.0,0.0,0.0,0.0,0.0,0.0,0.0,0.0,0.0,0.0,0.0,0.0,0.0,0.0,0.0,0.0,0.0,0.0,0.0,0.0,0.0,0.0,0.0,0.0,0.0,0.0,0.0,0.0,0.0,0.0,0.0,0.0,0.0,0.0,0.0,0.0,0.0,0.0,0.0,0.0,0.0,0.0,0.0,0.0,0.0,0.0,0.0,0.0,0.0,0.0,0.0,0.0,0.0,0.0,0.0,0.0,0.0,0.0,0.0,0.0,0.0,0.0,0.0,0.0,0.0,0.0,0.0,0.0,0.0,0.0,0.0,0.0,0.0,0.0,0.0,0.0,0.0,0.0,0.0,0.0,0.0,0.0,0.0,0.0,0.0,0.0,0.0,0.0,0.0,0.0,0.0,0.0,0.0,0.0,0.0,0.0,0.0,0.0,0.0,0.0,-2.6607,-2.7169,-2.7474,-2.7662,-2.8143,-2.9002,-2.984,-3.0216,-3.0216,0.0,0.0,0.0,0.0,0.0,0.0,0.0,0.0,0.0,0.0,0.0,0.0,0.0,0.0,0.0,0.0,0.0,0.0,0.0,0.0,0.0,0.0,0.0,0.0,0.0,0.0,0.0,0.0,0.0,0.0,0.0,0.0,0.0,0.0,0.0,0.0,0.0,0.0,0.0,-2.8069,-2.8069,-2.8115,-2.8207,0.0,0.0,0.0,0.0,0.0,0.0,0.0,0.0,0.0,0.0,0.0,0.0,0.0,0.0,0.0,0.0,0.0,0.0,0.0,0.0,0.0,0.0,0.0,0.0,0.0,0.0,0.0,0.0,0.0,0.0,0.0,0.0,0.0,0.0,0.0,0.0,0.0,0.0,0.0,0.0,0.0,0.0,0.0,0.0,-2.3588,-2.316,0.0,0.0,0.0,0.0,0.0,0.0,0.0,0.0,0.0,0.0,0.0,0.0,0.0,0.0,-2.4295,-2.4688,-2.546,-2.6597,-2.7652,-2.8236,-2.8527,-2.9371,-2.984,-3.0034,-3.0125,0.0,-3.0216,-3.0216,0.0,0.0,0.0,0.0,0.0,0.0,0.0,0.0,0.0,0.0,0.0,0.0,0.0,0.0,0.0,0.0,0.0,0.0,0.0,0.0,0.0,0.0,0.0,0.0,0.0,0.0,0.0,0.0,0.0,0.0,0.0,0.0,0.0,0.0,0.0,0.0,-2.7294,-2.7059,-2.6802,-2.6802,-2.6959,-2.7126,-2.7329,-2.7651,-2.806,-2.7802,0.0,0.0,0.0,0.0,0.0,0.0,0.0,0.0,0.0,0.0,0.0,0.0,0.0,0.0,0.0,0.0,0.0,0.0,0.0,0.0,0.0,0.0,0.0,0.0,0.0,0.0,0.0,0.0,0.0,0.0,0.0,0.0,0.0,0.0,0.0,0.0,0.0,0.0,0.0,-2.3776,-2.3451,-2.2869,-2.298,-2.2963,0.0,0.0,0.0,0.0,0.0,0.0,0.0,0.0,0.0,-2.2846,-2.3529,-2.4205,-2.4894,-2.6234,-2.7179,-2.7851,-2.8888,-2.9463,-2.9566,-3.0023,-3.0216,-3.0216,-3.0216,-3.0397,-3.0758,-3.0397,-3.0487,-3.0847,0.0,0.0,0.0,0.0,0.0,-3.1404,0.0,0.0,0.0,0.0,0.0,0.0,0.0,0.0,0.0,0.0,0.0,0.0,0.0,0.0,0.0,0.0,0.0,0.0,0.0,0.0,0.0,0.0,0.0,0.0,0.0,0.0,0.0,0.0,-2.6409,-2.6234,-2.5895,-2.5895,-2.6063,-2.6362,-2.6445,-2.7194,-2.8299,-2.7943,-2.7793,0.0,0.0,0.0,0.0,0.0,0.0,0.0,0.0,0.0,0.0,0.0,0.0,0.0,0.0,0.0,0.0,0.0,0.0,0.0,0.0,0.0,0.0,0.0,0.0,0.0,0.0,0.0,0.0,0.0,0.0,0.0,0.0,0.0,0.0,0.0,0.0,0.0,0.0,-2.3451,-2.3169,-2.2713,-2.28,-2.286,0.0,0.0,0.0,0.0,0.0,0.0,-2.2644,-2.2644,-2.2745,-2.3147,-2.4106,-2.4982,-2.5868,-2.7568,-2.8609,-2.9095,-2.984,-3.0216,-3.0216,-3.0216,-3.0216,-3.0216,-3.0397,-3.0758,-3.1306,-3.0668,-3.0937,-3.156,-3.156,-3.1499,-3.1527,-3.2135,-3.2008,-3.159,0.0,0.0,0.0,0.0,0.0,0.0,0.0,0.0,0.0,0.0,0.0,0.0,0.0,0.0,0.0,0.0,0.0,0.0,0.0,0.0,0.0,0.0,0.0,0.0,0.0,0.0,0.0,-2.5939,-2.5939,-2.5917,-2.5895,-2.5895,-2.5895,-2.5979,-2.6373,-2.682,-2.73,-2.7277,-2.7265,-2.7265,0.0,0.0,0.0,0.0,0.0,0.0,0.0,0.0,0.0,0.0,0.0,0.0,0.0,0.0,0.0,0.0,0.0,0.0,0.0,0.0,0.0,0.0,0.0,0.0,0.0,0.0,0.0,0.0,0.0,0.0,0.0,0.0,0.0,0.0,0.0,0.0,0.0,0.0,0.0,-2.2552,-2.2561,0.0,0.0,0.0,0.0,-2.2644,-2.2644,-2.2644,-2.2644,-2.2644,-2.2946,-2.3628,-2.451,-2.5761,-2.7494,-2.8247,-2.9187,-3.0125,-3.0216,-3.0216,-3.0216,-3.0216,-3.0216,-3.0216,-3.0937,-3.1306,-3.1306,-3.1306,-3.1637,-3.2227,-3.2227,-3.1908,-3.1491,-3.1637,-3.186,-3.2011,0.0,0.0,0.0,0.0,0.0,0.0,0.0,0.0,0.0,0.0,0.0,0.0,0.0,0.0,0.0,0.0,0.0,0.0,0.0,0.0,0.0,0.0,0.0,0.0,0.0,0.0,-2.4967,-2.4967,-2.4967,-2.4967,-2.4967,-2.4967,-2.5306,-2.5895,-2.6063,-2.655,-2.7231,-2.7231,-2.7231,-2.7231,-2.7231,-2.7464,0.0,0.0,0.0,0.0,0.0,0.0,0.0,0.0,0.0,0.0,0.0,0.0,0.0,0.0,0.0,0.0,0.0,0.0,0.0,0.0,0.0,0.0,0.0,0.0,0.0,0.0,0.0,0.0,0.0,0.0,0.0,0.0,0.0,0.0,0.0,0.0,0.0,-2.2644,-2.2644,0.0,-2.2644,-2.2644,-2.2644,-2.2644,-2.2644,-2.2644,-2.2644,-2.3038,-2.3628,-2.4402,-2.5858,-2.72,-2.8258,-2.9187,-2.9852,-3.0216,-3.0216,-3.0216,-3.0216,-3.0216,-3.0216,-3.0216,-3.0937,-3.1548,-3.1977,-3.2438,-3.2785,-3.2993,-3.2616,-3.2402,-3.2196,-3.1873,-3.1771,-3.1748,0.0,0.0,0.0,0.0,0.0,0.0,0.0,0.0,0.0,0.0,0.0,0.0,0.0,0.0,0.0,0.0,0.0,0.0,0.0,0.0,0.0,0.0,0.0,0.0,0.0,-2.454,-2.454,-2.454,-2.454,-2.454,-2.454,-2.454,-2.4796,-2.5475,-2.5728,-2.6229,-2.682,-2.7301,-2.7383,-2.7231,-2.7464,-2.7777,-2.8215,0.0,0.0,0.0,0.0,0.0,0.0,0.0,0.0,0.0,0.0,0.0,0.0,0.0,0.0,0.0,0.0,0.0,0.0,0.0,0.0,0.0,0.0,0.0,0.0,0.0,0.0,0.0,0.0,0.0,0.0,0.0,0.0,0.0,0.0,0.0,-2.2644,-2.2644,-2.2644,-2.2644,-2.2644,-2.2644,-2.2644,-2.2644,-2.2644,-2.2644,-2.2644,-2.3429,-2.4304,-2.5178,-2.6904,-2.8247,-2.8921,-2.9749,-3.0216,-3.0216,-3.0216,-3.0216,-3.0216,-3.0487,-3.0578,-3.0578,-3.156,-3.2251,-3.276,-3.3458,-3.3623,-3.3431,-3.3034,-3.2778,-3.262,-3.22,-3.1912,-3.185,0.0,0.0,0.0,0.0,0.0,0.0,0.0,0.0,0.0,0.0,0.0,0.0,0.0,0.0,0.0,0.0,0.0,0.0,0.0,0.0,0.0,0.0,0.0,0.0,-2.454,-2.454,-2.454,-2.454,-2.454,-2.454,-2.454,-2.454,-2.454,-2.454,-2.5475,-2.5906,-2.5979,-2.7522,-2.7777,-2.7313,-2.7938,-2.8259,-2.8327,0.0,0.0,0.0,0.0,0.0,0.0,0.0,0.0,0.0,0.0,0.0,0.0,0.0,0.0,0.0,0.0,0.0,0.0,0.0,0.0,0.0,0.0,0.0,0.0,0.0,0.0,0.0,0.0,0.0,0.0,0.0,0.0,0.0,-2.1725,-2.2232,-2.2644,-2.2644,-2.2644,-2.2644,-2.2644,-2.2644,-2.2644,-2.2644,-2.2644,-2.2644,-2.2644,-2.3809,-2.4875,-2.5751,-2.7463,-2.8702,-2.9485,-2.9943,-3.0216,-3.0216,-3.0216,-3.0216,-3.0216,-3.0937,-3.1306,-3.1395,-3.2785,-3.3386,-3.3445,-3.4121,-3.4058,-3.3561,-3.3561,-3.3195,-3.2673,-3.2468,-3.2259,-3.22,0.0,0.0,0.0,0.0,0.0,0.0,0.0,0.0,0.0,0.0,0.0,0.0,0.0,0.0,0.0,0.0,0.0,0.0,0.0,0.0,0.0,0.0,0.0,0.0,-2.454,-2.454,-2.454,-2.454,-2.454,-2.454,-2.454,-2.454,-2.47,-2.5031,-2.5285,-2.5549,-2.5979,-2.7174,-2.7568,-2.7499,-2.845,-2.9094,-2.9496,0.0,0.0,0.0,0.0,0.0,0.0,0.0,0.0,0.0,0.0,0.0,0.0,0.0,0.0,0.0,0.0,0.0,0.0,0.0,0.0,0.0,0.0,0.0,0.0,0.0,0.0,0.0,0.0,0.0,0.0,0.0,0.0,-2.2342,-2.2342,-2.2544,-2.2644,-2.2644,-2.2644,-2.2644,-2.2644,-2.2644,-2.2644,-2.2644,-2.2644,-2.2846,-2.3338,-2.4688,-2.5848,-2.701,-2.8434,-2.9474,-3.0034,-3.0125,-3.0216,-3.0216,-3.0216,-3.0487,-3.1026,-3.1217,-3.156,-3.2064,-3.3031,-3.3157,-3.2764,-3.355,-3.347,-3.2934,-3.2934,-3.2581,-3.2006,-3.1583,-3.1702,-3.22,0.0,0.0,0.0,0.0,0.0,0.0,0.0,0.0,0.0,0.0,0.0,0.0,0.0,0.0,0.0,0.0,0.0,0.0,0.0,0.0,0.0,0.0,0.0,-2.5189,-2.56,-2.5263,-2.5189,-2.56,-2.5189,-2.502,-2.502,-2.47,-2.4625,-2.4956,-2.5115,-2.5369,-2.5717,-2.7151,-2.7787,-2.7947,-2.916,-2.9806,-2.996,-2.9806,-3.0203,-3.0836,-3.0355,-2.996,-2.9729,-2.9406,0.0,0.0,0.0,0.0,0.0,0.0,0.0,0.0,0.0,0.0,0.0,0.0,0.0,0.0,0.0,0.0,0.0,0.0,0.0,0.0,0.0,0.0,0.0,0.0,-2.2937,-2.2745,-2.2644,-2.2644,-2.2644,-2.2644,-2.2644,-2.2644,-2.2644,-2.2644,-2.2745,-2.3038,-2.3038,-2.3429,-2.4115,-2.5654,-2.6809,-2.7589,-2.9002,-2.9943,-3.0216,-3.0216,-3.0216,-3.0216,-3.0216,-3.0578,-3.1306,-3.1548,-3.2064,0.0,-3.3229,-3.3283,-3.2949,-3.3138,-3.2868,0.0,0.0,0.0,0.0,0.0,-3.185,-3.2417,0.0,0.0,0.0,0.0,0.0,0.0,0.0,0.0,0.0,0.0,0.0,0.0,0.0,0.0,0.0,0.0,0.0,0.0,0.0,0.0,0.0,-2.7464,-2.6483,-2.6318,-2.7058,-2.6318,-2.6318,-2.7069,-2.6246,-2.5902,-2.5902,-2.5105,-2.4786,-2.4786,-2.5189,-2.5443,-2.5527,-2.7371,-2.8267,-2.8585,-2.9883,-3.0279,-3.0114,-3.0533,-3.0698,-3.0698,-3.0444,-3.005,-2.9419,-2.9028,0.0,0.0,0.0,0.0,0.0,0.0,0.0,0.0,0.0,0.0,0.0,0.0,0.0,0.0,0.0,0.0,0.0,0.0,0.0,0.0,0.0,0.0,0.0,0.0,-2.3429,-2.2929,-2.2837,-2.2745,-2.2644,-2.2644,-2.2644,-2.2644,-2.2644,-2.2644,-2.3038,-2.3628,-2.3827,-2.4214,-2.4992,0.0,0.0,0.0,0.0,-3.0216,-3.0216,-3.0216,-3.0216,-3.0306,-3.0306,-3.0758,-3.156,-3.2079,-3.2746,-3.3441,-3.3485,-3.3456,-3.3352,-3.2816,-3.2254,-3.1744,-3.1744,-3.1744,-3.1832,-3.2112,-3.2417,0.0,0.0,0.0,0.0,0.0,0.0,0.0,0.0,0.0,0.0,0.0,0.0,0.0,0.0,0.0,0.0,0.0,0.0,0.0,0.0,0.0,-2.7232,-2.7151,-2.6987,-2.6812,-2.6894,-2.6648,-2.6577,-2.6599,-2.6434,-2.6423,-2.6565,-2.64,-2.6412,-2.6577,-2.6659,-2.6741,-2.6823,-2.8131,-2.87,-2.8779,-2.9973,-3.0596,-3.0748,-3.052,-3.0533,-3.0698,-3.0444,-3.0292,-3.0203,-2.9908,-2.9275,-2.8554,-2.8303,0.0,0.0,0.0,0.0,0.0,0.0,0.0,0.0,0.0,0.0,0.0,0.0,0.0,0.0,0.0,0.0,0.0,0.0,0.0,0.0,-2.5499,-2.4412,-2.3719,-2.4402,-2.3429,-2.2644,-2.2644,-2.2644,-2.2644,-2.2644,-2.3138,-2.3529,-2.3728,-2.4313,-2.4992,-2.579,-2.6935,0.0,-2.8445,-2.9566,-3.0216,-3.0216,-3.0216,-3.0487,-3.1116,0.0,0.0,-3.2945,-3.2638,-3.2867,-3.3554,-3.3036,-3.2607,-3.2176,-3.2058,-3.1819,-3.1655,-3.1655,-3.1655,-3.1716,-3.2314,-3.2632,-3.2775,0.0,0.0,0.0,0.0,0.0,0.0,0.0,0.0,0.0,0.0,0.0,0.0,0.0,0.0,0.0,0.0,0.0,0.0,0.0,-2.8438,-2.8291,-2.8609,-2.7959,-2.7557,-2.7452,-2.7383,-2.7232,-2.7162,-2.7162,-2.7244,-2.7302,-2.6412,-2.6329,-2.6894,-2.6483,-2.6565,-2.7151,-2.8211,-2.8712,-2.8882,-2.9754,-3.0305,-3.0672,-3.0368,-3.0305,-3.0381,-3.0152,-3.0075,-3.0075,-3.0011,-2.9689,-2.9287,-2.9209,-2.8803,-2.8383,0.0,0.0,0.0,0.0,0.0,0.0,0.0,0.0,0.0,0.0,0.0,0.0,0.0,0.0,-2.4448,0.0,0.0,-2.5596,-2.5994,-2.5411,-2.4913,-2.4894,-2.4205,-2.3628,-2.3238,-2.2846,-2.2644,-2.2644,-2.3238,-2.3827,-2.4313,-2.5001,-2.5974,-2.704,-2.7788,-2.8445,-2.9106,-2.984,-3.0216,-3.0216,-3.0216,-3.0578,-3.1306,-3.1306,-3.1855,-3.2954,-3.2663,-3.2713,-3.3104,-3.2515,-3.211,-3.1823,-3.1535,-3.1386,-3.1347,-3.1703,-3.185,-3.1909,-3.2489,-3.2704,-3.2775,0.0,0.0,0.0,0.0,0.0,0.0,0.0,0.0,0.0,0.0,0.0,0.0,0.0,0.0,0.0,0.0,0.0,0.0,0.0,-2.9406,-2.9431,-3.0075,-2.9028,-2.8371,-2.8267,-2.7959,-2.7799,-2.7983,-2.773,-2.781,-2.8051,-2.6588,-2.6505,-2.7383,-2.6648,-2.6812,-2.7649,-2.8462,-2.887,-2.904,-2.9546,-3.0011,-3.0292,-3.0075,-3.0152,-3.0292,-3.0075,-3.0139,-3.0228,-3.0075,-2.9998,-2.9998,-2.9869,-2.9792,-2.9624,-2.8961,-2.8712,0.0,0.0,0.0,0.0,0.0,0.0,0.0,0.0,0.0,-2.4374,-2.4185,-2.4496,-2.5065,-2.5425,-2.5934,-2.6284,-2.6284,-2.6197,-2.5897,-2.5479,-2.5089,-2.4698,-2.4223,-2.3529,-2.2937,-2.2644,-2.3529,-2.4412,-2.4894,-2.579,-2.686,-2.7904,-2.8445,-2.8921,-2.9485,-2.9943,-3.0216,-3.0216,-3.0306,-3.0758,-3.1472,-3.1541,-3.1958,-3.2702,-3.2472,-3.2452,-3.2489,-3.1914,-3.1679,-3.164,-3.1169,-3.1061,-3.1198,-3.1982,-3.2331,-3.2403,-3.2832,-3.2974,-3.3044,0.0,0.0,0.0,0.0,0.0,0.0,0.0,0.0,0.0,0.0,0.0,0.0,0.0,0.0,0.0,0.0,0.0,0.0,-3.0609,-3.0368,-3.0216,-3.0075,-2.9779,-2.9378,-2.8961,-2.8211,-2.7983,-2.8419,-2.7672,-2.7834,-2.8961,-2.8724,-2.8973,-2.9456,-2.9378,-2.9378,-2.9468,-2.9624,-2.9702,-2.9702,-2.9792,0.0,-2.9869,-2.9869,-3.0368,-3.1084,-3.0833,-3.1267,-3.1723,-3.1044,-3.0758,-3.0683,-2.9998,-2.9792,-2.9792,-2.9702,0.0,-2.9624,-2.9546,-2.8961,-2.8131,-2.7151,-2.64,-2.5735,0.0,0.0,-2.4475,-2.443,-2.5108,-2.5795,-2.5857,-2.6579,-2.7167,-2.7167,-2.6582,-2.6294,-2.6965,-2.5781,-2.5099,-2.58,-2.5099,-2.4106,-2.2745,-2.452,-2.5596,-2.4992,-2.6274,-2.7441,-2.7998,-2.8445,-2.8921,-2.9485,-2.9943,-3.0216,-3.0216,-3.0847,-3.1548,-3.2215,-3.2334,-3.2778,-3.3467,-3.2345,-3.1915,-3.1901,-3.1326,-3.1078,-3.1078,-3.1013,-3.1198,-3.1629,-3.2461,-3.3017,-3.3367,-3.3796,-3.3934,-3.4016,0.0,0.0,0.0,0.0,0.0,0.0,0.0,0.0,0.0,0.0,0.0,0.0,0.0,0.0,0.0,0.0,0.0,0.0,-3.1061,-3.0761,-3.0457,-3.0075,-2.9934,-2.9378,-2.853,-2.8542,-2.8383,-2.8063,-2.8235,-2.8315,-2.8303,-2.8303,-2.8474,-2.8803,-2.8779,-2.9197,-2.9792,-2.9792,-2.9792,-2.9792,-2.9792,-2.9792,-2.9792,-2.9792,-3.0279,-3.0983,-3.0419,-3.0771,0.0,0.0,-3.0279,-3.0216,-2.9934,-2.9792,-2.9792,-2.9792,-2.9792,0.0,-2.9792,-2.9534,-2.904,0.0,-2.7637,-2.7058,-2.6069,-2.5913,-2.5768,-2.47,-2.5462,-2.6165,-2.5913,-2.6413,-2.6941,0.0,-2.7061,-2.6965,-2.7262,-2.6764,-2.6274,-2.61,-2.6187,-2.5684,-2.4115,-2.4805,-2.5489,-2.5596,-2.6668,-2.7631,-2.8362,-2.8631,-2.9095,-2.9852,-3.0487,-3.0847,-3.0847,-3.1261,-3.1786,-3.2431,-3.2155,-3.2226,-3.2555,-3.2058,-3.1666,-3.1326,-3.1091,-3.0986,-3.0986,-3.0986,-3.1136,-3.1334,-3.2448,-3.3199,-3.3685,-3.4327,-3.4543,-3.461,0.0,0.0,0.0,0.0,0.0,0.0,0.0,0.0,0.0,0.0,0.0,0.0,0.0,0.0,0.0,0.0,0.0,0.0,0.0,-3.1061,-3.0685,-3.0305,-3.0011,0.0,-2.8176,-2.8371,-2.8143,-2.7406,-2.8051,-2.8223,-2.7879,-2.7879,-2.8131,-2.8554,-2.8359,-2.8779,-2.9792,-2.9792,-2.9869,-2.9869,-2.9792,-2.9869,-2.9869,-2.9792,-3.0279,-3.082,-3.0279,-3.0558,0.0,0.0,-3.0062,-3.0075,-2.9856,-2.9792,-2.9792,-2.9792,-2.9792,-2.9792,-2.9792,-2.9792,-2.9624,-2.904,-2.8712,-2.8131,-2.6812,-2.6812,-2.6741,-2.5443,-2.5894,-2.6444,-2.632,-2.6441,-2.6724,-2.7179,-2.7262,-2.7262,-2.7262,-2.7262,-2.7071,-2.6486,-2.6774,-2.6572,-2.5674,-2.5577,-2.5684,-2.6091,-2.6965,-2.7809,-2.8642,-2.8817,-2.929,-3.0216,-3.0949,-3.1235,-3.108,-3.1565,-3.1972,-3.2295,-3.1924,-3.177,-3.1759,-3.1679,-3.1378,-3.0986,-3.0986,-3.0986,-3.0986,-3.1185,-3.1334,-3.1468,-3.2861,-3.3685,-3.4163,-3.5008,-3.5219,-3.5154,0.0,0.0,0.0,0.0,0.0,0.0,0.0,0.0,0.0,0.0,0.0,0.0,0.0,0.0,0.0,0.0,0.0,0.0,0.0,-3.1421,-3.1136,-3.0698,-3.0305,-2.9574,-2.8426,-2.7383,-2.6741,-2.6528,-2.6577,-2.7058,-2.8063,-2.8063,-2.8712,-2.9702,-2.887,-2.8961,-2.9792,-2.9792,-2.9934,-3.0075,-2.9869,-2.9934,-3.0075,-2.9869,-3.0279,-3.0895,-3.0895,0.0,0.0,0.0,-3.0895,-3.0758,-2.9998,-2.9792,0.0,-2.9792,-2.9792,-2.9792,-2.9792,-2.9792,-2.9792,-2.9792,-2.9131,-2.8462,-2.8462,-2.7718,-2.7069,-2.7069,-2.6719,-2.6617,-2.7107,-2.6875,-2.6724,-2.7179,-2.7262,-2.7262,-2.7262,-2.7262,-2.7262,-2.7262,-2.6582,-2.639,0.0,-2.7262,-2.687,-2.6197,-2.7231,-2.8186,-2.8757,-2.9209,-2.9669,-3.0216,-3.0949,-3.1056,-3.0434,-3.1769,-3.2187,-3.1749,-3.1745,-3.1785,-3.1746,-3.1261,-3.0999,-3.0986,-3.0986,-3.0986,-3.1061,-3.1736,-3.2087,-3.2218,-3.4109,-3.4876,-3.5008,-3.6085,-3.6148,-3.5752,0.0,0.0,0.0,0.0,0.0,0.0,0.0,0.0,0.0,0.0,0.0,0.0,0.0,0.0,0.0,0.0,0.0,0.0,0.0,-3.1909,-3.1421,-3.1136,-3.0037,-2.9172,-2.87,-2.7557,-2.6987,-2.6917,-2.6905,-2.6812,-2.6565,-2.7151,-2.7313,-2.7232,-2.8131,-2.8633,-2.8961,-2.9546,-2.9869,-2.9856,-2.9869,-2.9869,-2.9869,-2.9869,-2.9921,-3.0139,0.0,0.0,0.0,0.0,-3.0139,-3.0139,-2.9677,-2.9689,-2.9792,-2.9792,-2.9792,-2.9792,-2.9792,-2.9792,-2.9792,-2.9792,-2.9546,-2.9287,-2.8791,-2.887,-2.8767,-2.7775,-2.758,-2.755,-2.7446,-2.6979,-2.6739,-2.7232,-2.7262,-2.7262,-2.7262,-2.7262,-2.7262,-2.7262,-2.6582,0.0,0.0,0.0,0.0,-2.7326,-2.7799,-2.8373,-2.9209,-2.9393,-2.976,-3.0216,-3.1037,-3.1307,-3.1113,-3.1719,-3.1913,-3.1732,-3.1395,-3.1274,-3.1261,-3.1065,-3.0986,-3.0986,-3.0986,-3.0986,-3.1061,-3.1809,-3.2146,-3.2506,-3.4245,-3.4942,-3.5124,-3.6148,-3.6367,-3.6289,0.0,0.0,0.0,0.0,0.0,0.0,0.0,0.0,0.0,0.0,0.0,0.0,0.0,0.0,0.0,0.0,0.0,0.0,0.0,0.0,-3.185,-3.1421,-3.0165,-2.916,-2.845,-2.7395,-2.6659,-2.6174,-2.6494,-2.6483,-2.6235,-2.6483,-2.6812,-2.7221,-2.7799,-2.8383,-2.904,-2.9546,-2.9869,-3.0011,-2.9869,-2.9869,-3.0011,-2.9869,-2.9792,0.0,0.0,0.0,0.0,-2.9934,-2.9792,-2.9792,-2.9599,-2.9689,-2.9792,-2.9792,-2.9792,-2.9792,-2.9792,-2.9792,-2.9792,-2.9792,-2.9869,-2.9779,-2.9353,-2.9741,-2.9896,-2.89,-2.8414,-2.8103,-2.7941,-2.725,-2.6679,-2.6879,-2.6853,-2.687,-2.687,-2.687,-2.6965,-2.7262,-2.6582,-2.639,0.0,0.0,0.0,-2.7893,-2.8175,-2.8642,-2.9485,-2.9669,-2.9772,-2.9963,-3.0949,-3.1283,-3.0891,-3.1493,-3.1731,-3.1535,-3.1156,-3.0986,-3.0986,-3.0986,-3.1123,-3.1394,-3.1394,-3.1542,-3.1823,-3.2648,-3.3059,-3.3339,-3.478,-3.54,-3.5578,-3.6274,-3.6492,-3.6492,0.0,0.0,0.0,0.0,0.0,0.0,0.0,0.0,0.0,0.0,0.0,0.0,0.0,0.0,0.0,0.0,0.0,0.0,0.0,0.0,0.0,-3.1629,-3.0696,-2.9434,-2.7844,-2.6905,-2.5779,-2.454,-2.5337,-2.6163,-2.6987,-2.6152,-2.7058,-2.9468,-2.781,-2.8051,-2.9636,-2.9714,-2.9998,-3.0292,-2.9934,0.0,-3.0368,-2.9934,0.0,0.0,0.0,0.0,0.0,0.0,-2.9792,-2.9792,-2.9792,-2.9792,-2.9792,-2.9792,-2.9792,-2.9792,-2.9792,-2.9792,-2.9792,-2.9856,-3.0011,-3.0152,-3.0152,-3.0305,-3.0444,-3.0444,-2.9225,-2.825,0.0,0.0,-2.6552,-2.6259,-2.6154,-2.6167,-2.6187,-2.6197,-2.6486,0.0,0.0,0.0,0.0,0.0,0.0,-2.7987,0.0,-2.9002,-2.9485,-2.9943,-2.9998,-2.9515,-3.0757,-3.0915,-2.9942,-3.1176,-3.1522,-3.0986,-3.0986,-3.0986,-3.0986,-3.1061,-3.1468,-3.2074,-3.2146,-3.2577,-3.3283,-3.4177,-3.4595,-3.4728,-3.58,-3.6211,-3.6274,-3.6414,-3.6492,-3.6492,0.0,0.0,0.0,0.0,0.0,0.0,0.0,0.0,0.0,0.0,0.0,0.0,0.0,0.0,0.0,0.0,0.0,0.0,0.0,0.0,0.0,0.0,0.0,0.0,0.0,0.0,0.0,0.0,0.0,-2.4946,-2.52,-2.4946,-2.5189,0.0,-2.6434,-2.6928,-2.7429,-2.887,-2.9586,-2.9651,0.0,-3.0228,-3.0152,0.0,0.0,0.0,0.0,0.0,0.0,0.0,0.0,-2.9521,-2.9702,-2.9689,-2.9521,-2.9702,-2.9792,-2.9792,-2.9792,-2.9934,-3.0152,-3.0696,-3.0558,-3.0508,-3.122,-3.096,-3.0698,-3.0836,-2.9793,-2.8913,0.0,0.0,0.0,-2.7431,-2.7494,0.0,-2.7568,-2.7526,0.0,-2.7347,0.0,-2.639,-2.7262,-2.704,0.0,0.0,-2.9013,-2.9474,-3.0034,-3.0125,-2.9998,-2.9515,-3.0373,-3.0523,-2.9942,-3.0791,-3.113,-3.0986,-3.0986,-3.0986,-3.0986,-3.1603,-3.1942,-3.2146,-3.2648,-3.3003,-3.3283,-3.4177,-3.4662,-3.4942,-3.5864,-3.6274,-3.6414,-3.6492,-3.6492,-3.6492,0.0,0.0,0.0,0.0,0.0,0.0,0.0,0.0,0.0,0.0,0.0,0.0,0.0,0.0,0.0,0.0,0.0,0.0,0.0,0.0,0.0,0.0,0.0,0.0,0.0,0.0,0.0,0.0,0.0,0.0,0.0,-2.5295,-2.5549,-2.6279,-2.661,-2.7021,-2.7429,0.0,0.0,0.0,0.0,0.0,0.0,0.0,0.0,0.0,0.0,0.0,0.0,0.0,0.0,-2.9599,-2.9779,-2.9702,-2.9611,-2.9792,0.0,-2.9792,-2.9792,-2.9934,-3.0216,-3.0633,-3.0646,-3.0672,-3.1172,-3.1048,-3.0761,-3.0596,-2.9793,0.0,-2.8766,-2.7865,0.0,0.0,0.0,0.0,-2.7442,-2.7505,-2.7421,0.0,-2.6284,0.0,-2.7431,-2.702,-2.7284,0.0,-2.9301,-2.9669,-3.0216,-3.0009,-2.9665,-2.916,-2.9906,-3.0357,-3.0375,-3.0751,-3.0986,-3.0986,-3.0986,-3.0986,-3.0986,-3.1394,-3.1955,-3.2577,0.0,-3.3575,-3.4288,-3.4957,-3.5285,-3.5429,-3.6085,-3.6414,-3.6492,-3.6492,-3.6492,-3.6492,0.0,0.0,0.0,0.0,0.0,0.0,0.0,0.0,0.0,0.0,0.0,0.0,0.0,0.0,0.0,0.0,0.0,0.0,0.0,0.0,0.0,0.0,0.0,0.0,0.0,0.0,0.0,0.0,0.0,0.0,0.0,0.0,0.0,0.0,0.0,0.0,0.0,0.0,0.0,0.0,0.0,0.0,0.0,0.0,0.0,0.0,0.0,0.0,0.0,0.0,-2.9546,-2.9624,-2.9792,-2.9792,-2.9792,-2.9792,-2.9792,-2.9792,-2.9869,-3.0011,-3.0152,-3.0292,-3.0533,-3.0773,-3.0836,-3.0911,-3.0823,-3.0114,0.0,-2.8937,-2.8327,-2.7541,-2.6982,-2.6998,0.0,-2.6949,-2.7055,-2.7074,-2.722,-2.7251,-2.6071,-2.5858,-2.7704,-2.7084,-2.7358,-2.9382,-2.9521,-2.967,-3.0124,-2.9722,-2.9305,-2.8877,-2.9436,-3.0152,-3.0986,-3.0986,-3.0986,-3.0986,-3.0986,-3.0986,-3.0986,-3.1198,-3.1969,-3.3213,0.0,0.0,-3.5504,-3.5861,-3.5973,-3.6037,-3.6367,-3.6492,-3.6492,-3.6492,-3.6492,-3.6492,0.0,0.0,0.0,0.0,0.0,0.0,0.0,0.0,0.0,0.0,-3.875,0.0,0.0,0.0,0.0,0.0,0.0,0.0,0.0,0.0,0.0,0.0,0.0,0.0,0.0,0.0,0.0,0.0,0.0,0.0,0.0,0.0,0.0,0.0,0.0,0.0,0.0,0.0,0.0,0.0,0.0,0.0,0.0,0.0,0.0,0.0,0.0,0.0,0.0,0.0,-2.8383,-2.887,-2.9546,-2.9792,-2.9792,-2.9792,-2.9792,-2.9869,-3.0011,-3.0228,-3.0508,-3.1294,-3.1246,-3.1123,-3.1736,-3.1394,0.0,0.0,-2.9561,-2.8937,-2.8327,-2.6985,-2.6462,-2.7578,-2.7544,-2.7577,-2.8261,-2.876,-2.8538,0.0,-2.6744,-2.6733,-2.7326,-2.74,0.0,0.0,0.0,-2.953,-2.963,-2.9538,-2.9577,-2.9694,-2.9365,-2.9817,-3.0986,-3.0986,-3.0986,-3.0986,-3.0986,-3.0986,-3.1061,-3.2245,-3.2946,-3.3297,0.0,0.0,-3.5504,-3.5861,-3.5973,-3.6037,-3.6367,-3.6492,-3.6492,-3.6492,-3.6492,-3.6492,0.0,0.0,0.0,0.0,0.0,0.0,0.0,0.0,0.0,-4.0995,-3.9699,-3.8738,0.0,0.0,0.0,0.0,0.0,0.0,0.0,0.0,0.0,0.0,0.0,0.0,0.0,0.0,0.0,0.0,0.0,0.0,0.0,0.0,0.0,0.0,0.0,0.0,0.0,0.0,0.0,0.0,0.0,0.0,0.0,0.0,0.0,0.0,0.0,0.0,0.0,0.0,-2.7822,-2.758,-2.8223,-2.8712,-2.9118,-2.9287,-2.9611,-3.0011,-3.0228,-3.0368,-3.0672,-3.111,-3.111,-3.1123,-3.1468,0.0,0.0,0.0,-2.9015,-2.8474,-2.7777,-2.667,0.0,-2.7115,-2.6672,-2.6711,-2.7905,-2.7742,-2.7514,-2.72,-2.6264,-2.5974,0.0,0.0,0.0,0.0,0.0,-2.9504,-2.9504,-2.8999,-2.8937,-2.9432,-2.9217,-2.9716,-3.0986,-3.0986,-3.0986,-3.0986,-3.0986,-3.0986,-3.1061,-3.2101,-3.2861,-3.3297,-3.4409,0.0,-3.5504,-3.5861,-3.5973,-3.6037,-3.6367,-3.6492,-3.6492,-3.6492,-3.6492,-3.6492,0.0,0.0,0.0,0.0,0.0,0.0,0.0,-4.2566,-4.2342,-4.1669,-4.0766,-3.9902,-3.9092,-3.8076,-3.7447,0.0,0.0,0.0,0.0,0.0,0.0,0.0,0.0,0.0,0.0,0.0,0.0,-2.7231,0.0,0.0,0.0,0.0,0.0,0.0,0.0,0.0,0.0,0.0,0.0,0.0,0.0,0.0,0.0,0.0,0.0,0.0,0.0,0.0,0.0,0.0,-2.7429,-2.6764,-2.6835,-2.7487,-2.8303,-2.8633,-2.9275,-2.9908,-3.0203,-3.0457,-3.0698,-3.0773,-3.0911,-3.0986,-3.0823,-3.0355,0.0,-2.9094,-2.8554,-2.8018,-2.7301,-2.6268,-2.5708,0.0,-2.5609,-2.5513,-2.678,-2.6486,-2.6296,0.0,-2.5538,0.0,-2.6124,0.0,0.0,0.0,0.0,0.0,-2.9171,-2.831,-2.8187,-2.9094,-2.9081,-2.9716,-3.0986,-3.0986,-3.0986,-3.0986,-3.0986,-3.0986,-3.1061,-3.1736,-3.2506,-3.3213,-3.3973,0.0,0.0,-3.5861,-3.5973,-3.6037,-3.6367,-3.6492,-3.6492,-3.6492,-3.6492,-3.6492,0.0,0.0,0.0,0.0,0.0,0.0,0.0,-4.324,-4.3015,-4.2357,-4.1818,-4.1081,-3.9843,-3.8733,-3.7897,0.0,0.0,0.0,0.0,0.0,0.0,0.0,0.0,0.0,0.0,0.0,0.0,-2.7231,-2.7231,0.0,0.0,0.0,0.0,0.0,0.0,0.0,0.0,0.0,0.0,0.0,0.0,0.0,0.0,0.0,0.0,0.0,0.0,0.0,0.0,0.0,0.0,-2.7232,-2.629,-2.661,-2.7406,-2.8247,0.0,0.0,-2.9626,-3.0203,-3.0773,-3.0911,-3.0986,-3.0823,-3.0203,0.0,-2.9651,-2.8486,-2.8259,-2.8018,-2.7301,-2.5779,-2.4925,-2.5717,0.0,-2.4766,-2.5316,-2.6341,-2.6615,-2.5411,0.0,0.0,-2.5212,0.0,0.0,0.0,0.0,0.0,-2.8115,-2.7598,-2.7812,-2.9081,-2.9081,-2.9716,-3.0986,-3.0986,-3.0986,-3.0986,-3.0986,-3.0986,-3.1061,-3.1736,-3.2506,-3.3213,-3.3973,0.0,0.0,-3.5861,-3.5973,-3.6037,-3.6367,-3.6492,-3.6492,-3.6492,-3.6492,-3.6492,0.0,0.0,0.0,0.0,0.0,0.0,0.0,-4.3329,-4.324,-4.297,-4.2204,-4.1538,-4.1008,-3.9653,-3.8551,0.0,0.0,0.0,0.0,0.0,0.0,0.0,0.0,0.0,0.0,0.0,-2.7231,-2.7231,-2.7231,0.0,0.0,0.0,0.0,0.0,0.0,-2.7231,0.0,0.0,0.0,0.0,0.0,0.0,0.0,0.0,0.0,0.0,0.0,0.0,0.0,0.0,0.0,0.0,-2.6715,-2.655,0.0,0.0,-2.8315,-2.8949,-2.9639,-3.0114,-3.0355,-3.0911,-3.0672,-3.0355,-3.0037,0.0,-2.8803,-2.8339,-2.7857,-2.7371,-2.6517,-2.5337,-2.4402,0.0,0.0,0.0,-2.4666,-2.4888,-2.5034,-2.5039,-2.4622,0.0,0.0,0.0,0.0,0.0,0.0,0.0,-2.7529,-2.7731,-2.8155,-2.9081,-2.9484,-3.0114,-3.0986,-3.0986,-3.0986,-3.0986,-3.0986,-3.0986,-3.1061,-3.2232,-3.2932,-3.3297,-3.4491,0.0,0.0,-3.591,-3.6037,-3.6148,-3.6414,-3.6492,-3.6492,-3.6492,-3.6492,-3.6492,0.0,0.0,0.0,0.0,0.0,0.0,-4.3329,-4.3329,-4.3329,-4.3329,-4.253,-4.1936,-4.1745,-4.0529,-3.9402,-3.8414,0.0,0.0,0.0,0.0,0.0,0.0,0.0,0.0,0.0,0.0,-2.6779,-2.6373,-2.6373,-2.6373,0.0,0.0,-2.6539,-2.6787,0.0,0.0,0.0,0.0,0.0,0.0,0.0,0.0,0.0,0.0,0.0,0.0,0.0,0.0,0.0,0.0,0.0,0.0,0.0,0.0,0.0,0.0,-2.7903,-2.8621,-2.9484,-2.9883,-3.019,-3.0823,-3.0508,-2.996,0.0,0.0,-2.8179,-2.7938,-2.7278,-2.661,-2.5913,-2.4904,-2.3887,0.0,0.0,-2.2695,-2.3712,-2.3673,-2.3818,0.0,0.0,0.0,0.0,0.0,0.0,0.0,0.0,0.0,0.0,-2.8007,-2.8633,-2.9081,-2.9716,-3.0355,-3.0986,-3.0986,-3.0986,-3.0986,-3.0986,-3.0986,-3.1048,-3.2376,-3.3073,-3.3353,0.0,0.0,0.0,-3.5958,-3.6085,-3.6211,-3.6414,-3.6492,-3.6492,-3.6492,-3.6492,-3.6492,0.0,0.0,0.0,0.0,0.0,0.0,0.0,-4.3329,-4.3329,-4.3329,-4.2915,-4.2438,-4.1789,-4.1317,-4.0464,-3.8805,0.0,0.0,0.0,0.0,0.0,0.0,0.0,0.0,0.0,0.0,-2.5905,-2.4498,-2.4498,-2.4498,-2.4498,-2.4498,-2.4999,-2.5746,0.0,0.0,0.0,0.0,0.0,0.0,0.0,0.0,0.0,0.0,0.0,0.0,0.0,0.0,0.0,0.0,0.0,0.0,0.0,0.0,0.0,0.0,-2.7348,-2.7718,-2.8834,-2.9561,-3.019,-3.0823,-3.0508,-2.9871,0.0,0.0,-2.8018,-2.7383,-2.6445,-2.5819,-2.5819,-2.4296,-2.3096,-2.3096,0.0,0.0,-2.2327,-2.3033,0.0,0.0,0.0,0.0,0.0,0.0,0.0,0.0,0.0,0.0,0.0,-2.8383,-2.9081,-2.9081,-2.9716,-3.0355,-3.0986,-3.0986,-3.0986,-3.0986,-3.0986,-3.0986,-3.1061,-3.1955,-3.2791,0.0,0.0,0.0,0.0,-3.6148,-3.6196,-3.6211,-3.6414,-3.6492,-3.6492,-3.6492,-3.6492,-3.6492,0.0,0.0,0.0,0.0,0.0,0.0,0.0,-4.3329,-4.3329,-4.3329,-4.293,-4.2614,-4.2408,-4.1595,-4.0665,-3.9437,0.0,0.0,0.0,0.0,0.0,0.0,0.0,0.0,0.0,0.0,-2.5732,-2.531,-2.5011,-2.4943,-2.4943,-2.4643,-2.4669,-2.4914,-2.4659,0.0,0.0,0.0,0.0,0.0,0.0,0.0,0.0,0.0,0.0,0.0,0.0,0.0,0.0,0.0,0.0,0.0,0.0,0.0,0.0,0.0,0.0,0.0,-2.8247,-2.8633,-2.8949,-2.9561,-2.9263,-2.8712,-2.8554,0.0,-2.7464,-2.7219,-2.6445,-2.5663,-2.4988,-2.3963,-2.2931,-2.2246,0.0,0.0,0.0,0.0,0.0,0.0,0.0,0.0,0.0,0.0,0.0,0.0,0.0,0.0,0.0,-2.8383,-2.9081,-2.9081,-3.0114,-3.0823,-3.0986,-3.0986,-3.0986,-3.0986,-3.1272,-3.1421,-3.1482,-3.2875,0.0,0.0,0.0,0.0,0.0,-3.6211,-3.6274,-3.6414,-3.6492,-3.6492,-3.6492,-3.6492,-3.6492,-3.6492,0.0,0.0,0.0,0.0,0.0,0.0,0.0,-4.3329,-4.325,-4.317,-4.293,-4.2688,-4.2622,-4.1575,-4.0475,-3.9432,0.0,0.0,0.0,0.0,0.0,0.0,0.0,0.0,0.0,-2.5533,-2.5177,-2.4661,-2.4394,-2.4266,-2.4256,-2.3989,-2.4047,-2.4139,-2.3789,-2.4288,0.0,0.0,0.0,0.0,0.0,0.0,-2.7231,0.0,0.0,0.0,0.0,0.0,0.0,0.0,0.0,0.0,0.0,0.0,0.0,0.0,-2.7231,-2.7383,0.0,-2.8179,-2.8327,-2.8924,-2.8633,0.0,0.0,-2.7696,-2.7056,-2.6704,-2.5935,-2.5073,-2.4145,-2.3193,-2.2413,-2.182,0.0,0.0,0.0,0.0,0.0,0.0,0.0,0.0,0.0,0.0,0.0,0.0,0.0,0.0,0.0,-2.8542,-2.9316,-2.9316,-3.057,-3.1198,-3.1198,-3.1347,-3.1347,-3.1198,-3.1629,-3.1776,-3.1836,-3.3437,0.0,0.0,0.0,0.0,0.0,-3.6274,-3.6414,-3.6492,-3.6492,-3.6492,-3.6492,-3.6492,-3.6492,-3.6492,0.0,0.0,0.0,0.0,0.0,0.0,0.0,0.0,0.0,0.0,-4.2835,-4.2622,-4.2295,-4.131,-4.0059,0.0,0.0,0.0,0.0,0.0,0.0,0.0,0.0,0.0,0.0,-2.5078,-2.4326,-2.2948,-2.2911,-2.2902,-2.2902,-2.2875,-2.3205,-2.3628,-2.273,-2.3118,0.0,0.0,0.0,0.0,0.0,-2.7231,0.0,0.0,0.0,0.0,0.0,0.0,0.0,0.0,0.0,0.0,0.0,0.0,0.0,0.0,0.0,0.0,0.0,-2.8099,-2.8247,-2.8858,-2.8554,-2.8099,-2.8099,-2.7615,0.0,-2.5997,-2.5073,-2.4145,-2.327,-2.2325,-2.1741,-2.1741,0.0,0.0,0.0,0.0,0.0,0.0,0.0,0.0,0.0,0.0,0.0,0.0,0.0,0.0,0.0,-2.8846,-2.9781,-2.9858,-3.1009,-3.1629,-3.1629,-3.1909,-3.1909,-3.1629,-3.1982,-3.2128,-3.22,-3.363,0.0,0.0,0.0,0.0,0.0,-3.6492,-3.6492,-3.6492,-3.6492,-3.6492,-3.6492,-3.6492,-3.6492,-3.6492,0.0,0.0,0.0,0.0,0.0,0.0,0.0,0.0,0.0,0.0,-4.2835,-4.2363,-4.1423,-4.0873,-3.9798,0.0,0.0,0.0,0.0,0.0,0.0,0.0,0.0,0.0,0.0,-2.4389,-2.4245,-2.3868,-2.3556,-2.34,-2.34,-2.3003,-2.299,-2.3084,-2.2898,-2.3558,0.0,0.0,0.0,0.0,-2.7231,-2.7231,0.0,0.0,0.0,0.0,-2.7231,-2.7231,0.0,0.0,0.0,0.0,0.0,0.0,0.0,0.0,-2.7231,-2.7231,-2.7383,0.0,-2.7464,-2.7615,-2.7545,-2.7464,0.0,-2.6775,-2.6091,-2.583,-2.4553,-2.3357,-2.3096,-2.2325,0.0,0.0,0.0,0.0,0.0,0.0,0.0,0.0,0.0,0.0,0.0,0.0,0.0,0.0,0.0,0.0,0.0,-2.9459,-3.0367,-3.1267,-3.2028,-3.2273,-3.1982,-3.2055,-3.2055,-3.1982,-3.2345,-3.2561,-3.2632,-3.3659,0.0,0.0,0.0,0.0,-3.6492,-3.6492,-3.6492,-3.6492,-3.6492,-3.6492,-3.6492,-3.6492,-3.6492,-3.6492,0.0,0.0,0.0,0.0,0.0,0.0,0.0,0.0,0.0,0.0,0.0,0.0,0.0,0.0,0.0,0.0,0.0,0.0,0.0,0.0,0.0,0.0,0.0,0.0,-2.4546,-2.4445,-2.4345,-2.4152,-2.3932,-2.3822,-2.3822,-2.3602,-2.34,-2.3217,-2.3486,-2.4258,-2.555,-2.7074,-2.7685,-2.7575,-2.7575,0.0,0.0,0.0,0.0,0.0,-2.7231,-2.7231,0.0,-2.7231,-2.7231,-2.7231,0.0,0.0,0.0,0.0,-2.7231,-2.7231,-2.7231,-2.7231,-2.7056,-2.6704,-2.6528,-2.6445,-2.603,-2.5589,-2.5073,-2.4638,-2.378,-2.3008,-2.2501,0.0,0.0,0.0,-2.2501,0.0,0.0,0.0,0.0,0.0,0.0,0.0,0.0,0.0,0.0,0.0,0.0,0.0,0.0,-2.9845,-3.0745,-3.1796,-3.2547,-3.2789,-3.2417,-3.2574,-3.2574,-3.2417,-3.2789,-3.3016,-3.3002,-3.4016,-3.461,0.0,0.0,0.0,-3.6492,-3.6492,-3.6492,-3.6492,-3.6492,-3.6492,-3.6492,-3.6492,-3.6492,-3.6554,0.0,0.0,0.0,0.0,0.0,0.0,0.0,0.0,0.0,0.0,0.0,0.0,0.0,0.0,0.0,0.0,0.0,0.0,0.0,0.0,0.0,0.0,0.0,-2.6686,-2.4978,-2.4876,-2.4666,-2.4244,-2.4244,-2.4216,-2.4152,-2.4152,-2.3969,-2.362,-2.439,-2.5095,-2.6007,-2.7025,-2.7752,-2.808,-2.8012,0.0,0.0,0.0,0.0,0.0,0.0,0.0,0.0,-2.7219,-2.7313,-2.7313,-2.7231,0.0,0.0,0.0,0.0,0.0,-2.7313,-2.7313,-2.7138,-2.6257,-2.608,-2.583,-2.5168,0.0,0.0,0.0,0.0,0.0,0.0,-2.2677,0.0,0.0,0.0,0.0,0.0,0.0,0.0,0.0,0.0,0.0,0.0,0.0,0.0,0.0,0.0,0.0,0.0,-3.0291,-3.1206,-3.2015,-3.2874,-3.3171,-3.2775,-3.3157,-3.3157,-3.2775,-3.3171,-3.3312,-3.3437,-3.4356,-3.489,0.0,0.0,0.0,-3.6492,-3.6492,-3.6492,-3.6492,-3.6492,-3.6492,-3.6492,-3.6492,-3.6492,-3.66,0.0,0.0,0.0,0.0,0.0,0.0,0.0,0.0,0.0,0.0,0.0,0.0,0.0,0.0,0.0,0.0,0.0,0.0,0.0,0.0,0.0,0.0,-2.7353,-2.6041,-2.528,-2.528,-2.5087,-2.4684,-2.4684,-2.45,-2.4152,-2.4152,-2.4115,-2.415,-2.5043,-2.5844,-2.6403,-2.742,-2.8144,-2.8551,-2.8149,0.0,0.0,0.0,0.0,0.0,0.0,0.0,0.0,-2.7441,-2.7615,-2.7719,-2.7534,0.0,0.0,0.0,0.0,0.0,-2.7812,-2.7812,-2.7708,-2.7348,-2.7267,-2.7174,-2.7103,-2.6246,-2.5326,0.0,0.0,0.0,0.0,-2.2677,-2.2511,0.0,0.0,0.0,0.0,0.0,0.0,0.0,0.0,0.0,0.0,0.0,0.0,0.0,0.0,0.0,0.0,0.0,-3.2245,-3.3016,-3.3241,-3.3241,-3.3241,-3.3255,-3.3255,-3.3241,-3.3241,-3.3507,-3.3948,-3.4153,-3.4743,0.0,0.0,-3.6085,-3.6492,-3.6492,-3.6492,-3.6492,-3.6492,-3.6492,-3.6492,-3.6492,-3.6492,-3.6662,0.0,0.0,0.0,0.0,0.0,0.0,0.0,0.0,0.0,0.0,0.0,0.0,0.0,0.0,0.0,0.0,0.0,0.0,0.0,0.0,0.0,-2.8262,-2.7372,-2.6539,-2.5693,-2.5683,-2.5491,-2.5096,-2.4886,-2.4684,-2.4491,-2.4262,-2.4152,-2.4251,-2.5216,-2.5866,-2.6144,-2.774,-2.8385,-2.8365,0.0,0.0,0.0,0.0,0.0,0.0,0.0,0.0,0.0,0.0,-2.78,-2.7881,-2.7788,0.0,0.0,0.0,0.0,0.0,-2.7893,-2.7962,-2.803,-2.7926,-2.7418,-2.6823,-2.6318,-2.5808,-2.5305,0.0,0.0,0.0,0.0,0.0,-2.4967,-2.588,0.0,0.0,0.0,0.0,0.0,0.0,0.0,0.0,0.0,0.0,0.0,0.0,0.0,0.0,0.0,0.0,-3.2461,-3.3241,-3.3326,-3.3326,-3.3326,-3.3326,-3.3326,-3.3326,-3.3326,-3.3577,-3.407,-3.4409,-3.4942,-3.5688,0.0,-3.6289,-3.6492,-3.6492,-3.6492,-3.6492,-3.6492,-3.6492,-3.6492,-3.6492,-3.6876,-3.7562,0.0,0.0,0.0,0.0,0.0,0.0,0.0,0.0,0.0,0.0,0.0,0.0,0.0,0.0,0.0,0.0,0.0,0.0,0.0,0.0,-2.8774,-2.7422,-2.7323,-2.6957,-2.6114,-2.6105,-2.5913,-2.5509,-2.5207,-2.4959,-2.4776,-2.4354,-2.4152,-2.4251,-2.502,-2.5499,-2.579,-2.7589,-2.831,-2.8247,0.0,0.0,0.0,0.0,0.0,0.0,0.0,0.0,0.0,0.0,0.0,0.0,0.0,0.0,0.0,-2.7962,-2.7962,-2.8042,-2.8042,-2.8111,-2.8259,-2.8259,-2.758,-2.673,-2.5975,-2.5808,-2.5724,0.0,0.0,0.0,0.0,-2.6224,0.0,0.0,0.0,0.0,0.0,0.0,0.0,0.0,0.0,0.0,0.0,0.0,0.0,0.0,0.0,0.0,0.0,0.0,-3.269,-3.3255,-3.3326,-3.3326,-3.3326,-3.3326,-3.3326,-3.3326,-3.3452,-3.377,-3.4274,-3.481,-3.535,-3.5879,-3.6289,-3.6492,-3.6492,-3.6492,-3.6492,-3.6492,-3.6492,-3.6492,-3.6492,-3.6492,-3.7163,-3.8124,0.0,0.0,0.0,0.0,0.0,0.0,0.0,0.0,0.0,0.0,0.0,0.0,0.0,0.0,0.0,0.0,0.0,0.0,0.0,0.0,-2.7853,-2.7431,-2.7206,-2.6881,-2.6545,-2.6545,-2.6334,-2.5913,-2.5885,-2.55,-2.4776,-2.4354,-2.4152,-2.4152,-2.4251,-2.4824,-2.579,-2.6819,-2.784,-2.8729,-2.9307,0.0,0.0,0.0,0.0,0.0,0.0,0.0,0.0,0.0,0.0,0.0,0.0,0.0,-2.8431,-2.8259,-2.8339,-2.8431,-2.8431,-2.8431,-2.851,-2.851,-2.8259,-2.8087,-2.7995,-2.7857,-2.7452,-2.6565,0.0,0.0,0.0,-2.673,0.0,0.0,0.0,0.0,0.0,0.0,0.0,0.0,0.0,0.0,0.0,0.0,0.0,0.0,0.0,0.0,0.0,0.0,0.0,-3.3326,-3.3326,-3.3326,-3.3326,-3.3326,-3.3326,-3.3326,-3.3825,-3.4341,-3.4876,-3.5415,-3.5958,-3.6414,-3.6492,-3.6492,-3.6492,-3.6492,-3.6492,-3.6492,-3.6492,-3.6492,-3.6492,-3.6492,-3.6892,-3.7519,0.0,0.0,0.0,0.0,0.0,0.0,0.0,0.0,0.0,0.0,0.0,0.0,0.0,0.0,0.0,0.0,0.0,0.0,0.0,0.0,-2.7745,-2.7431,-2.7098,-2.689,-2.6591,-2.6591,-2.6509,-2.6353,-2.6087,-2.5555,-2.4776,-2.462,-2.4409,-2.4152,-2.4152,-2.444,-2.4824,-2.6522,-2.7484,-2.8143,-2.9455,-2.9834,0.0,0.0,0.0,0.0,0.0,0.0,0.0,0.0,-2.8431,0.0,0.0,0.0,-2.851,-2.8431,-2.8431,-2.851,-2.851,-2.851,-2.851,-2.851,-2.8431,0.0,0.0,-2.7938,-2.7522,-2.7672,-2.7822,0.0,0.0,0.0,0.0,0.0,0.0,0.0,0.0,0.0,0.0,0.0,0.0,0.0,0.0,0.0,0.0,0.0,0.0,0.0,0.0,0.0,0.0,-3.3326,-3.3326,-3.3326,-3.3326,-3.3326,-3.3326,-3.3326,-3.3507,-3.4031,-3.4876,-3.5073,-3.5688,-3.6492,-3.6492,-3.6492,-3.6492,-3.6492,-3.6492,-3.6492,-3.6492,-3.6492,-3.6492,-3.6492,-3.6892,-3.7401,0.0,0.0,0.0,0.0,0.0,0.0,0.0,0.0,0.0,0.0,0.0,0.0,0.0,0.0,0.0,0.0,0.0,0.0,0.0,-2.8485,-2.7745,-2.7431,-2.7098,-2.689,-2.6591,-2.6591,-2.6591,-2.6591,-2.616,-2.5683,-2.5142,-2.4904,-2.4629,-2.4345,-2.4216,-2.4152,-2.435,-2.5964,-2.701,-2.7579,-2.9176,-2.9998,0.0,0.0,0.0,0.0,0.0,0.0,0.0,0.0,0.0,0.0,0.0,0.0,0.0,0.0,-2.851,-2.851,-2.851,-2.851,-2.851,-2.851,0.0,0.0,-2.8431,-2.8018,-2.7765,-2.8351,-2.851,-2.8431,-2.8179,0.0,0.0,0.0,0.0,0.0,0.0,0.0,0.0,0.0,0.0,0.0,0.0,0.0,0.0,0.0,0.0,0.0,0.0,0.0,0.0,0.0,-3.3326,-3.3326,-3.3326,-3.3326,-3.3326,-3.3326,-3.3452,-3.3962,-3.4677,-3.5023,-3.5559,-3.6289,-3.6429,-3.6492,-3.6492,-3.6492,-3.6492,-3.6492,-3.6492,-3.6492,-3.6492,-3.6492,-3.6785,-3.7118,0.0,0.0,0.0,0.0,0.0,0.0,0.0,0.0,0.0,0.0,0.0,0.0,0.0,0.0,0.0,0.0,0.0,0.0,-2.8398,-2.8077,-2.7745,-2.7431,-2.7098,-2.689,-2.6591,-2.6591,-2.6591,-2.6591,-2.6169,-2.5968,-2.594,-2.5161,-2.4785,-2.4757,-2.4345,-2.4152,-2.4251,-2.5314,-2.6254,-2.7274,-2.8609,-2.984,-3.0866,0.0,0.0,0.0,0.0,0.0,0.0,0.0,-2.851,0.0,0.0,0.0,0.0,0.0,-2.851,-2.851,-2.851,-2.851,-2.851,-2.851,0.0,0.0,-2.8259,-2.851,-2.851,-2.851,-2.851,-2.8259,-2.7348,0.0,0.0,0.0,0.0,0.0,0.0,0.0,0.0,0.0,0.0,0.0,0.0,0.0,0.0,0.0,0.0,0.0,0.0,0.0,0.0,0.0,-3.3312,-3.3326,-3.3326,-3.3312,-3.3326,-3.3312,-3.3825,-3.407,-3.4138,-3.5219,-3.5688,-3.5752,-3.6289,-3.6492,-3.6492,-3.6492,-3.6492,-3.6492,-3.6492,-3.6492,-3.6492,-3.6492,-3.6492,-3.6616,0.0,0.0,0.0,0.0,0.0,0.0,0.0,0.0,0.0,0.0,0.0,0.0,0.0,0.0,0.0,0.0,0.0,0.0,-2.8398,-2.7862,-2.7539,-2.7431,-2.7008,-2.6691,-2.6591,-2.6591,-2.6591,-2.6591,-2.6463,-2.6252,-2.5949,-2.5436,-2.5051,-2.4757,-2.4345,-2.4152,-2.4251,-2.5509,-2.6264,-2.6809,-2.862,-2.9658,-3.0089,0.0,0.0,0.0,0.0,0.0,0.0,0.0,0.0,0.0,0.0,0.0,0.0,0.0,-2.851,-2.851,-2.851,-2.851,0.0,-2.851,0.0,0.0,0.0,-2.8018,0.0,0.0,-2.851,-2.8431,-2.8179,0.0,0.0,0.0,0.0,0.0,0.0,0.0,0.0,0.0,0.0,0.0,0.0,0.0,0.0,0.0,0.0,0.0,0.0,0.0,0.0,0.0,-3.3701,-3.3894,-3.3894,-3.4235,-3.4423,-3.4423,-3.4624,-3.4677,-3.4677,-3.535,-3.5894,-3.6289,-3.6429,-3.6492,-3.6492,-3.6492,-3.6492,-3.6492,-3.6492,-3.6492,-3.6492,-3.6492,-3.6492,-3.6554,0.0,0.0,0.0,0.0,0.0,0.0,0.0,0.0,0.0,0.0,0.0,0.0,0.0,0.0,0.0,0.0,0.0,0.0,0.0,0.0,-2.7647,-2.7431,-2.7116,-2.68,-2.6591,-2.6591,-2.6591,-2.6591,-2.6591,-2.6463,-2.6197,-2.5628,-2.5243,-2.4986,-2.4409,-2.4251,-2.4341,-2.5118,-2.5877,-2.6628,-2.8341,-2.936,-2.9795,0.0,0.0,0.0,0.0,0.0,0.0,0.0,0.0,0.0,0.0,0.0,0.0,-2.851,-2.851,-2.851,-2.851,-2.851,0.0,-2.851,-2.851,-2.851,-2.851,0.0,0.0,0.0,0.0,-2.851,-2.851,0.0,0.0,0.0,0.0,0.0,0.0,0.0,0.0,0.0,0.0,0.0,0.0,0.0,0.0,0.0,0.0,0.0,0.0,0.0,0.0,0.0,-3.3825,-3.407,-3.407,-3.461,-3.4876,-3.4876,-3.4821,-3.4832,-3.4832,-3.5439,-3.5894,-3.6211,-3.6429,-3.6492,-3.6492,-3.6492,-3.6492,-3.6492,-3.6492,-3.6492,-3.6492,-3.6492,-3.6492,-3.6492,0.0,0.0,0.0,0.0,0.0,0.0,0.0,0.0,0.0,0.0,-3.6358,0.0,0.0,0.0,0.0,0.0,0.0,0.0,0.0,0.0,-2.797,-2.7431,-2.7323,-2.7116,-2.6591,-2.6591,-2.6591,-2.6591,-2.6591,-2.6591,-2.6573,-2.5757,-2.5372,-2.5335,-2.4619,-2.4341,-2.4529,-2.4529,-2.5304,-2.6456,-2.7662,-2.8784,-2.9602,-2.9773,0.0,0.0,0.0,0.0,0.0,0.0,0.0,0.0,-2.851,0.0,-2.851,-2.851,-2.851,-2.851,-2.851,-2.851,-2.851,-2.851,-2.851,0.0,-2.851,-2.851,-2.851,-2.851,0.0,-2.851,0.0,0.0,0.0,0.0,0.0,0.0,0.0,0.0,0.0,0.0,0.0,0.0,0.0,0.0,0.0,0.0,0.0,0.0,0.0,0.0,0.0,0.0,-3.4016,-3.4341,-3.4274,-3.4751,-3.4984,0.0,-3.4793,-3.468,-3.4695,-3.5299,-3.5601,-3.5725,-3.6258,-3.6492,-3.6492,-3.6492,-3.6492,-3.6492,-3.6492,-3.6492,-3.6492,-3.6492,-3.6492,-3.6492,0.0,0.0,0.0,0.0,0.0,0.0,0.0,0.0,0.0,0.0,0.0,0.0,0.0,0.0,0.0,0.0,0.0,0.0,0.0,0.0,-2.7539,-2.7431,-2.7008,-2.6691,-2.6591,-2.6591,-2.6591,-2.6591,-2.6591,-2.6591,-2.6573,-2.5757,-2.5372,-2.5335,-2.4711,-2.444,-2.4538,-2.4941,-2.5333,-2.5713,-2.6914,-2.7558,-2.7745,-2.7888,-2.8321,0.0,0.0,0.0,0.0,0.0,0.0,0.0,-2.851,-2.851,-2.851,-2.851,-2.851,-2.851,-2.851,-2.851,0.0,0.0,-2.851,-2.851,-2.851,-2.851,-2.851,-2.851,-2.851,0.0,0.0,0.0,0.0,0.0,0.0,0.0,0.0,0.0,0.0,0.0,0.0,0.0,0.0,0.0,0.0,0.0,0.0,0.0,0.0,0.0,0.0,-3.4558,-3.5548,-3.593,-3.5737,-3.5722,-3.56,0.0,-3.4819,-3.4557,-3.4572,-3.471,-3.5063,-3.56,-3.6199,-3.6492,-3.6492,-3.6492,-3.6492,-3.6492,-3.6492,-3.6492,-3.6492,-3.6492,-3.6492,-3.6492,0.0,0.0,0.0,0.0,0.0,0.0,0.0,0.0,0.0,0.0,0.0,0.0,0.0,0.0,0.0,0.0,0.0,0.0,0.0,0.0,0.0,-2.7431,-2.6909,-2.6591,-2.6591,-2.6591,-2.6591,-2.6591,-2.6591,-2.6591,-2.6573,-2.5862,-2.558,-2.5543,-2.5011,-2.4735,-2.4932,-2.5137,-2.5333,-2.5625,-2.6733,-2.7189,-2.718,-2.7263,-2.7875,-2.8454,-2.7541,0.0,0.0,0.0,0.0,0.0,0.0,0.0,-2.851,-2.851,-2.851,-2.851,-2.851,0.0,0.0,-2.851,0.0,-2.851,-2.851,-2.851,-2.851,-2.851,0.0,0.0,0.0,0.0,0.0,0.0,0.0,0.0,0.0,0.0,0.0,0.0,0.0,0.0,0.0,0.0,0.0,0.0,0.0,0.0,0.0,-3.4647,-3.5094,-3.4876,-3.5993,-3.6292,-3.5722,-3.5856,-3.559,-3.4983,-3.4099,-3.3493,-3.3218,-3.4109,-3.4601,-3.4729,-3.5646,-3.5752,-3.5377,-3.6166,-3.6352,-3.6148,-3.6414,-3.6492,-3.6492,-3.6492,-3.6492,-3.6492,0.0,0.0,0.0,0.0,0.0,0.0,0.0,0.0,0.0,0.0,0.0,0.0,0.0,0.0,0.0,0.0,0.0,0.0,0.0,0.0,0.0,0.0,-2.6899,-2.6691,-2.6591,-2.6591,-2.6591,-2.6591,-2.67,-2.6654,-2.6571,-2.6036,-2.575,-2.5647,-2.5182,-2.5128,-2.5333,-2.5342,-2.5538,-2.5732,-2.6648,-2.6914,-2.6907,-2.6822,-2.7349,-2.8012,-2.7281,-2.751,-2.8259,-2.8431,0.0,0.0,0.0,0.0,-2.851,-2.851,-2.851,-2.851,-2.851,0.0,-2.851,-2.851,-2.851,0.0,-2.851,-2.851,-2.851,0.0,0.0,0.0,0.0,0.0,0.0,0.0,0.0,0.0,0.0,0.0,0.0,0.0,0.0,0.0,0.0,0.0,0.0,0.0,0.0,0.0,-3.4142,-3.534,-3.5837,-3.532,-3.6261,-3.6318,-3.549,-3.5615,-3.5241,-3.4275,-3.3031,-3.212,-3.1655,-3.3178,-3.3815,-3.3758,-3.4759,-3.4788,-3.4218,-3.5626,-3.5993,-3.5752,-3.6289,-3.6492,-3.6492,-3.6492,-3.6492,-3.6492,0.0,0.0,0.0,0.0,0.0,0.0,0.0,0.0,0.0,0.0,0.0,0.0,0.0,0.0,0.0,0.0,0.0,0.0,0.0,0.0,0.0,0.0,-2.6989,-2.689,-2.6591,-2.6591,-2.6591,-2.6591,-2.6791,-2.6812,-2.6467,-2.6001,-2.5591,-2.52,-2.5248,-2.5235,-2.5333,-2.5538,-2.5645,-2.5732,-2.582,-2.5917,-2.5818,-2.5109,-2.5401,-2.6167,-2.5999,-2.6588,-2.751,-2.8259,-2.851,0.0,0.0,0.0,-2.851,-2.851,-2.851,-2.851,0.0,0.0,-2.851,0.0,-2.851,-2.851,0.0,0.0,0.0,0.0,0.0,0.0,0.0,0.0,0.0,0.0,0.0,0.0,0.0,0.0,0.0,0.0,0.0,0.0,0.0,0.0,0.0,0.0,0.0,0.0,-3.4927,-3.6182,-3.6935,-3.7027,-3.7179,-3.6982,-3.6587,-3.5482,-3.4447,-3.338,-3.1928,-3.1161,-3.1087,-3.1323,-3.218,-3.3468,-3.3862,-3.4242,-3.4645,-3.4923,-3.5301,-3.5752,-3.6289,-3.6492,-3.6492,-3.6492,-3.6492,-3.6492,0.0,0.0,0.0,0.0,0.0,0.0,0.0,0.0,0.0,0.0,0.0,0.0,0.0,0.0,0.0,-2.8291,0.0,0.0,0.0,0.0,0.0,-2.7206,-2.7098,-2.689,-2.6591,-2.6791,-2.6781,-2.6781,-2.7107,-2.6877,-2.6248,-2.6276,-2.5964,-2.5528,-2.5516,-2.5538,-2.5538,-2.5645,-2.5742,-2.5742,-2.5742,-2.6004,-2.6365,-2.4923,-2.531,-2.6523,-2.5412,-2.6008,-2.7267,-2.7672,-2.8099,-2.851,-2.851,0.0,0.0,0.0,-2.851,-2.851,-2.851,-2.851,-2.851,0.0,-2.851,-2.8578,-2.9028,0.0,0.0,0.0,0.0,0.0,0.0,0.0,0.0,0.0,0.0,0.0,0.0,0.0,0.0,0.0,0.0,0.0,0.0,0.0,0.0,0.0,0.0,-3.6056,-3.5804,-3.7131,-3.752,-3.6817,-3.7118,-3.6754,-3.5678,-3.507,-3.3936,-3.2173,-3.1146,-3.0613,-3.0613,-3.0613,-3.0998,-3.1708,-3.2437,-3.2638,-3.246,-3.3813,-3.4352,-3.4404,-3.5616,-3.6022,-3.6085,-3.6414,-3.6492,-3.6492,0.0,0.0,0.0,0.0,0.0,0.0,0.0,0.0,0.0,0.0,0.0,0.0,0.0,0.0,0.0,0.0,-2.8291,0.0,0.0,0.0,0.0,-2.7539,-2.7314,-2.7107,-2.68,-2.6999,-2.7098,-2.7098,-2.7431,-2.7102,-2.6275,-2.6593,-2.6415,-2.5884,-2.5771,-2.5742,-2.5742,-2.5742,-2.5742,-2.5732,-2.6014,-2.6552,-2.7107,-2.5859,-2.6128,-2.7162,-2.5894,-2.619,-2.7267,-2.7429,-2.7926,-2.851,-2.851,-2.851,0.0,0.0,0.0,-2.851,0.0,0.0,-2.859,-2.8736,-2.8657,-2.8736,0.0,0.0,0.0,0.0,0.0,0.0,0.0,0.0,0.0,0.0,0.0,0.0,0.0,0.0,0.0,0.0,0.0,0.0,0.0,0.0,0.0,0.0,0.0,-3.7011,-3.6692,-3.7594,-3.7633,-3.6587,-3.6715,-3.6163,-3.4924,-3.4345,-3.3193,-3.1549,-3.0584,-3.0144,-3.0144,-3.0144,-3.0144,-3.0172,-3.1183,-3.1228,-3.0857,-3.2765,-3.3412,-3.3382,-3.4916,-3.5559,-3.5752,-3.6148,-3.6352,-3.6492,0.0,0.0,0.0,0.0,0.0,0.0,0.0,0.0,0.0,0.0,0.0,0.0,-2.9428,-2.8717,-2.8291,-2.8291,-2.8291,-2.8291,-2.8291,-2.8291,0.0,-2.7853,-2.7853,0.0,-2.7323,-2.7323,-2.7431,-2.7431,-2.7745,-2.742,-2.6593,-2.6807,-2.6572,-2.5674,-2.5742,-2.5742,-2.5742,-2.5742,-2.5742,-2.583,-2.6733,-2.7189,-2.7232,-2.7769,-2.7654,-2.7382,-2.7646,-2.7587,-2.7348,-2.8179,-2.8431,-2.851,-2.851,-2.851,-2.851,0.0,0.0,0.0,0.0,-2.851,0.0,-2.9484,-2.9028,0.0,0.0,0.0,0.0,0.0,0.0,0.0,0.0,0.0,0.0,0.0,0.0,0.0,0.0,0.0,0.0,0.0,0.0,0.0,0.0,0.0,0.0,0.0,0.0,-3.7342,-3.7342,-3.7375,-3.73,-3.7252,-3.5995,-3.525,-3.5185,-3.3107,-3.1977,-3.189,-3.0343,-2.9665,-2.9665,-2.9665,-2.9665,-2.9665,-3.0172,-3.0701,-3.1243,-3.1968,-3.2681,-3.3316,-3.4508,-3.5285,-3.5688,-3.5752,-3.6085,-3.6554,0.0,0.0,0.0,0.0,0.0,0.0,0.0,0.0,0.0,0.0,0.0,0.0,0.0,-2.9006,-2.8291,-2.8291,-2.8291,-2.8291,-2.8291,-2.8291,0.0,-2.796,-2.7853,-2.7745,-2.7431,-2.7638,-2.7745,-2.7745,-2.796,-2.7746,-2.691,-2.691,-2.6553,-2.5742,-2.5742,-2.5742,-2.5742,-2.5742,-2.61,-2.6733,-2.6999,-2.7934,-2.9087,-2.8338,-2.8133,-2.8177,-2.7413,-2.7171,-2.7267,-2.7592,-2.8018,-2.851,-2.851,-2.851,-2.851,-2.851,-2.851,-2.851,0.0,0.0,0.0,-2.9691,-2.9549,-2.9704,0.0,0.0,0.0,0.0,0.0,0.0,0.0,0.0,0.0,0.0,0.0,0.0,0.0,0.0,0.0,0.0,0.0,0.0,0.0,0.0,0.0,0.0,0.0,0.0,-3.7343,-3.6938,-3.6448,-3.5963,-3.5445,-3.4788,-3.391,-3.2554,-3.1721,-3.1319,-3.0176,-2.9602,-2.9602,-2.9602,-2.9602,-2.9602,-2.9789,-2.9964,-3.0219,-3.0843,-3.148,-3.2198,-3.333,-3.4141,-3.4743,-3.5429,-3.5816,-3.6085,0.0,0.0,0.0,0.0,0.0,0.0,0.0,0.0,0.0,-3.4483,0.0,0.0,0.0,0.0,-2.8291,-2.8291,-2.8291,-2.8291,-2.8291,-2.8291,-2.8184,-2.8067,-2.8067,-2.797,-2.7755,-2.7825,0.0,0.0,-2.7892,-2.7568,-2.7012,-2.6875,-2.6426,-2.5742,-2.5742,-2.5742,-2.5732,-2.61,-2.6552,-2.7284,-2.7934,-2.8773,-2.967,-2.9432,-2.8899,-2.8275,-2.7935,-2.7486,-2.7267,0.0,-2.8007,-2.851,-2.851,-2.851,-2.851,-2.851,-2.851,-2.851,-2.851,0.0,0.0,0.0,0.0,-3.0304,0.0,0.0,0.0,0.0,0.0,0.0,0.0,0.0,0.0,0.0,0.0,0.0,0.0,0.0,0.0,0.0,0.0,0.0,0.0,0.0,0.0,0.0,0.0,0.0,-3.7323,-3.6432,-3.559,-3.4845,-3.4813,-3.4298,-3.3198,-3.2321,-3.1607,-3.097,-3.0068,-2.9602,-2.9602,-2.9602,-2.9602,-2.9602,-2.9602,-2.9602,-2.9659,-3.0263,-3.0909,-3.1622,-3.2549,-3.3417,-3.4206,-3.4876,-3.5285,-3.5544,0.0,0.0,0.0,0.0,0.0,0.0,0.0,0.0,-3.5667,-3.3499,0.0,0.0,0.0,0.0,0.0,-2.8291,-2.8291,-2.8291,-2.8291,-2.8291,-2.8291,-2.8291,0.0,0.0,0.0,0.0,0.0,0.0,0.0,0.0,0.0,0.0,-2.6251,-2.583,-2.583,-2.583,-2.582,-2.6829,-2.7189,-2.7369,-2.9418,-2.9612,-2.8958,-3.0913,0.0,0.0,-2.947,-2.8893,0.0,-2.8179,0.0,0.0,-2.851,-2.851,-2.851,-2.851,-2.851,-2.851,0.0,0.0,0.0,0.0,0.0,0.0,0.0,0.0,0.0,0.0,0.0,0.0,0.0,0.0,0.0,0.0,0.0,0.0,0.0,0.0,0.0,0.0,0.0,0.0,0.0,0.0,0.0,0.0,0.0,-3.729,-3.729,-3.593,-3.4829,-3.4117,-3.4101,-3.3764,-3.3198,-3.2321,-3.1549,-3.0984,-3.0068,-2.9602,-2.9602,-2.9602,-2.9602,-2.9602,-2.9602,-2.9602,-2.9659,-3.0249,-3.0895,-3.1555,-3.2145,-3.3078,-3.4085,-3.407,-3.4409,-3.5073,0.0,0.0,0.0,0.0,0.0,0.0,0.0,0.0,-3.5667,0.0,0.0,0.0,-2.9333,-2.8611,-2.8291,-2.8291,-2.8291,-2.8291,-2.8291,-2.8291,-2.8291,-2.8291,-2.8291,-2.8291,0.0,0.0,0.0,0.0,0.0,0.0,0.0,0.0,0.0,0.0,-2.7851,-2.7851,-2.7851,-2.7379,-2.7189,-2.7369,-2.9418,-3.0068,0.0,0.0,0.0,0.0,0.0,-2.9236,-2.8179,0.0,-2.851,-2.851,0.0,-2.851,-2.851,-2.851,-2.851,-2.851,-2.8645,0.0,0.0,0.0,0.0,0.0,0.0,0.0,0.0,0.0,0.0,0.0,0.0,0.0,0.0,0.0,0.0,0.0,0.0,0.0,0.0,0.0,0.0,0.0,0.0,0.0,0.0,0.0,-3.654,-3.6594,-3.6594,-3.5202,-3.4311,-3.4101,-3.3697,-3.3161,-3.2641,-3.1721,-3.094,-3.0326,-2.9851,-2.9602,-2.9602,-2.9602,-2.9602,-2.9602,-2.9602,-2.9602,-2.9617,-2.9785,-3.0502,-3.1513,-3.1668,-3.2452,-3.3577,-3.3948,-3.4206,-3.4476,0.0,0.0,0.0,0.0,0.0,0.0,0.0,-3.6358,-3.5667,0.0,0.0,0.0,-2.9016,-2.8504,-2.8291,-2.8291,-2.8291,-2.8291,-2.8291,-2.8291,-2.8291,-2.8291,-2.8291,-2.8291,-2.8291,0.0,0.0,0.0,0.0,0.0,0.0,0.0,0.0,0.0,0.0,0.0,-2.868,0.0,0.0,0.0,-3.017,0.0,0.0,-3.1044,-3.0363,0.0,0.0,0.0,-2.8007,-2.8339,-2.851,0.0,0.0,0.0,-2.851,-2.851,-2.8578,-2.8657,-2.8803,-2.9172,-2.9704,0.0,0.0,0.0,-3.2903,-3.3507,0.0,0.0,0.0,0.0,0.0,0.0,0.0,0.0,0.0,0.0,0.0,0.0,0.0,0.0,0.0,0.0,0.0,0.0,0.0,-3.6384,-3.6064,-3.5728,-3.5412,-3.457,-3.4101,-3.4101,-3.3527,-3.2949,-3.2398,-3.1507,-3.0777,-3.0111,-2.9851,-2.9651,-2.9602,-2.9602,-2.9602,-2.9602,-2.9602,-2.9602,-2.9602,-2.9602,-3.0347,-3.1485,-3.1485,-3.2244,-3.3312,-3.3632,-3.3825,-3.4031,0.0,0.0,0.0,0.0,0.0,0.0,0.0,-3.6358,-3.5667,0.0,-3.2655,-3.1122,-2.8601,-2.8291,-2.8291,-2.8291,-2.8291,-2.8291,-2.8291,-2.8291,-2.8291,-2.8291,-2.8291,-2.8291,-2.8291,0.0,0.0,0.0,0.0,0.0,0.0,0.0,0.0,0.0,0.0,0.0,0.0,0.0,0.0,-3.0531,-3.1371,-3.1104,0.0,0.0,-2.9561,-2.7732,-2.8881,-2.8456,-2.7429,-2.8259,-2.851,0.0,0.0,0.0,0.0,0.0,-2.8657,-2.8882,-2.8949,-2.9781,-3.0607,-3.0758,0.0,0.0,-3.3044,-3.3632,-3.4128,0.0,0.0,0.0,0.0,0.0,0.0,0.0,0.0,0.0,0.0,0.0,0.0,0.0,0.0,0.0,0.0,-3.5037,-3.5706,-3.6322,-3.5801,-3.5036,-3.4194,-3.4032,-3.3984,-3.3984,-3.3371,-3.2826,-3.2382,-3.1522,-3.0777,-3.0111,-2.9898,-2.9699,-2.9602,-2.9602,-2.9602,-2.9602,-2.9602,-2.9602,-2.9617,-2.9673,-3.0417,-3.1485,-3.1485,-3.2244,-3.3326,-3.3326,-3.3466,-3.373,-3.6896,0.0,0.0,0.0,0.0,0.0,0.0,0.0,-3.5966,-3.4678,-3.2443,-3.0307,-2.8495,-2.8291,-2.8291,-2.8291,-2.8291,-2.8291,-2.8291,-2.8291,-2.8291,-2.8291,-2.8291,-2.8291,-2.8291,-2.7881,0.0,0.0,0.0,0.0,0.0,0.0,0.0,0.0,0.0,0.0,0.0,0.0,0.0,-3.1925,-3.1749,0.0,-3.0293,-3.0711,-3.0372,-2.9484,-2.9402,-2.8874,-2.8259,-2.8431,-2.851,-2.851,0.0,0.0,0.0,-2.8724,0.0,0.0,0.0,-3.0456,0.0,0.0,0.0,0.0,-3.3157,-3.3756,-3.4346,0.0,0.0,0.0,0.0,0.0,0.0,0.0,0.0,0.0,0.0,0.0,0.0,0.0,0.0,0.0,0.0,-3.5037,-3.5706,-3.6322,-3.6235,-3.5562,-3.4361,-3.3689,-3.3371,-3.3371,-3.2391,-3.2033,-3.2398,-3.1116,-3.0326,-3.0111,-2.9898,-2.9699,-2.9602,-2.9602,-2.9602,-2.9602,-2.9602,-2.9602,-2.9645,-3.0136,-3.0797,-3.1485,-3.1485,-3.2244,-3.3326,-3.3326,-3.3466,-3.3675,-3.6546,0.0,0.0,0.0,0.0,0.0,0.0,0.0,-3.5966,-3.4969,-3.2443,-3.011,-2.8611,-2.8398,-2.8291,-2.8291,-2.8291,-2.8291,-2.8291,-2.8291,-2.8291,-2.8291,-2.8291,-2.8193,-2.7988,-2.8267,0.0,0.0,0.0,0.0,0.0,0.0,0.0,0.0,0.0,0.0,0.0,0.0,-3.2213,-3.2213,-3.1849,0.0,-3.1009,-3.0685,-3.0314,-2.9977,-2.9184,-2.8739,-2.851,-2.851,-2.851,0.0,0.0,-2.8657,-2.8791,0.0,-2.9328,-2.9947,0.0,0.0,0.0,-3.2506,0.0,0.0,0.0,-3.4113,-3.4414,0.0,0.0,0.0,0.0,0.0,0.0,0.0,0.0,0.0,0.0,0.0,0.0,0.0,0.0,0.0,0.0,-3.4721,-3.5135,-3.5769,-3.5859,-3.5393,-3.4336,-3.3341,-3.2788,-3.2788,-3.1977,-3.1652,-3.1936,-3.097,-3.0387,-3.0219,-2.9685,-2.9484,-2.9651,-2.8931,-2.8944,-2.9602,-2.9198,-2.9261,-2.9659,-3.0263,-3.0909,-3.1527,-3.1822,-3.2511,-3.3326,-3.3396,-3.3605,-3.3744,-3.6451,0.0,0.0,0.0,0.0,0.0,0.0,0.0,-3.5953,-3.4569,-3.2443,-3.0525,-2.8834,-2.8514,-2.8398,-2.8291,-2.8291,-2.8291,-2.8291,-2.8291,-2.8398,-2.8601,-2.8601,-2.8499,-2.8271,-2.8973,-2.9011,0.0,0.0,0.0,0.0,0.0,0.0,0.0,0.0,0.0,0.0,0.0,0.0,-3.2201,0.0,-3.1849,-3.1828,-3.0579,-3.0086,-2.9941,-2.8964,-2.8578,-2.8578,-2.8578,-2.8578,-2.8578,-2.8578,-2.8736,0.0,0.0,0.0,0.0,0.0,0.0,0.0,0.0,0.0,-3.4414,0.0,0.0,0.0,0.0,0.0,0.0,0.0,0.0,0.0,0.0,0.0,0.0,0.0,0.0,0.0,0.0,0.0,0.0,0.0,-3.4654,-3.4996,-3.5477,-3.554,-3.5221,-3.44,-3.3119,-3.2354,-3.2231,-3.1652,-3.1364,-3.148,-3.0911,-3.0507,-3.0312,-2.9393,-2.9205,-2.956,-2.813,-2.8143,-2.9149,-2.8835,-2.9018,-2.9638,-3.0507,-3.119,-3.1724,-3.2283,-3.2847,-3.3396,-3.3605,-3.3744,-3.3951,-3.5793,-3.5642,0.0,0.0,0.0,0.0,0.0,0.0,-3.5559,-3.3365,-3.2767,-3.1553,-2.893,-2.8621,-2.8514,-2.8291,-2.8291,-2.8291,-2.8291,-2.8291,-2.8698,-2.9723,-2.9713,-2.9922,-3.0475,-3.0143,-3.0248,0.0,0.0,0.0,0.0,0.0,0.0,0.0,-3.255,0.0,0.0,0.0,-3.281,0.0,-3.2475,-3.2113,0.0,-3.0761,-3.0265,-2.9941,-2.9112,-2.8803,-2.8803,0.0,-2.8803,-2.8803,0.0,-2.9028,-2.9341,-2.9341,0.0,0.0,0.0,0.0,0.0,0.0,-3.4332,0.0,0.0,0.0,-3.4414,-3.4414,0.0,0.0,0.0,0.0,0.0,0.0,0.0,0.0,0.0,0.0,0.0,0.0,0.0,0.0,0.0,0.0,-3.6229,-3.6276,-3.6244,-3.5671,-3.4539,-3.3165,-3.2137,-3.161,-3.1029,-3.097,-3.148,-3.0911,-3.0507,-3.0312,-2.9393,-2.8953,-2.8853,-2.7934,-2.7617,-2.7776,-2.8891,-2.9452,-2.9613,-3.1428,-3.2244,-3.2314,-3.2588,-3.3053,-3.3605,-3.3827,-3.3951,-3.4059,-3.516,-3.5328,0.0,0.0,0.0,0.0,0.0,0.0,0.0,-3.4166,-3.3155,-3.1836,-3.0016,-2.9016,-2.8408,-2.8291,0.0,-2.8291,0.0,0.0,-2.9408,-2.9922,0.0,-3.0529,-3.0635,-3.074,-3.081,0.0,-3.1389,0.0,0.0,0.0,0.0,0.0,-3.2896,0.0,-3.2896,0.0,-3.2896,0.0,0.0,0.0,0.0,-3.0893,-3.0126,-2.9504,-2.9132,-2.8961,-2.8961,0.0,-2.8961,0.0,0.0,0.0,0.0,0.0,0.0,0.0,0.0,0.0,0.0,0.0,0.0,0.0,-3.4414,0.0,-3.4414,0.0,0.0,0.0,0.0,0.0,0.0,0.0,-3.4414,0.0,0.0,0.0,0.0,0.0,0.0,0.0,0.0,0.0,0.0,0.0,0.0,-3.4988,-3.4471,-3.2824,-3.1748,-3.1543,-3.0937,-3.0747,-3.097,-3.0747,-3.0568,-3.0447,-2.9079,-2.8634,-2.9058,-2.8012,-2.7764,-2.8142,-2.9605,-3.0092,-3.0106,-3.1816,-3.2549,-3.2645,-3.3271,-3.3571,-3.3605,-3.3937,-3.4059,-3.4128,-3.4287,-3.4713,-3.519,0.0,0.0,0.0,0.0,0.0,0.0,0.0,0.0,0.0,-3.0813,-2.9713,0.0,-2.8398,-2.8504,-2.8504,0.0,0.0,-3.0161,0.0,0.0,0.0,0.0,-3.1588,-3.1612,0.0,0.0,0.0,0.0,0.0,0.0,0.0,0.0,-3.3081,-3.3081,0.0,-3.2982,-3.276,-3.2199,-3.1717,-3.124,-3.0692,-3.0047,-2.93,-2.9209,-2.9197,-2.9197,-2.9197,-2.9197,0.0,-2.9197,0.0,0.0,0.0,0.0,0.0,-3.2362,0.0,0.0,0.0,0.0,0.0,0.0,0.0,0.0,0.0,0.0,0.0,0.0,0.0,0.0,-3.4414,0.0,-3.4414,0.0,0.0,0.0,0.0,0.0,0.0,0.0,0.0,0.0,0.0,-3.4936,-3.4562,-3.4382,-3.2893,-3.1975,-3.1801,-3.1351,-3.1105,-3.1105,-3.1105,-3.1105,-3.1105,-2.9384,-2.8862,-2.9476,-2.8153,-2.7927,-2.8651,-3.0077,-3.0705,-3.0842,-3.2384,-3.3007,-3.3118,-3.3819,-3.3937,-3.3799,-3.4074,-3.4196,-3.4196,-3.329,-3.3571,-3.4286,0.0,0.0,0.0,0.0,0.0,0.0,0.0,0.0,0.0,0.0,0.0,0.0,0.0,0.0,-2.9026,-2.9026,0.0,-3.0928,0.0,0.0,-3.3019,0.0,0.0,0.0,0.0,0.0,0.0,0.0,0.0,0.0,0.0,0.0,-3.3081,-3.3081,-3.3081,-3.3081,-3.3018,-3.2441,-3.1587,-3.0578,0.0,-2.9873,-2.9702,-2.9509,0.0,0.0,-2.9419,-2.9419,0.0,0.0,0.0,0.0,0.0,0.0,0.0,0.0,0.0,0.0,-3.4414,0.0,0.0,0.0,0.0,-3.4414,0.0,0.0,0.0,0.0,0.0,-3.4414,-3.4414,-3.4414,0.0,0.0,0.0,0.0,0.0,0.0,0.0,0.0,0.0,0.0,-3.54,-3.537,-3.507,-3.4397,-3.3774,-3.3122,-3.2513,-3.2469,-3.2454,-3.2454,-3.2454,-3.2454,-3.2391,-3.0703,-2.9941,-2.9941,-2.8286,-2.7936,-2.8743,-3.013,-3.1178,-3.1986,-3.3293,-3.3868,-3.3868,-3.4059,-3.4059,-3.4128,-3.4346,-3.4414,-3.4414,-3.3167,-3.3232,-3.3583,0.0,0.0,0.0,0.0,-3.6358,0.0,0.0,0.0,0.0,0.0,-3.2353,-3.1644,0.0,0.0,-3.1105,-3.0691,-3.165,0.0,0.0,0.0,-3.3271,0.0,0.0,0.0,0.0,0.0,0.0,0.0,0.0,0.0,0.0,0.0,-3.3081,0.0,0.0,0.0,0.0,0.0,-3.0721,-3.0068,0.0,0.0,-2.9792,-2.9702,-2.9689,0.0,-2.9689,-2.9689,-2.9689,-2.9689,-3.0254,-3.0895,-3.0895,-3.1988,0.0,0.0,0.0,-3.4414,-3.4414,0.0,0.0,0.0,0.0,0.0,0.0,0.0,0.0,0.0,0.0,-3.4414,-3.4414,-3.4414,-3.4414,0.0,0.0,0.0,0.0,0.0,0.0,0.0,0.0,0.0,-3.4721,-3.4721,-3.4618,0.0,-3.3806,-3.3369,-3.3151,-3.2745,-3.2513,-3.2513,-3.2513,-3.2513,-3.2449,-3.0825,-3.0351,-3.0948,-3.0214,-2.9947,-3.0246,-3.2166,-3.2737,-3.2541,-3.3616,-3.4005,-3.4074,-3.421,-3.4278,-3.4346,-3.4346,-3.4414,-3.4534,-3.3154,-3.3081,0.0,0.0,0.0,0.0,0.0,0.0,0.0,0.0,-3.5584,0.0,-3.4483,0.0,-3.2582,0.0,-3.2115,-3.1889,-3.1563,-3.2518,0.0,-3.2357,-3.3076,0.0,0.0,0.0,0.0,0.0,0.0,-3.3081,0.0,0.0,0.0,0.0,0.0,-3.3081,-3.3081,-3.3081,-3.2742,0.0,0.0,-3.0281,0.0,0.0,-2.9792,-2.9792,0.0,-2.9792,-2.9792,-2.9792,-2.9792,-2.9792,-2.9792,-3.0495,-3.1341,-3.1341,-3.242,-3.3604,-3.3604,-3.4045,0.0,-3.4414,-3.4414,0.0,-3.4414,0.0,0.0,0.0,0.0,0.0,0.0,0.0,-3.4414,-3.4414,-3.4414,-3.4414,0.0,-3.4481,0.0,0.0,0.0,0.0,0.0,0.0,-3.4481,-3.4414,-3.4481,-3.4481,0.0,0.0,-3.3804,-3.3804,-3.3398,-3.3195,-3.3195,-3.3195,-3.3195,-3.3195,-3.1762,-3.1337,-3.1735,-3.1482,-3.1361,-3.1433,-3.3059,-3.3618,-3.3339,-3.3977,-3.4196,-3.4196,-3.4346,-3.4414,-3.4414,-3.4414,-3.4414,-3.4534,-3.324,0.0,0.0,0.0,-3.4788,0.0,0.0,0.0,-3.632,0.0,-3.6131,-3.5522,-3.4509,-3.3958,-3.3254,-3.2145,-3.183,-3.1651,-3.1628,-3.257,0.0,0.0,-3.3303,-3.3608,-3.3081,0.0,0.0,0.0,0.0,0.0,0.0,0.0,0.0,0.0,-3.3081,0.0,-3.3081,-3.3043,-3.2692,-3.2039,-3.0997,-3.0269,-2.9792,-2.9792,0.0,-2.9792,-2.9792,-2.9792,-2.9792,-2.9792,-2.9792,-2.9856,-2.9856,-3.0934,-3.2146,-3.2146,-3.3241,-3.4414,-3.4414,-3.4414,-3.4414,-3.4414,0.0,0.0,0.0,0.0,-3.4414,0.0,0.0,0.0,0.0,0.0,0.0,-3.4414,-3.4414,-3.4481,-3.4698,0.0,0.0,0.0,0.0,0.0,0.0,-3.4563,-3.4631,-3.4414,-3.4563,-3.4631,0.0,0.0,-3.4414,-3.4414,-3.4414,-3.4414,-3.4414,-3.4414,-3.4414,-3.4414,-3.352,-3.2791,-3.2218,-3.2146,-3.2146,-3.2218,-3.2932,-3.3673,-3.4414,-3.4414,-3.4414,-3.4414,-3.4414,-3.4414,-3.4414,-3.4414,-3.4414,-3.4414,-3.324,-3.3081,-3.3257,0.0,-3.4474,-3.5115,0.0,0.0,0.0,0.0,-3.5311,-3.4957,-3.4669,-3.4545,-3.4262,-3.4053,-3.3943,0.0,0.0,0.0,0.0,-3.2947,-3.3195,-3.3219,-3.3081,-3.3081,-3.3081,-3.3081,0.0,0.0,-3.3081,0.0,0.0,0.0,0.0,0.0,-3.3056,-3.2616,-3.1888,-3.0972,-3.0281,-2.9917,0.0,0.0,-2.9792,-2.9792,-2.9792,-2.9792,-2.9792,-2.9792,-3.0126,-3.062,-3.062,-3.1709,-3.2932,-3.2932,-3.3604,-3.4414,-3.4414,-3.4414,-3.4414,-3.4414,-3.4414,-3.4414,0.0,0.0,0.0,0.0,0.0,0.0,0.0,0.0,0.0,-3.4631,-3.4631,-3.4631,0.0,0.0,0.0,-3.4868,0.0,0.0,0.0,-3.475,-3.4698,-3.4631,-3.4549,0.0,0.0,0.0,0.0,-3.4414,-3.4414,-3.4414,-3.4414,-3.4414,-3.4414,-3.4414,-3.3017,-3.2875,-3.3756,-3.2591,-3.2733,-3.3825,-3.4045,-3.4196,-3.4414,-3.4414,-3.4414,-3.4414,-3.4414,-3.4414,-3.4414,-3.4414,-3.4414,-3.4481,-3.381,0.0,0.0,-3.3483,0.0,0.0,-3.5102,0.0,0.0,-3.519,-3.4914,0.0,-3.4726,-3.4512,-3.4361,-3.4361,-3.4135,0.0,-3.3558,0.0,0.0,-3.3093,-3.3081,-3.3081,-3.3081,-3.3081,0.0,-3.3081,0.0,0.0,-3.3081,0.0,0.0,0.0,0.0,-3.293,-3.2641,-3.1851,-3.1173,-3.057,-3.0018,0.0,0.0,-2.9792,-2.9792,-2.9792,-2.9792,-2.9792,-2.9869,-3.0203,-3.0545,-3.0957,-3.1328,-3.2205,-3.3213,-3.3213,-3.3742,-3.4414,-3.4414,-3.4414,-3.4414,-3.4414,-3.4414,-3.4414,-3.4414,-3.4481,-3.4563,0.0,0.0,0.0,0.0,0.0,0.0,0.0,0.0,0.0,0.0,0.0,0.0,0.0,-3.5096,0.0,0.0,0.0,-3.4698,-3.475,0.0,0.0,0.0,0.0,0.0,-3.4414,-3.4414,-3.4414,-3.4414,-3.4414,-3.4414,-3.4414,-3.3157,-3.3017,-3.3825,-3.2946,-3.3017,-3.3894,-3.4264,-3.4414,-3.4414,-3.4414,-3.4414,-3.4414,-3.4414,-3.4414,-3.4414,-3.4414,-3.4414,-3.4481,-3.4551,0.0,0.0,0.0,0.0,0.0,0.0,-3.4562,0.0,-3.4613,0.0,-3.4512,-3.4512,-3.4073,-3.3796,-3.3796,0.0,-3.3081,-3.3081,-3.3081,-3.3081,-3.3081,-3.3081,-3.3081,-3.3081,-3.3081,-3.3081,0.0,0.0,0.0,0.0,0.0,0.0,0.0,0.0,0.0,0.0,-3.1035,-3.057,-3.047,-2.998,-2.9792,-2.9792,-2.9792,-2.9856,-2.9921,-2.9921,-2.9921,-3.0075,-3.0683,-3.1031,-3.1328,-3.2001,-3.272,-3.3367,-3.3367,-3.3811,-3.4414,-3.4414,-3.4414,-3.4414,-3.4414,-3.4414,-3.4414,-3.4414,-3.4563,-3.4698,-3.4765,-3.4817,-3.4935,0.0,0.0,0.0,0.0,0.0,0.0,0.0,0.0,0.0,0.0,0.0,0.0,0.0,0.0,0.0,0.0,0.0,0.0,0.0,0.0,0.0,-3.4414,-3.4414,0.0,-3.4414,0.0,-3.4414,-3.4414,-3.3589,-3.3227,-3.3367,-3.3227,-3.3227,-3.3367,-3.4113,-3.4414,-3.4414,-3.4414,-3.4414,-3.4414,-3.4414,-3.4414,-3.4414,-3.4414,-3.4481,-3.4587,-3.4716,0.0,0.0,0.0,0.0,-3.3257,-3.3357,-3.3759,-3.4048,-3.4048,-3.3646,-3.337,-3.337,-3.3282,-3.3219,-3.3219,-3.3131,0.0,0.0,0.0,0.0,-3.3081,-3.3081,-3.3081,-3.3081,-3.3081,-3.3081,0.0,0.0,0.0,0.0,0.0,0.0,0.0,0.0,0.0,-3.1499,-3.0884,0.0,-2.993,-2.9829,-2.9792,-2.9792,-2.9792,-3.0216,-3.0683,-3.0683,-3.0683,-3.0758,-3.082,-3.1769,-3.2847,-3.2932,-3.352,-3.4182,-3.4182,-3.4264,-3.4414,-3.4414,-3.4414,-3.4414,-3.4414,-3.4414,-3.4414,-3.4631,-3.4698,-3.4765,-3.5096,-3.5016,-3.5001,-3.5359,0.0,0.0,0.0,0.0,0.0,0.0,0.0,0.0,0.0,0.0,-3.5294,0.0,0.0,0.0,0.0,0.0,0.0,0.0,0.0,0.0,0.0,0.0,0.0,0.0,0.0,-3.4414,-3.4414,-3.3589,-3.352,-3.4182,-3.352,-3.3589,-3.4196,-3.4346,-3.4414,-3.4414,-3.4414,-3.4414,-3.4414,-3.4414,-3.4414,-3.4414,-3.4414,-3.4787,-3.5219,0.0,0.0,0.0,0.0,0.0,0.0,0.0,-3.3307,0.0,-3.347,-3.3244,-3.3081,-3.3081,-3.3081,-3.3081,-3.3081,-3.3081,-3.3081,-3.3081,-3.3081,-3.3081,-3.3081,-3.3081,0.0,-3.3081,-3.3081,-3.3081,-3.3081,0.0,0.0,0.0,0.0,0.0,0.0,0.0,-3.2771,0.0,0.0,0.0,-3.0343,-3.0343,-3.0343,-3.0343,-3.0343,-3.0846,-3.1489,-3.1489,-3.1769,-3.206,-3.206,-3.2563,-3.3297,-3.3673,-3.4113,-3.4414,-3.4414,-3.4414,-3.4414,-3.4549,-3.4563,-3.4549,-3.4668,-3.4668,-3.4668,-3.475,-3.4883,-3.5082,-3.5589,-3.5459,-3.5294,-3.5439,-3.5668,0.0,0.0,0.0,0.0,0.0,0.0,0.0,0.0,0.0,0.0,0.0,0.0,0.0,0.0,0.0,0.0,0.0,0.0,0.0,0.0,0.0,0.0,0.0,0.0,0.0,-3.4414,-3.3589,-3.3589,-3.4346,-3.3589,-3.3673,-3.4414,-3.4414,-3.4414,-3.4414,-3.4414,-3.4414,-3.4414,-3.4414,-3.4414,-3.4414,-3.4787,-3.5154,-3.5464,0.0,-3.3313,0.0,0.0,-3.3081,0.0,-3.3081,-3.3081,-3.3081,-3.3081,-3.3081,-3.3081,-3.3081,-3.3081,-3.3081,-3.3081,-3.3081,-3.3081,-3.3081,-3.3081,-3.3081,-3.3081,-3.3081,-3.3081,-3.3081,-3.3081,-3.3081,0.0,0.0,0.0,0.0,0.0,0.0,0.0,0.0,0.0,0.0,0.0,-3.1489,-3.0895,-3.0895,-3.0895,-3.0895,-3.1119,-3.1636,-3.2362,-3.2362,-3.2804,-3.3451,-3.3451,-3.3451,-3.3589,-3.4196,-3.4414,-3.4414,-3.4481,-3.4481,-3.4481,-3.4683,-3.4765,-3.475,-3.4868,-3.4935,-3.4935,-3.4935,-3.5198,-3.5589,-3.6148,-3.6085,-3.5861,-3.5748,-3.6085,0.0,0.0,0.0,0.0,0.0,0.0,0.0,0.0,0.0,0.0,0.0,0.0,0.0,0.0,0.0,0.0,0.0,0.0,0.0,0.0,0.0,-3.4481,-3.4481,0.0,-3.4414,0.0,-3.3742,-3.3811,-3.4414,-3.3742,-3.3811,-3.4414,-3.4414,-3.4414,-3.4414,-3.4414,-3.4414,-3.4414,-3.4414,-3.4414,-3.4467,-3.5204,-3.5514,-3.5755,0.0,0.0,0.0,0.0,0.0,0.0,0.0,-3.3081,-3.3081,-3.3081,-3.3081,-3.3081,-3.3081,-3.3081,-3.3081,-3.3081,-3.3081,-3.3081,-3.3081,-3.3081,-3.3081,-3.3081,-3.3081,-3.3081,-3.3081,-3.3081,-3.3081,0.0,0.0,0.0,0.0,0.0,0.0,0.0,0.0,0.0,0.0,-3.1505,-3.097,-3.0895,-3.0895,-3.0895,-3.097,-3.1709,-3.2434,-3.3073,-3.3073,-3.3604,-3.4264,-3.4264,-3.4264,-3.4264,-3.4414,-3.4414,-3.4414,-3.4631,-3.4698,-3.4683,-3.4868,-3.4868,-3.4868,-3.4935,-3.4935,-3.4935,-3.5148,-3.5653,-3.6133,-3.6368,-3.6845,-3.7011,-3.643,-3.6368,-3.643,0.0,0.0,0.0,0.0,0.0,0.0,-3.6492,0.0,0.0,0.0,0.0,0.0,0.0,0.0,0.0,0.0,0.0,0.0,-3.4698,0.0,-3.4698,-3.4698,-3.4481,0.0,-3.4414,-3.4332,-3.4346,-3.4414,-3.4332,-3.4346,-3.4414,-3.4414,-3.4414,-3.4414,-3.4414,-3.4414,-3.4414,-3.4414,-3.4414,-3.4467,-3.527,-3.5993,-3.6615,0.0,0.0,0.0,0.0,0.0,0.0,0.0,-3.3081,-3.3081,-3.3081,-3.3081,-3.3081,-3.3081,-3.3081,-3.3081,-3.3081,-3.3081,-3.3081,-3.3081,-3.3081,-3.3081,-3.3081,-3.3081,-3.3081,-3.3081,-3.3081,-3.3326,0.0,0.0,0.0,0.0,0.0,0.0,0.0,0.0,-3.3886,-3.3066,-3.3043,-3.272,-3.2277,-3.2277,-3.2277,-3.2349,-3.2648,-3.3227,-3.3894,-3.3894,-3.4113,-3.4414,-3.4414,-3.4414,-3.4414,-3.4549,-3.4563,-3.4616,-3.475,-3.4817,-3.4883,-3.5001,-3.5082,-3.5082,-3.5213,-3.5294,-3.5409,-3.5831,-3.6133,-3.6538,-3.7354,-3.7764,-3.7648,-3.66,-3.7011,-3.7413,0.0,0.0,0.0,0.0,0.0,0.0,0.0,0.0,-3.6133,0.0,0.0,0.0,0.0,0.0,0.0,0.0,0.0,0.0,-3.4817,0.0,-3.475,-3.4698,-3.4631,-3.4481,-3.4414,-3.4414,-3.4414,-3.4414,-3.4414,-3.4414,-3.4414,-3.4414,-3.4414,-3.4414,-3.4414,-3.4414,-3.4414,-3.4549,-3.4787,-3.5204,-3.6087,-3.6798,-3.7456,-3.4316,0.0,-3.3417,0.0,-3.3073,-3.288,-3.3056,-3.3081,-3.3081,-3.3081,-3.3081,-3.3081,-3.3081,-3.3081,-3.3081,-3.3081,-3.3081,-3.3081,-3.3081,-3.3081,-3.3081,-3.3081,-3.3081,0.0,-3.3081,-3.3081,-3.3496,-3.4397,-3.4476,0.0,0.0,0.0,0.0,0.0,-3.4652,-3.4531,-3.3589,-3.3894,-3.3742,-3.3213,-3.3213,-3.3213,-3.3227,-3.3451,-3.3962,-3.4481,-3.4481,-3.4481,-3.4534,-3.4534,-3.4534,-3.4549,-3.4698,-3.4698,-3.4817,-3.4935,-3.5001,-3.5001,-3.5213,-3.5294,-3.5294,-3.5439,-3.5504,-3.5683,-3.6258,-3.6538,-3.7071,-3.8351,-3.8463,-3.8051,-3.7115,-3.7531,-3.7937,-3.7722,0.0,0.0,0.0,0.0,0.0,0.0,-3.6768,-3.643,-3.5861,0.0,0.0,0.0,0.0,0.0,0.0,0.0,0.0,0.0,0.0,0.0,0.0,-3.4765,-3.4631,-3.4481,-3.4414,-3.4414,-3.4414,-3.4414,-3.4414,-3.4414,-3.4414,-3.4414,-3.4481,-3.4481,-3.4481,-3.4549,-3.4683,-3.5103,-3.5755,-3.6631,-3.7354,-3.7994,-3.5581,-3.4052,-3.3028,-3.3553,-3.2867,-3.2416,-3.2993,-3.3081,-3.3081,-3.3081,-3.3081,-3.3081,-3.3081,-3.3081,-3.3081,-3.3081,-3.3081,-3.3081,-3.3081,-3.3081,-3.3081,0.0,0.0,-3.3081,-3.3081,-3.3081,-3.3496,-3.4397,0.0,0.0,-3.3892,0.0,-3.4014,-3.5328,-3.4704,-3.4414,-3.4332,-3.352,-3.3213,-3.3213,-3.3213,-3.3213,-3.3297,-3.4113,-3.4481,-3.4698,-3.4698,-3.475,-3.4868,-3.4868,-3.4868,-3.4868,-3.4765,-3.4817,-3.4935,-3.5148,-3.5213,-3.5228,-3.5439,-3.5504,-3.5504,-3.5504,-3.5504,-3.5683,-3.6258,-3.689,-3.7722,-3.904,-3.8772,-3.8294,-3.8278,-3.7822,-3.7589,-3.8165,0.0,0.0,0.0,0.0,0.0,0.0,-3.7764,-3.7131,-3.6415,0.0,0.0,0.0,0.0,0.0,0.0,0.0,0.0,-3.5213,-3.5213,0.0,-3.5213,-3.4898,-3.4698,-3.4698,-3.4481,-3.4414,-3.4414,-3.4414,-3.4414,-3.4414,-3.4414,-3.4481,-3.4698,-3.4698,-3.475,-3.4868,-3.4935,-3.5299,-3.5961,-3.6814,-3.7531,-3.8238,-3.4467,-3.3795,-3.3176,-3.2429,-3.2072,-3.2016,-3.2403,-3.2491,-3.2629,-3.3031,-3.3081,-3.3081,-3.3081,-3.3081,-3.3081,0.0,-3.3081,-3.3081,0.0,-3.3081,-3.3081,-3.3081,-3.3081,-3.3081,-3.3081,-3.2692,-3.3219,-3.4594,0.0,0.0,0.0,-3.4794,-3.4715,-3.4704,-3.4501,-3.4414,-3.4414,-3.4113,-3.4113,-3.4249,-3.4249,-3.4303,-3.437,-3.4654,-3.4802,-3.4817,-3.4817,-3.4868,-3.4935,-3.4935,-3.5001,-3.5082,-3.5016,-3.5082,-3.5148,-3.5359,-3.5424,-3.5439,-3.5504,-3.5504,-3.5504,-3.5504,-3.5504,-3.5683,-3.6258,-3.7235,-3.8238,-3.9148,-3.9148,-3.8843,-3.8407,-3.8535,-3.8606,-3.8351,-3.8645,0.0,0.0,0.0,0.0,0.0,-3.7764,-3.7131,0.0,-3.5846,0.0,0.0,0.0,0.0,0.0,0.0,0.0,0.0,-3.5424,0.0,-3.5213,-3.5082,-3.4964,-3.4698,-3.4631,-3.4631,-3.4631,-3.4631,-3.4683,-3.4735,-3.4735,-3.4802,-3.4817,-3.4817,-3.4868,-3.4935,-3.5559,-3.618,-3.6814,-3.7632,-3.8367,-3.8969,-3.456,-3.4044,-3.3512,-3.25,-3.2084,-3.1813,-3.1896,-3.1901,-3.2026,-3.239,-3.2441,-3.2441,-3.2441,-3.2441,0.0,-3.3043,-3.3081,-3.3081,-3.3081,-3.3081,-3.3081,-3.3081,-3.2867,-3.2754,-3.2754,0.0,0.0,-3.437,-3.4458,-3.4667,-3.5009,-3.5078,-3.4942,-3.4481,-3.4549,-3.4601,-3.4601,-3.4601,-3.4683,-3.4765,-3.4765,-3.4817,-3.4935,-3.4935,-3.4935,-3.5001,-3.5001,-3.5082,-3.5148,-3.5148,-3.5213,-3.5294,-3.5294,-3.5294,-3.5359,-3.5439,-3.5504,-3.5504,-3.5504,-3.5504,-3.5504,-3.5504,-3.5504,-3.5733,-3.66,-3.778,-3.8772,-3.9202,-3.8914,-3.8606,-3.8645,-3.8606,-3.8606,-3.8662,-3.9023,-3.9272,-3.9272,0.0,0.0,0.0,0.0,0.0,0.0,-3.6022,0.0,0.0,0.0,0.0,0.0,0.0,0.0,-3.5504,-3.5504,0.0,-3.5294,-3.5228,-3.5082,-3.4898,-3.4817,-3.4765,-3.4765,-3.4765,-3.4817,-3.4935,-3.4935,-3.4935,-3.5001,-3.5001,-3.5184,-3.5494,-3.607,-3.6784,-3.7589,-3.8108,-3.8717,-3.9272,-3.5359,-3.4543,0.0,0.0,-3.2412,0.0,-3.141,-3.1336,-3.1348,-3.1386,-3.1386,-3.1386,-3.1386,-3.1386,-3.1813,-3.2867,0.0,0.0,0.0,-3.2955,-3.2955,-3.2955,-3.2525,-3.2235,-3.2152,-3.1682,-3.2251,-3.3846,-3.4839,-3.5063,-3.4414,-3.4631,-3.4698,-3.4698,-3.4868,-3.4935,-3.4935,-3.4935,-3.4935,-3.4935,-3.4935,-3.4935,-3.4935,-3.4935,-3.5082,-3.5213,-3.5213,-3.5359,-3.5504,-3.5504,-3.5504,-3.5504,-3.5504,-3.5504,-3.5504,-3.5504,-3.5504,-3.5504,-3.5504,-3.5504,-3.5504,-3.5504,-3.5504,-3.5925,-3.7131,-3.8383,-3.9218,-3.9218,-3.8311,-3.7838,-3.9023,-3.8254,-3.7838,-3.9094,-3.9272,-3.9272,-3.9272,0.0,0.0,0.0,0.0,0.0,0.0,-3.6211,-3.5504,0.0,0.0,0.0,0.0,0.0,-3.5504,-3.5504,-3.5504,-3.5504,-3.5504,-3.5294,-3.5213,-3.5213,-3.5001,-3.4935,-3.4935,-3.4935,-3.4935,-3.4935,-3.4935,-3.5067,-3.5213,-3.5279,-3.5703,-3.643,-3.6492,-3.7235,-3.8294,-3.8351,-3.8772,-3.9272,0.0,0.0,-3.2574,-3.1104,-3.0701,-3.0598,-3.0788,-3.0796,-3.0947,-3.1336,-3.1386,-3.1386,-3.1386,-3.1386,-3.1499,-3.1763,-3.1788,-3.1788,-3.1788,-3.1788,-3.1788,-3.1788,-3.229,-3.2213,-3.1574,-3.2189,-3.2881,-3.3592,-3.4524,-3.4949,-3.4802,-3.4802,-3.4868,-3.4868,-3.4868,-3.4935,-3.4935,-3.4935,-3.5001,-3.5148,-3.5148,-3.5213,-3.5359,-3.5359,-3.5359,-3.5439,-3.5439,-3.5439,-3.5504,-3.5504,-3.5504,-3.5504,-3.5504,-3.5504,-3.5504,-3.5504,-3.5504,-3.5504,-3.5504,-3.5504,-3.5504,-3.5504,-3.5861,-3.6368,-3.7191,-3.801,-3.8535,-3.8535,-3.8294,-3.8165,-3.8463,-3.8294,-3.8351,-3.9148,-3.9272,-3.9272,-3.9272,-3.9272,0.0,0.0,-3.7879,-3.7191,-3.6662,-3.5973,-3.5504,0.0,0.0,0.0,0.0,-3.5504,-3.5504,-3.5504,-3.5504,-3.5504,-3.5504,-3.5439,-3.5359,-3.5213,-3.5001,-3.5001,-3.5148,-3.5148,-3.5213,-3.5359,-3.5359,-3.5359,-3.5489,-3.5958,-3.6243,-3.6492,-3.7472,-3.8051,-3.8351,-3.8898,-3.9148,-3.9272,-3.289,-3.2692,-3.2218,-3.0846,-3.0633,-3.0522,-3.0259,-3.0231,-3.0344,-3.062,-3.0658,-3.0658,-3.0658,-3.0658,-3.0658,-3.0658,-3.111,-3.1386,-3.1386,-3.1386,-3.1549,-3.1941,-3.207,-3.2163,-3.2084,-3.235,-3.2836,-3.3367,-3.4303,-3.4817,-3.4817,-3.4949,-3.5001,-3.5001,-3.5148,-3.5148,-3.5148,-3.5148,-3.5228,-3.5359,-3.5359,-3.5424,-3.5504,-3.5504,-3.5504,-3.5504,-3.5504,-3.5504,-3.5504,-3.5504,-3.5504,-3.5504,-3.5504,-3.5504,-3.5504,-3.5504,-3.5504,-3.5504,-3.5504,-3.5504,-3.5504,-3.5504,-3.6196,-3.6951,-3.731,-3.7879,-3.8278,-3.8278,-3.7822,-3.7589,-3.8165,-3.8051,-3.8181,-3.9148,-3.9272,-3.9272,-3.9272,-3.9272,0.0,-3.8407,-3.7764,-3.7131,-3.6492,-3.5846,-3.5504,-3.5504,0.0,0.0,-3.5504,-3.5504,-3.5504,-3.5504,-3.5504,-3.5504,-3.5504,-3.5504,-3.5439,-3.5359,-3.5213,-3.5213,-3.5359,-3.5359,-3.5424,-3.5504,-3.5504,-3.5504,-3.5569,-3.6133,-3.66,-3.6951,-3.7937,-3.8479,-3.8772,-3.9148,-3.9272,-3.9222,-3.2593,-3.2464,-3.2033,-3.1119,-3.097,-3.0696,-2.9934,-2.9792,-2.9792,-2.9792,-2.9792,-2.9792,-2.9792,-2.9792,-2.9792,-2.9792,-3.062,-3.1148,-3.1148,-3.1148,-3.1538,-3.2385,-3.2029,-3.2133,-3.282,-3.255,-3.272,-3.3506,-3.4399,-3.4831,-3.4831,-3.5082,-3.5228,-3.5228,-3.5439,-3.5504,-3.5504,-3.5504,-3.5504,-3.5504,-3.5504,-3.5504,-3.5504,-3.5504,-3.5504,-3.5504,-3.5504,-3.5504,-3.5504,-3.5504,-3.5504,-3.5504,-3.5504,-3.5504,-3.5504,-3.5504,-3.5504,-3.5504,-3.5504,-3.5504,-3.5504,-3.5619,-3.6554,-3.7429,-3.7546,-3.7937,-3.8278,-3.8165,-3.7235,-3.6723,-3.7822,-3.7648,-3.778,-3.8969,-3.9218,-3.9272,-3.9272,0.0,-3.8898,-3.8222,-3.7648,-3.7011,-3.6321,-3.5797,-3.5504,-3.5504,-3.5504,-3.5569,0.0,-3.5569,-3.5569,-3.5619,-3.5569,-3.5504,-3.5504,-3.5504,-3.5504,-3.5504,-3.5504,-3.5504,-3.5504,-3.5504,-3.5504,-3.5504,-3.5504,-3.5569,-3.5683,-3.6321,-3.6951,-3.7605,-3.8238,-3.8772,-3.9272,-3.9272,-3.9206,-3.9023,-3.2536,-3.1815,-3.0895,-3.0139,-2.9998,-3.0011,-2.9792,-2.9792,-2.9792,-2.9792,-2.9792,-2.9792,-2.9792,-2.9792,-2.9792,-2.9792,-2.9942,-3.0043,-3.0043,-3.0043,-3.0471,-3.1382,-3.193,-3.2314,-3.2674,-3.3367,-3.4109,-3.4868,-3.5228,-3.5374,-3.5374,-3.5439,-3.5439,-3.5439,-3.5504,-3.5504,-3.5504,-3.5504,-3.5504,-3.5504,-3.5504,-3.5504,-3.5504,-3.5504,-3.5504,-3.5504,-3.5504,-3.5504,-3.5504,-3.5504,-3.5504,-3.5504,-3.5504,-3.5504,-3.5504,-3.5504,-3.5504,-3.5504,-3.5504,-3.5504,-3.5619,-3.6148,-3.6829,-3.7531,-3.8051,-3.8222,-3.8165,-3.7648,-3.6951,-3.6492,-3.6662,-3.7071,-3.7648,-3.8351,-3.8952,-3.9272,-3.9272,0.0,-3.8238,-3.7589,-3.6951,-3.6305,-3.5668,-3.5554,-3.5504,-3.5504,-3.5504,-3.5733,-3.6258,-3.5797,-3.5733,-3.6258,-3.5797,-3.5504,-3.5504,-3.5504,-3.5504,-3.5504,-3.5504,-3.5504,-3.5504,-3.5504,-3.5504,-3.5504,-3.5504,-3.5797,-3.6305,-3.6951,-3.7605,-3.8238,-3.8898,-3.9202,-3.9272,-3.9272,-3.8891,-3.8361,-3.1057,-3.0709,-3.0203,-2.9869,-2.9792,-2.9792,-2.9792,-2.9792,-2.9792,-2.9792,-2.9792,-2.9792,-2.9792,-2.9792,-2.9792,-2.9792,-2.9792,-2.9869,-2.9934,-2.9869,-3.0139,-3.1031,-3.1769,-3.2706,-3.3728,-3.4206,-3.4706,-3.5001,-3.5228,-3.5359,-3.5359,-3.5439,-3.5504,-3.5504,-3.5504,-3.5504,-3.5504,-3.5504,-3.5504,-3.5504,-3.5504,-3.5504,-3.5504,-3.5504,-3.5504,-3.5504,-3.5504,-3.5504,-3.5504,-3.5504,-3.5504,-3.5504,-3.5504,-3.5504,-3.5504,-3.5504,-3.5504,-3.5504,-3.5504,-3.5504,-3.5569,-3.5861,-3.6662,-3.7472,-3.7764,-3.7822,-3.7764,-3.7488,-3.6616,-3.6022,-3.6305,-3.6951,-3.7589,-3.8222,-3.8843,0.0,0.0,-3.8479,-3.7937,-3.6951,-3.66,-3.6133,-3.5569,-3.5504,-3.5504,-3.5504,-3.5797,-3.6085,-3.6368,-3.6492,-3.6492,-3.643,-3.5797,-3.5504,-3.5504,-3.5504,-3.5504,-3.5504,-3.5504,-3.5504,-3.5504,-3.5504,-3.5683,-3.5958,-3.5958,-3.6368,-3.7011,-3.7648,-3.8051,-3.8351,-3.9023,-3.904,-3.8709,-3.8709,-3.8245,-3.7566,-3.0075,-2.9934,-2.9792,-2.9792,-2.9792,-2.9792,-2.9792,-2.9792,-2.9792,-2.9792,-2.9792,-2.9792,-2.9792,-2.9792,-2.9792,-2.9792,-2.9792,-2.9869,-3.0011,-2.9869,-3.0216,-3.1044,-3.206,-3.3213,-3.4601,-3.4868,-3.5001,-3.5001,-3.5213,-3.5294,-3.5294,-3.5439,-3.5504,-3.5504,-3.5504,-3.5504,-3.5504,-3.5504,-3.5504,-3.5504,-3.5504,-3.5504,-3.5504,-3.5504,-3.5504,-3.5504,-3.5504,-3.5504,-3.5504,-3.5504,-3.5504,-3.5504,-3.5504,-3.5504,-3.5504,-3.5504,-3.5504,-3.5504,-3.5504,-3.5504,-3.5504,-3.5683,-3.643,-3.7191,-3.737,-3.731,-3.7191,-3.7191,-3.6258,-3.5619,-3.6085,-3.6845,-3.7531,-3.7994,0.0,0.0,0.0,-3.8165,-3.7648,-3.6538,-3.6258,-3.6085,-3.5733,-3.5748,-3.5797,-3.591,-3.6368,-3.6662,-3.6829,-3.7191,-3.7191,-3.6662,-3.591,-3.5504,-3.5504,-3.5504,-3.5504,-3.5504,-3.5504,-3.5504,-3.5504,-3.5619,-3.5958,-3.643,-3.6538,-3.7011,-3.7663,-3.8108,-3.8407,-3.8574,-3.8912,-3.8692,-3.8195,-3.803,-3.7483,-3.6771,-3.0895,-3.0419,-2.9792,-2.9792,-2.9792,-2.9792,-2.9792,-2.9792,-2.9792,-2.9792,-2.9792,-2.9792,-2.9792,-2.9792,-2.9792,-2.9792,-2.9792,-2.9792,-2.9792,-2.9792,-3.0368,-3.1649,-3.3255,-3.4177,-3.4312,-3.5067,-3.5439,-3.5439,-3.5439,-3.5504,-3.5504,-3.5504,-3.5504,-3.5504,-3.5504,-3.5504,-3.5504,-3.5504,-3.5504,-3.5504,-3.5504,-3.5504,-3.5504,-3.5504,-3.5504,-3.5504,-3.5504,-3.5504,-3.5504,-3.5504,-3.5504,-3.5504,-3.5504,-3.5504,-3.5504,-3.5504,-3.5504,-3.5504,-3.5504,-3.5504,-3.5619,-3.6196,-3.643,-3.6662,-3.7251,-3.689,-3.6492,-3.6492,-3.5973,-3.5504,-3.5569,-3.6554,-3.7429,-3.7488,0.0,0.0,-3.8407,-3.7822,-3.7191,-3.6477,-3.591,-3.5797,-3.6258,-3.6305,-3.66,-3.7191,-3.731,-3.7589,-3.8108,-3.7648,-3.737,-3.731,-3.6148,-3.5504,-3.5504,-3.5504,-3.5504,-3.5504,-3.5504,-3.5504,-3.5504,-3.6085,-3.6368,-3.643,-3.7071,-3.7648,-3.8222,-3.8278,-3.8662,-3.9135,-3.8543,-3.8261,-3.8129,-3.7433,-3.6721,-3.6075,-3.0279,-3.0075,-2.9792,-2.9792,-2.9792,-2.9792,-2.9792,-2.9792,-2.9792,-2.9792,-2.9792,-2.9792,-2.9792,-2.9792,-2.9792,-2.9792,-2.9792,-2.9869,-3.0011,-3.0011,-3.0355,-3.1193,-3.2536,-3.3463,-3.3988,-3.5001,-3.5504,-3.5504,-3.5504,-3.5504,-3.5504,-3.5504,-3.5504,-3.5504,-3.5504,-3.5504,-3.5504,-3.5504,-3.5504,-3.5504,-3.5504,-3.5504,-3.5504,-3.5504,-3.5504,-3.5504,-3.5504,-3.5504,-3.5504,-3.5504,-3.5504,-3.5504,-3.5504,-3.5504,-3.5504,-3.5504,-3.5504,-3.5504,-3.5504,-3.5504,-3.5569,-3.5797,-3.6133,-3.6492,-3.6723,-3.66,-3.643,-3.643,-3.591,-3.5619,-3.5958,-3.6784,-3.7531,-3.7879,0.0,-3.8914,-3.7895,-3.7531,-3.7011,-3.5973,-3.5619,-3.5733,-3.6368,-3.643,-3.6662,-3.737,-3.7764,-3.8051,-3.8294,-3.8108,-3.7937,-3.7937,-3.7131,-3.6677,-3.6677,-3.6677,-3.6492,-3.6085,-3.6085,-3.6085,-3.6085,-3.6321,-3.6829,-3.7589,-3.7822,-3.8294,-3.8865,-3.8438,-3.8381,-3.8543,-3.7814,-3.7251,-3.6804,-3.6522,-3.5959,-3.5313,-2.9792,-2.9792,-2.9792,-2.9792,-2.9792,-2.9792,-2.9792,-2.9792,-2.9792,-2.9792,-2.9792,-2.9792,-2.9792,-2.9792,-2.9792,-2.9792,-2.9792,-2.9869,-3.0011,-3.0088,-3.0432,-3.1119,-3.2119,-3.3115,-3.3919,-3.5001,-3.5504,-3.5504,-3.5504,-3.5504,-3.5504,-3.5504,-3.5504,-3.5504,-3.5504,-3.5504,-3.5504,-3.5504,-3.5504,-3.5504,-3.5504,-3.5504,-3.5504,-3.5504,-3.5504,-3.5504,-3.5504,-3.5504,-3.5504,-3.5504,-3.5504,-3.5504,-3.5504,-3.5504,-3.5504,-3.5504,-3.5504,-3.5504,-3.5504,-3.5504,-3.5504,-3.5504,-3.5797,-3.6148,-3.6148,-3.6148,-3.6148,-3.6148,-3.5797,-3.5619,-3.6022,-3.6662,-3.7251,-3.7648,-3.8254,-3.8311,-3.7251,-3.7071,-3.6784,-3.591,-3.5797,-3.6085,-3.689,-3.7011,-3.7235,-3.7953,-3.8367,-3.859,-3.859,-3.8407,-3.8407,-3.859,-3.801,-3.7668,-3.7648,-3.7494,-3.7191,-3.6723,-3.6723,-3.6614,-3.6352,-3.6578,-3.697,-3.7614,-3.7796,-3.8171,-3.856,-3.8063,-3.7864,-3.7798,-3.7052,-3.6456,-3.5976,-3.5744,-3.533,-3.4899,-2.9792,-2.9792,-2.9792,-2.9792,-2.9792,-2.9792,-2.9792,-2.9792,-2.9792,-2.9792,-2.9792,-2.9792,-2.9792,-2.9792,-2.9792,-2.9792,-2.9792,-2.9792,-2.9792,-3.0011,-3.057,-3.1796,-3.2506,-3.3353,-3.4312,-3.5067,-3.5504,-3.5504,-3.5504,-3.5504,-3.5504,-3.5504,-3.5504,-3.5504,-3.5504,-3.5504,-3.5504,-3.5504,-3.5504,-3.5504,-3.5504,-3.5504,-3.5504,-3.5504,-3.5504,-3.5504,-3.5504,-3.5504,-3.5504,-3.5504,-3.5504,-3.5504,-3.5504,-3.5504,-3.5504,-3.5504,-3.5504,-3.5504,-3.5504,-3.5504,-3.5504,-3.5504,-3.5504,-3.5504,-3.5504,-3.5504,-3.5504,-3.5504,-3.5504,-3.5504,-3.5504,-3.6022,-3.643,-3.643,-3.6966,-3.7191,-3.6492,-3.643,-3.643,-3.643,-3.643,-3.689,-3.8165,-3.8278,-3.859,-3.9272,-3.9272,-3.9272,-3.9272,-3.8662,-3.859,-3.9272,-3.8645,-3.8264,-3.8212,-3.7673,-3.7413,-3.7413,-3.7413,-3.7006,-3.6285,-3.691,-3.6799,-3.612,-3.6814,-3.7102,-3.7102,-3.7102,-3.7102,-3.7036,-3.629,-3.5992,-3.5909,-3.5164,-3.4899,-3.4899,-2.9792,-2.9792,-2.9792,-2.9792,-2.9792,-2.9792,-2.9792,-2.9792,-2.9792,-2.9792,-2.9792,-2.9792,-2.9792,-2.9792,-2.9792,-2.9792,-2.9792,-2.9792,-2.9792,-3.0343,-3.1193,-3.2335,-3.2706,-3.3269,-3.4095,-3.4986,-3.5504,-3.5504,-3.5504,-3.5504,-3.5504,-3.5504,-3.5504,-3.5504,-3.5504,-3.5504,-3.5504,-3.5504,-3.5504,-3.5504,-3.5504,-3.5504,-3.5504,-3.5504,-3.5504,-3.5504,-3.5504,-3.5504,-3.5504,-3.5504,-3.5504,-3.5504,-3.5504,-3.5504,-3.5504,-3.5504,-3.5504,-3.5504,-3.5504,-3.5504,-3.5504,-3.5504,-3.5504,-3.5504,-3.5504,-3.5504,-3.5504,-3.5504,-3.5504,-3.5619,-3.6022,-3.6258,-3.6538,-3.7011,-3.7251,-3.7191,-3.6492,-3.643,-3.643,-3.643,-3.643,-3.689,-3.8165,-3.8278,-3.859,-3.9272,-3.9272,-3.9272,-3.9272,-3.9094,-3.9077,-3.9272,-3.8599,-3.8236,-3.8212,-3.8007,-3.7449,-3.6477,-3.6477,-3.6364,-3.6172,-3.6335,-3.656,-3.6814,-3.6984,-3.7102,-3.7069,-3.6539,-3.634,-3.6257,-3.5512,-3.523,-3.5197,-3.4982,-3.4899,-3.4899,-2.9792,-2.9792,-2.9792,-2.9792,-2.9792,-2.9792,-2.9792,-2.9792,-2.9792,-2.9792,-2.9792,-2.9792,-2.9792,-2.9792,-2.9792,-2.9792,-2.9792,-2.9869,-2.9934,-3.0419,-3.1328,-3.2664,-3.2918,-3.3492,-3.4543,-3.5213,-3.5504,-3.5504,-3.5504,-3.5504,-3.5504,-3.5504,-3.5504,-3.5504,-3.5504,-3.5504,-3.5504,-3.5504,-3.5504,-3.5504,-3.5504,-3.5504,-3.5504,-3.5504,-3.5504,-3.5504,-3.5504,-3.5504,-3.5504,-3.5504,-3.5504,-3.5504,-3.5504,-3.5504,-3.5504,-3.5504,-3.5504,-3.5504,-3.5504,-3.5504,-3.5504,-3.5504,-3.5504,-3.5504,-3.5504,-3.5504,-3.5504,-3.5504,-3.5504,-3.5619,-3.5973,-3.6022,-3.6211,-3.6554,-3.6677,-3.6492,-3.6085,-3.6022,-3.6258,-3.6723,-3.6784,-3.731,-3.859,-3.8717,-3.8843,-3.9272,-3.9272,-3.9272,-3.9272,-3.9272,-3.9156,-3.8858,-3.8444,-3.793,-3.735,-3.7334,-3.703,-3.647,-3.647,-3.6323,-3.6046,-3.6046,-3.6104,-3.6241,-3.6241,-3.6241,-3.6208,-3.5744,-3.5562,-3.5512,-3.5065,-3.4899,-3.4899,-3.4899,-3.4899,-3.4899,-2.9792,-2.9792,-2.9792,-2.9792,-2.9792,-2.9792,-2.9792,-2.9792,-2.9792,-2.9792,-2.9792,-2.9792,-2.9792,-2.9792,-2.9792,-2.9792,-2.9792,-2.9869,-3.0088,-3.0292,-3.1132,-3.2678,-3.3129,-3.3934,-3.5359,-3.5439,-3.5504,-3.5504,-3.5504,-3.5504,-3.5504,-3.5504,-3.5504,-3.5504,-3.5504,-3.5504,-3.5504,-3.5504,-3.5504,-3.5504,-3.5504,-3.5504,-3.5504,-3.5504,-3.5504,-3.5504,-3.5504,-3.5504,-3.5504,-3.5504,-3.5504,-3.5504,-3.5504,-3.5504,-3.5504,-3.5504,-3.5504,-3.5504,-3.5504,-3.5504,-3.5504,-3.5504,-3.5504,-3.5504,-3.5504,-3.5504,-3.5504,-3.5504,-3.5504,-3.5504,-3.5504,-3.5504,-3.5504,-3.5504,-3.5504,-3.5504,-3.5504,-3.5504,-3.5973,-3.7251,-3.7429,-3.7895,-3.9164,-3.9272,-3.9272,-3.9272,-3.9272,-3.9272,-3.9272,-3.9272,-3.8941,-3.8228,-3.8146,-3.7433,-3.6009,-3.5926,-3.6241,-3.6903,-3.6903,-3.6555,-3.5909,-3.5909,-3.5528,-3.4899,-3.4899,-3.4899,-3.4899,-3.4899,-3.4899,-3.4899,-3.4899,-3.4899,-3.4899,-3.4899,-3.4899,-3.4899,-2.9792,-2.9792,-2.9792,-2.9792,-2.9792,-2.9792,-2.9792,-2.9792,-2.9792,-2.9792,-2.9792,-2.9792,-2.9792,-2.9792,-2.9792,-2.9792,-2.9792,-2.9792,-2.9869,-3.0583,-3.1294,-3.1783,-3.3143,-3.4124,-3.4528,-3.5213,-3.5504,-3.5504,-3.5504,-3.5504,-3.5504,-3.5504,-3.5504,-3.5504,-3.5504,-3.5504,-3.5504,-3.5504,-3.5504,-3.5504,-3.5504,-3.5504,-3.5504,-3.5504,-3.5504,-3.5504,-3.5504,-3.5504,-3.5504,-3.5504,-3.5504,-3.5504,-3.5504,-3.5504,-3.5504,-3.5504,-3.5504,-3.5504,-3.5504,-3.5504,-3.5504,-3.5504,-3.5504,-3.5504,-3.5504,-3.5504,-3.5504,-3.5504,-3.5504,-3.5504,-3.5504,-3.5504,-3.5504,-3.5504,-3.5504,-3.5504,-3.5504,-3.5504,-3.5973,-3.7251,-3.7429,-3.7895,-3.9164,-3.9272,-3.9272,-3.9272,-3.9272,-3.9272,-3.9272,-3.9272,-3.8941,-3.8228,-3.7649,-3.692,-3.6009,-3.5429,-3.5214,-3.5379,-3.5379,-3.5297,-3.5131,-3.5131,-3.5048,-3.4899,-3.4899,-3.4899,-3.4899,-3.4899,-3.4899,-3.4899,-3.4899,-3.4899,-3.4899,-3.4899,-3.4899,-3.4899,-2.9792,-2.9792,-2.9792,-2.9792,-2.9792,-2.9792,-2.9792,-2.9792,-2.9792,-2.9792,-2.9792,-2.9792,-2.9792,-2.9792,-2.9792,-2.9792,-2.9792,-2.9792,-2.9792,-3.0368,-3.0859,-3.1355,-3.242,-3.3339,-3.4163,-3.4677,-3.5133,-3.5504,-3.5504,-3.5504,-3.5504,-3.5504,-3.5504,-3.5504,-3.5504,-3.5504,-3.5504,-3.5504,-3.5504,-3.5504,-3.5504,-3.5504,-3.5504,-3.5504,-3.5504,-3.5504,-3.5504,-3.5504,-3.5504,-3.5504,-3.5504,-3.5504,-3.5504,-3.5504,-3.5504,-3.5504,-3.5504,-3.5504,-3.5504,-3.5504,-3.5504,-3.5504,-3.5504,-3.5504,-3.5504,-3.5504,-3.5504,-3.5504,-3.5504,-3.5504,-3.5504,-3.5504,-3.5504,-3.5504,-3.5504,-3.5504,-3.5504,-3.5733,-3.6321,-3.731,-3.7648,-3.8254,-3.9202,-3.9272,-3.9272,-3.9272,-3.9272,-3.9272,-3.9272,-3.9272,-3.8791,-3.7715,-3.7317,-3.6589,-3.5479,-3.5081,-3.4899,-3.4899,-3.4899,-3.4899,-3.4899,-3.4899,-3.4899,-3.4899,-3.4899,-3.4899,-3.4899,-3.4899,-3.4899,-3.4899,-3.4899,-3.4899,-3.4899,-3.4899,-3.4899,-3.4899,-2.9792,-2.9792,-2.9792,-2.9792,-2.9792,-2.9792,-2.9792,-2.9792,-2.9792,-2.9792,-2.9792,-2.9792,-2.9792,-2.9792,-2.9792,-2.9792,-2.9792,-2.9792,-2.9792,-3.0011,-3.0355,-3.1044,-3.1636,-3.2563,-3.3822,-3.4312,-3.4824,-3.5504,-3.5504,-3.5504,-3.5504,-3.5504,-3.5504,-3.5504,-3.5504,-3.5504,-3.5504,-3.5504,-3.5504,-3.5504,-3.5504,-3.5504,-3.5504,-3.5504,-3.5504,-3.5504,-3.5504,-3.5504,-3.5504,-3.5504,-3.5504,-3.5504,-3.5504,-3.5504,-3.5504,-3.5504,-3.5504,-3.5504,-3.5504,-3.5504,-3.5504,-3.5504,-3.5504,-3.5504,-3.5504,-3.5504,-3.5504,-3.5504,-3.5504,-3.5504,-3.5504,-3.5504,-3.5504,-3.5504,-3.5504,-3.5504,-3.5504,-3.6022,-3.6662,-3.731,-3.7994,-3.8717,-3.9272,-3.9272,-3.9272,-3.9272,-3.9272,-3.9272,-3.9272,-3.9272,-3.8659,-3.7334,-3.7168,-3.6456,-3.5098,-3.4965,-3.4899,-3.4899,-3.4899,-3.4899,-3.4899,-3.4899,-3.4899,-3.4899,-3.4899,-3.4899,-3.4899,-3.4899,-3.4899,-3.4899,-3.4899,-3.4899,-3.4899,-3.4899,-3.4899,-3.4899,-2.9792,-2.9792,-2.9792,-2.9792,-2.9792,-2.9792,-2.9792,-2.9792,-2.9792,-2.9792,-2.9792,-2.9792,-2.9792,-2.9792,-2.9792,-2.9792,-2.9792,-2.9792,-2.9792,-3.0011,-3.0216,-3.0508,-3.1974,-3.2904,-3.3283,-3.4639,-3.5359,-3.5504,-3.5504,-3.5504,-3.5504,-3.5504,-3.5504,-3.5504,-3.5504,-3.5504,-3.5504,-3.5504,-3.5504,-3.5504,-3.5504,-3.5504,-3.5504,-3.5504,-3.5504,-3.5504,-3.5504,-3.5504,-3.5504,-3.5504,-3.5504,-3.5504,-3.5504,-3.5504,-3.5504,-3.5504,-3.5504,-3.5504,-3.5504,-3.5504,-3.5504,-3.5504,-3.5504,-3.5504,-3.5504,-3.5504,-3.5504,-3.5504,-3.5504,-3.5504,-3.5504,-3.5504,-3.5504,-3.5504,-3.5504,-3.5504,-3.5504,-3.6022,-3.6662,-3.731,-3.8439,-3.9202,-3.9272,-3.9272,-3.9272,-3.9272,-3.9272,-3.9272,-3.9272,-3.9272,-3.8907,-3.8096,-3.7433,-3.6704,-3.586,-3.5214,-3.4899,-3.4899,-3.4899,-3.4899,-3.4899,-3.4899,-3.4899,-3.4899,-3.4899,-3.4899,-3.4899,-3.4899,-3.4899,-3.4899,-3.4899,-3.4899,-3.4899,-3.4899,-3.4899,-3.4899,-2.9792,-2.9792,-2.9792,-2.9792,-2.9792,-2.9792,-2.9792,-2.9792,-2.9792,-2.9792,-2.9792,-2.9792,-2.9792,-2.9792,-2.9792,-2.9792,-2.9792,-2.9792,-2.9792,-2.9869,-3.0011,-3.0228,-3.1071,-3.1988,-3.2975,-3.3782,-3.4639,-3.5504,-3.5504,-3.5504,-3.5504,-3.5504,-3.5504,-3.5504,-3.5504,-3.5504,-3.5504,-3.5504,-3.5504,-3.5504,-3.5504,-3.5504,-3.5504,-3.5504,-3.5504,-3.5504,-3.5504,-3.5504,-3.5504,-3.5504,-3.5504,-3.5504,-3.5504,-3.5504,-3.5504,-3.5504,-3.5504,-3.5504,-3.5504,-3.5504,-3.5504,-3.5504,-3.5504,-3.5504,-3.5504,-3.5504,-3.5504,-3.5504,-3.5504,-3.5504,-3.5504,-3.5504,-3.5504,-3.5504,-3.5504,-3.5504,-3.5504,-3.6022,-3.6768,-3.7764,-3.8717,-3.9272,-3.9272,-3.9272,-3.9272,-3.9272,-3.9272,-3.9272,-3.9272,-3.9272,-3.8941,-3.8228,-3.7483,-3.6754,-3.6009,-3.5263,-3.4899,-3.4899,-3.4899,-3.4899,-3.4899,-3.4899,-3.4899,-3.4899,-3.4899,-3.4899,-3.4899,-3.4899,-3.4899,-3.4899,-3.4994,-3.4994,-3.4994,-3.4947,-3.4899,-3.4899]}]]